[[{"header":{"parameterUnit":"m.s-1","parameterCategory":1,"la1":30.6,"la2":29.2853,"lo1":-89.7004,"lo2":-87.6739,"dy":0.0162,"dx":0.0183,"nx":112,"ny":82,"refTime":"2024-09-03T00:00:00:Z","depth":0,"parameterNumber":2,"parameterNumberName":"U-component_of_WINDS"},"data":[0.0,0.0,0.0,0.0,0.0,0.0,0.0,0.0,0.0,0.0,0.0,0.0,0.0,0.0,0.0,0.0,0.0,0.0,0.0,0.0,0.0,0.0,0.0,0.0,0.0,0.0,0.0,0.0,0.0,0.0,0.0,0.0,0.0,0.0,0.0,0.0,0.0,0.0,0.0,0.0,0.0,0.0,0.0,0.0,0.0,0.0,0.0,0.0,0.0,0.0,0.0,0.0,0.0,0.0,0.0,0.0,0.0,0.0,0.0,0.0,0.0,0.0,0.0,0.0,0.0,0.0,0.0,0.0,0.0,0.0,0.0,0.0,0.0,0.0,0.0,0.0,0.0,0.0,0.0,0.0,0.0,0.0,0.0,0.0,0.0,0.0,0.0,0.0,0.0,0.0,4.4085,4.8746,5.3151,5.5721,5.5611,5.4142,5.0839,4.5259,0.0,0.0,0.0,0.0,0.0,0.0,0.0,0.0,0.0,0.0,0.0,0.0,0.0,0.0,0.0,0.0,0.0,0.0,0.0,0.0,0.0,0.0,0.0,0.0,0.0,0.0,0.0,0.0,0.0,0.0,0.0,0.0,0.0,0.0,0.0,0.0,0.0,0.0,0.0,0.0,0.0,0.0,0.0,0.0,0.0,0.0,0.0,0.0,0.0,0.0,0.0,0.0,0.0,0.0,0.0,0.0,0.0,0.0,0.0,0.0,0.0,0.0,0.0,0.0,0.0,0.0,0.0,0.0,0.0,0.0,0.0,0.0,0.0,0.0,0.0,0.0,0.0,0.0,0.0,0.0,0.0,0.0,0.0,0.0,0.0,0.0,0.0,0.0,0.0,0.0,0.0,0.0,0.0,0.0,0.0,0.0,0.0,0.0,0.0,0.0,0.0,0.0,0.0,0.0,4.5186,5.2674,5.5354,5.6345,5.5647,5.4142,5.1059,4.603,0.0,0.0,0.0,0.0,0.0,0.0,0.0,0.0,0.0,0.0,0.0,0.0,0.0,0.0,0.0,0.0,0.0,0.0,0.0,0.0,0.0,0.0,0.0,0.0,0.0,0.0,0.0,0.0,0.0,0.0,0.0,0.0,0.0,0.0,0.0,0.0,0.0,0.0,0.0,0.0,0.0,0.0,0.0,0.0,0.0,0.0,0.0,0.0,0.0,0.0,0.0,0.0,0.0,0.0,0.0,0.0,0.0,0.0,0.0,0.0,0.0,0.0,0.0,0.0,0.0,0.0,0.0,0.0,0.0,0.0,0.0,0.0,0.0,0.0,0.0,0.0,0.0,0.0,0.0,0.0,0.0,0.0,0.0,0.0,0.0,0.0,0.0,0.0,0.0,0.0,0.0,0.0,0.0,0.0,0.0,0.0,0.0,0.0,0.0,0.0,0.0,0.0,0.0,4.5076,4.8636,5.5023,5.6748,5.6932,5.5684,5.4142,5.0831,4.5257,4.1136,0.0,0.0,0.0,0.0,0.0,0.0,0.0,0.0,0.0,0.0,0.0,0.0,0.0,0.0,0.0,0.0,0.0,0.0,0.0,0.0,0.0,0.0,0.0,0.0,0.0,0.0,0.0,0.0,0.0,0.0,0.0,0.0,0.0,0.0,0.0,0.0,0.0,0.0,0.0,0.0,0.0,0.0,0.0,0.0,0.0,0.0,0.0,0.0,0.0,0.0,0.0,0.0,0.0,0.0,0.0,0.0,0.0,0.0,0.0,0.0,0.0,0.0,0.0,0.0,0.0,0.0,0.0,0.0,0.0,0.0,0.0,0.0,0.0,0.0,0.0,0.0,0.0,0.0,0.0,0.0,0.0,0.0,0.0,0.0,0.0,0.0,0.0,0.0,0.0,0.0,0.0,0.0,0.0,0.0,0.0,0.0,0.0,0.0,0.0,0.0,0.0,0.0,4.9701,5.2013,5.6345,5.7336,5.707,5.5505,5.3237,4.9596,4.4173,3.9338,0.0,0.0,0.0,0.0,0.0,0.0,0.0,0.0,0.0,0.0,0.0,0.0,0.0,0.0,0.0,0.0,0.0,0.0,0.0,0.0,0.0,0.0,0.0,0.0,0.0,0.0,0.0,0.0,0.0,0.0,0.0,0.0,0.0,0.0,0.0,0.0,0.0,0.0,0.0,0.0,0.0,0.0,0.0,0.0,0.0,0.0,0.0,0.0,0.0,0.0,0.0,0.0,0.0,0.0,0.0,0.0,0.0,0.0,0.0,0.0,0.0,0.0,0.0,0.0,0.0,0.0,0.0,0.0,0.0,0.0,0.0,0.0,0.0,0.0,0.0,0.0,0.0,0.0,0.0,0.0,0.0,0.0,0.0,0.0,0.0,0.0,0.0,0.0,0.0,0.0,0.0,0.0,0.0,0.0,0.0,0.0,0.0,0.0,0.0,0.0,0.0,0.0,5.0141,5.3922,5.6528,5.6859,5.6264,5.4786,5.0605,4.6669,4.3294,3.6421,0.0,0.0,0.0,0.0,0.0,0.0,0.0,0.0,0.0,0.0,0.0,0.0,0.0,0.0,0.0,0.0,0.0,0.0,0.0,0.0,0.0,0.0,0.0,0.0,0.0,0.0,0.0,0.0,0.0,0.0,0.0,0.0,0.0,0.0,0.0,0.0,0.0,0.0,0.0,0.0,0.0,0.0,0.0,0.0,0.0,0.0,0.0,0.0,0.0,0.0,0.0,0.0,0.0,0.0,0.0,0.0,0.0,0.0,0.0,0.0,0.0,0.0,0.0,0.0,0.0,0.0,0.0,0.0,0.0,0.0,0.0,0.0,0.0,0.0,0.0,0.0,0.0,0.0,0.0,0.0,0.0,0.0,0.0,0.0,0.0,0.0,0.0,0.0,0.0,0.0,0.0,0.0,0.0,0.0,0.0,0.0,0.0,0.0,0.0,0.0,0.0,0.0,5.0362,5.3566,5.6552,5.6443,5.5546,5.3973,5.0557,4.655,4.2096,0.0,0.0,0.0,0.0,0.0,0.0,0.0,0.0,0.0,0.0,0.0,0.0,0.0,0.0,0.0,0.0,0.0,0.0,0.0,0.0,0.0,0.0,0.0,0.0,0.0,0.0,0.0,0.0,0.0,0.0,0.0,0.0,0.0,0.0,0.0,0.0,0.0,0.0,0.0,0.0,0.0,0.0,0.0,0.0,0.0,0.0,0.0,0.0,0.0,0.0,0.0,0.0,0.0,0.0,0.0,0.0,0.0,0.0,0.0,0.0,0.0,0.0,0.0,0.0,0.0,0.0,0.0,0.0,0.0,0.0,0.0,0.0,0.0,0.0,0.0,0.0,0.0,0.0,0.0,0.0,0.0,0.0,0.0,0.0,0.0,0.0,0.0,0.0,0.0,0.0,0.0,0.0,0.0,0.0,0.0,0.0,0.0,0.0,0.0,0.0,0.0,0.0,4.7119,5.055,5.3463,5.6221,5.563,5.4509,5.3183,4.9466,4.5256,4.0723,0.0,0.0,0.0,0.0,0.0,0.0,0.0,0.0,0.0,0.0,0.0,0.0,0.0,0.0,0.0,0.0,0.0,0.0,0.0,0.0,0.0,0.0,0.0,0.0,0.0,0.0,0.0,0.0,0.0,0.0,0.0,0.0,0.0,0.0,0.0,0.0,0.0,0.0,0.0,0.0,0.0,0.0,0.0,0.0,0.0,0.0,0.0,0.0,0.0,0.0,0.0,0.0,0.0,0.0,0.0,0.0,0.0,0.0,0.0,0.0,0.0,0.0,0.0,0.0,0.0,0.0,0.0,0.0,0.0,0.0,0.0,0.0,0.0,0.0,0.0,0.0,0.0,0.0,0.0,0.0,0.0,0.0,0.0,0.0,0.0,0.0,0.0,0.0,0.0,0.0,0.0,0.0,0.0,0.0,0.0,0.0,0.0,0.0,0.0,0.0,0.0,0.0,4.6578,5.0721,5.3821,5.5532,5.4343,5.3148,5.2438,4.6847,4.2161,0.0,0.0,0.0,0.0,0.0,0.0,0.0,0.0,0.0,0.0,0.0,0.0,0.0,0.0,0.0,0.0,0.0,0.0,0.0,0.0,0.0,0.0,0.0,0.0,0.0,0.0,0.0,0.0,0.0,0.0,0.0,0.0,0.0,0.0,0.0,0.0,0.0,0.0,0.0,0.0,0.0,0.0,0.0,0.0,0.0,0.0,0.0,0.0,0.0,0.0,0.0,0.0,0.0,0.0,0.0,0.0,0.0,0.0,0.0,0.0,0.0,0.0,0.0,0.0,0.0,0.0,0.0,0.0,0.0,0.0,0.0,0.0,0.0,0.0,0.0,0.0,0.0,0.0,0.0,0.0,0.0,0.0,0.0,0.0,0.0,0.0,0.0,0.0,0.0,0.0,0.0,0.0,0.0,0.0,0.0,0.0,0.0,0.0,0.0,0.0,0.0,0.0,0.0,4.6087,5.056,5.3741,5.479,5.3579,5.2379,5.1595,4.709,4.2754,3.9208,0.0,0.0,0.0,0.0,0.0,0.0,0.0,0.0,0.0,0.0,0.0,0.0,0.0,0.0,0.0,0.0,0.0,0.0,0.0,0.0,0.0,0.0,0.0,0.0,0.0,0.0,0.0,0.0,0.0,0.0,0.0,0.0,0.0,0.0,0.0,0.0,0.0,0.0,0.0,0.0,0.0,0.0,0.0,0.0,0.0,0.0,0.0,0.0,0.0,0.0,0.0,0.0,0.0,0.0,0.0,0.0,0.0,0.0,0.0,0.0,0.0,0.0,0.0,0.0,0.0,0.0,0.0,0.0,0.0,0.0,0.0,0.0,0.0,0.0,0.0,0.0,0.0,0.0,0.0,0.0,0.0,0.0,0.0,0.0,0.0,0.0,0.0,0.0,0.0,0.0,0.0,0.0,0.0,0.0,0.0,0.0,0.0,0.0,0.0,0.0,0.0,0.0,4.5418,5.0047,5.3288,5.4063,5.2798,5.1719,5.1217,4.7394,4.3436,3.9681,0.0,0.0,0.0,0.0,0.0,0.0,0.0,0.0,0.0,0.0,0.0,0.0,0.0,0.0,0.0,0.0,0.0,0.0,0.0,0.0,0.0,0.0,0.0,0.0,0.0,0.0,0.0,0.0,0.0,0.0,0.0,0.0,0.0,0.0,0.0,0.0,0.0,0.0,0.0,0.0,0.0,0.0,0.0,0.0,0.0,0.0,0.0,0.0,0.0,0.0,0.0,0.0,0.0,0.0,0.0,0.0,0.0,0.0,0.0,0.0,0.0,0.0,0.0,0.0,0.0,0.0,0.0,0.0,0.0,0.0,0.0,0.0,0.0,0.0,0.0,0.0,0.0,0.0,0.0,0.0,0.0,0.0,0.0,0.0,0.0,0.0,0.0,0.0,0.0,0.0,0.0,0.0,0.0,0.0,0.0,0.0,0.0,0.0,0.0,0.0,0.0,0.0,4.4803,4.9321,5.2516,5.328,5.2097,5.1183,5.1116,4.78,4.4113,4.0426,0.0,0.0,0.0,0.0,0.0,0.0,0.0,0.0,0.0,0.0,0.0,0.0,0.0,0.0,0.0,0.0,0.0,0.0,0.0,0.0,0.0,0.0,0.0,0.0,0.0,0.0,0.0,0.0,0.0,0.0,0.0,0.0,0.0,0.0,0.0,0.0,0.0,0.0,0.0,0.0,0.0,0.0,0.0,0.0,0.0,0.0,0.0,0.0,0.0,0.0,0.0,0.0,0.0,0.0,0.0,0.0,0.0,0.0,0.0,0.0,4.1919,0.0,0.0,0.0,0.0,0.0,0.0,0.0,0.0,0.0,0.0,0.0,0.0,0.0,0.0,0.0,0.0,0.0,0.0,0.0,0.0,0.0,0.0,0.0,0.0,0.0,0.0,0.0,0.0,0.0,0.0,0.0,0.0,0.0,0.0,0.0,0.0,0.0,0.0,0.0,0.0,0.0,4.498,4.9025,5.1715,5.2469,5.1758,5.098,5.0371,4.7496,4.435,4.117,3.7313,0.0,0.0,0.0,0.0,0.0,0.0,0.0,0.0,0.0,0.0,0.0,0.0,0.0,0.0,0.0,0.0,0.0,0.0,0.0,0.0,0.0,0.0,0.0,0.0,0.0,0.0,0.0,0.0,0.0,0.0,0.0,0.0,0.0,0.0,0.0,0.0,0.0,0.0,0.0,0.0,0.0,0.0,0.0,0.0,0.0,0.0,0.0,0.0,0.0,0.0,0.0,0.0,0.0,0.0,0.0,0.0,0.0,0.0,0.0,0.0,4.4525,0.0,0.0,0.0,0.0,0.0,0.0,0.0,0.0,0.0,0.0,0.0,0.0,0.0,0.0,0.0,0.0,0.0,0.0,0.0,0.0,0.0,0.0,0.0,0.0,0.0,0.0,0.0,0.0,0.0,0.0,0.0,0.0,0.0,0.0,0.0,0.0,0.0,0.0,0.0,0.0,4.506,4.8917,5.1488,5.2232,5.1657,5.0913,5.0135,4.8037,4.5635,4.2997,3.9648,0.0,0.0,0.0,0.0,0.0,0.0,0.0,0.0,0.0,0.0,0.0,0.0,0.0,0.0,0.0,0.0,0.0,0.0,0.0,0.0,0.0,0.0,0.0,0.0,0.0,0.0,0.0,0.0,0.0,0.0,0.0,0.0,0.0,0.0,0.0,0.0,0.0,0.0,0.0,0.0,0.0,0.0,0.0,0.0,0.0,0.0,0.0,0.0,0.0,0.0,0.0,0.0,0.0,5.2711,5.3592,5.4876,5.4876,5.517,5.5464,5.2087,5.0435,4.9921,4.7131,0.0,0.0,0.0,0.0,0.0,0.0,0.0,0.0,0.0,0.0,0.0,0.0,0.0,0.0,0.0,0.0,0.0,0.0,0.0,0.0,0.0,0.0,0.0,0.0,4.7759,4.7132,0.0,0.0,0.0,0.0,0.0,0.0,0.0,0.0,0.0,0.0,0.0,0.0,4.5534,4.9187,5.1589,5.2063,5.1589,5.0845,4.9965,4.868,4.7022,4.4891,4.2185,3.9445,0.0,0.0,0.0,0.0,0.0,0.0,0.0,0.0,0.0,0.0,0.0,0.0,0.0,0.0,0.0,0.0,0.0,0.0,0.0,0.0,0.0,0.0,0.0,0.0,0.0,0.0,0.0,0.0,0.0,0.0,0.0,0.0,4.2359,4.28,0.0,0.0,0.0,0.0,0.0,0.0,0.0,0.0,0.0,0.0,0.0,0.0,0.0,5.1169,5.3555,5.5684,5.7189,5.8143,6.0236,6.1337,6.1557,6.1557,6.1227,6.0603,6.0089,0.0,5.2637,5.1499,0.0,0.0,0.0,0.0,0.0,0.0,0.0,0.0,0.0,0.0,0.0,0.0,0.0,0.0,0.0,0.0,0.0,0.0,0.0,0.0,0.0,0.0,4.9891,4.933,4.9918,5.0114,0.0,4.4445,4.0496,3.8146,3.6173,0.0,0.0,0.0,0.0,0.0,0.0,0.0,4.7124,5.027,5.1961,5.142,5.1285,5.0642,4.9255,4.8376,4.7259,4.5669,4.3944,4.2219,4.0527,3.7077,0.0,0.0,0.0,0.0,0.0,0.0,0.0,0.0,0.0,0.0,0.0,0.0,0.0,0.0,0.0,0.0,0.0,0.0,0.0,0.0,0.0,0.0,0.0,0.0,0.0,0.0,0.0,0.0,0.0,4.0965,4.4158,4.4158,4.4892,4.4415,0.0,0.0,0.0,0.0,0.0,0.0,0.0,0.0,0.0,5.3283,5.3856,5.5219,5.764,5.8735,5.9633,6.0424,6.1523,6.2242,6.2673,6.2673,6.2494,6.2134,6.1723,5.9869,5.7028,5.4894,5.2417,4.9811,0.0,0.0,0.0,0.0,4.672,4.6585,4.8877,4.8371,0.0,4.6553,0.0,0.0,0.0,0.0,0.0,0.0,0.0,0.0,0.0,0.0,5.1759,5.2235,5.2699,5.2764,5.2031,4.9249,4.5917,0.0,4.1704,4.0388,3.6469,0.0,0.0,0.0,0.0,4.479,4.8105,5.0744,5.2029,5.1285,5.1217,5.0608,4.912,4.8714,4.8071,4.7022,4.5534,4.4215,4.3132,3.9918,3.7449,0.0,0.0,0.0,0.0,0.0,0.0,0.0,0.0,0.0,0.0,0.0,0.0,0.0,0.0,0.0,0.0,0.0,0.0,0.0,0.0,0.0,0.0,0.0,0.0,0.0,0.0,0.0,0.0,4.3461,4.6177,4.5993,4.7205,4.6873,0.0,0.0,0.0,0.0,0.0,0.0,5.095,5.1423,5.3373,5.7187,5.7797,5.9162,6.1376,6.1376,6.1722,6.2287,6.2287,6.2669,6.32,6.32,6.3094,6.2882,6.2316,6.1538,6.0397,5.7454,5.5291,5.3608,5.1609,5.0257,4.9713,5.1129,5.0967,5.0354,5.3426,5.3034,5.1189,5.0784,4.8942,4.6413,4.37,0.0,0.0,0.0,0.0,4.7404,4.9722,5.1242,5.2485,5.3871,5.4313,5.4155,5.3604,5.2584,5.06,0.0,4.6473,4.5436,4.0459,0.0,0.0,0.0,0.0,4.6853,4.9255,5.1352,5.2334,5.1589,5.1319,5.071,4.939,4.912,4.8714,4.797,4.6684,4.5635,4.4891,4.2354,4.0189,3.8497,0.0,0.0,0.0,0.0,0.0,0.0,0.0,0.0,0.0,0.0,0.0,0.0,0.0,0.0,0.0,0.0,0.0,0.0,0.0,0.0,0.0,0.0,0.0,0.0,0.0,0.0,0.0,0.0,0.0,4.9444,5.2087,0.0,0.0,0.0,0.0,4.8322,5.0981,5.3429,5.5107,5.6564,5.8879,6.2046,6.2188,6.3029,6.4685,6.4685,6.4721,6.4822,6.4822,6.4858,6.4893,6.4893,6.4468,6.373,6.3695,6.2811,6.1219,5.8874,5.6927,5.5292,5.4444,5.3576,5.2976,5.3788,5.4126,5.4126,5.4338,5.3484,5.2438,5.3013,5.1253,4.8809,4.864,4.7149,0.0,0.0,4.8199,4.9351,5.1617,5.2261,5.2499,5.3347,5.3517,5.3551,5.3517,5.3416,5.2672,0.0,4.8741,4.7699,4.7394,0.0,4.665,4.7361,4.8815,5.0135,5.098,5.2469,5.3145,5.2334,5.1623,5.0913,5.0101,4.939,4.8714,4.797,4.7158,4.6413,4.5669,4.4113,4.2219,4.002,3.7009,0.0,0.0,0.0,0.0,0.0,0.0,0.0,0.0,0.0,0.0,0.0,0.0,0.0,0.0,0.0,0.0,0.0,0.0,0.0,0.0,0.0,0.0,0.0,0.0,0.0,0.0,0.0,0.0,5.119,5.394,0.0,5.1173,5.2573,5.3722,5.3655,5.5148,5.6808,5.8437,5.9495,6.0762,6.238,6.3377,6.4133,6.4683,6.4202,6.4036,6.4036,6.352,6.3314,6.3314,6.3314,6.3176,6.2867,6.2419,6.1903,6.1318,5.9906,5.8789,5.7765,5.7023,5.6505,5.6294,5.6576,5.635,5.5924,5.5924,5.4972,5.3676,5.2959,5.2017,5.1048,5.0574,5.0202,5.0067,5.0574,5.1285,5.2097,5.2875,5.3078,5.3145,5.345,5.3518,5.3518,5.3518,5.3518,5.3281,5.2435,5.1454,5.0304,4.8849,4.8781,4.8849,4.8646,4.9864,5.1082,5.1826,5.2841,5.3179,5.2401,5.2063,5.142,5.0202,4.9864,4.9187,4.8003,4.7225,4.6481,4.5737,4.4248,4.2828,4.1542,3.9039,3.596,0.0,0.0,0.0,0.0,0.0,0.0,0.0,0.0,0.0,0.0,0.0,0.0,0.0,0.0,0.0,0.0,0.0,0.0,0.0,0.0,0.0,0.0,0.0,0.0,0.0,5.0786,5.3652,5.2799,5.575,5.678,5.4022,5.5977,5.7485,5.7717,5.9013,6.0175,6.1277,6.1979,6.2753,6.3463,6.4444,6.4952,6.4952,6.4478,6.4005,6.3497,6.299,6.2618,6.2381,6.2381,6.2381,6.2347,6.1873,6.1535,6.1264,6.0723,6.0138,5.9474,5.8642,5.8189,5.798,5.798,5.7482,5.6778,5.6537,5.5621,5.4431,5.3416,5.2909,5.2604,5.2131,5.2334,5.2706,5.2706,5.3078,5.3518,5.3518,5.3518,5.3518,5.3518,5.3518,5.3518,5.3518,5.3518,5.3518,5.3518,5.3078,5.2232,5.0777,5.0913,5.1082,5.0608,5.1352,5.2164,5.2638,5.3179,5.3315,5.2773,5.2469,5.1792,5.0574,4.9796,4.8951,4.797,4.6515,4.5568,4.5331,4.3842,4.2692,4.1948,3.9512,3.6907,3.4134,0.0,0.0,0.0,0.0,0.0,0.0,0.0,0.0,0.0,0.0,0.0,0.0,0.0,0.0,0.0,0.0,0.0,0.0,0.0,0.0,0.0,0.0,0.0,4.9744,5.3095,5.5348,5.4464,5.7902,5.9067,5.5947,5.915,6.1036,6.0325,6.2313,6.3531,6.3531,6.4241,6.4952,6.5662,6.5696,6.573,6.573,6.5696,6.4986,6.3599,6.3565,6.3159,6.2448,6.2415,6.2415,6.2415,6.2415,6.1975,6.1332,6.1332,6.0858,6.0047,5.9302,5.8558,5.7915,5.7915,5.7442,5.6731,5.6021,5.5277,5.4668,5.46,5.4126,5.3551,5.3518,5.3518,5.3518,5.3518,5.3518,5.3518,5.3518,5.3518,5.3518,5.3518,5.3518,5.3518,5.3518,5.3518,5.3518,5.3518,5.3518,5.3518,5.3518,5.3518,5.3518,5.3518,5.3518,0.0,5.3518,5.3518,5.3518,5.3518,5.2807,5.2029,5.1285,4.9221,4.7936,4.7868,4.5094,4.3775,4.4519,4.3098,4.1948,4.1204,3.8362,3.6502,3.569,0.0,0.0,0.0,0.0,0.0,0.0,0.0,0.0,0.0,0.0,0.0,0.0,0.0,0.0,0.0,0.0,0.0,0.0,0.0,0.0,0.0,5.1105,5.3873,5.3114,5.6388,5.88,5.853,6.0945,6.2295,6.1374,6.2727,6.3566,6.3362,6.3937,6.4309,6.4309,6.4986,6.5493,6.5662,6.6203,6.6508,6.6508,6.5967,6.5493,6.5087,6.4546,6.4208,6.3971,6.3429,6.3193,6.3193,6.2618,6.2279,6.211,6.211,6.1637,6.0858,5.9539,5.8896,5.8626,5.8084,5.7746,5.7476,5.6765,5.6359,5.6021,5.4938,5.4465,5.4194,5.3653,5.3518,5.3518,5.3518,5.3518,5.3518,5.3518,5.3518,5.3518,5.3518,5.3518,5.3518,5.3518,5.3518,5.3518,5.3518,5.3518,5.3518,5.3518,5.3518,5.3518,5.3518,5.3518,0.0,5.3518,5.3518,5.3518,5.3518,5.3315,5.2638,5.1319,5.0168,4.8578,4.6447,4.5026,4.4113,4.3741,4.2794,4.1948,4.1204,3.9884,3.8565,0.0,0.0,0.0,0.0,0.0,0.0,0.0,0.0,0.0,0.0,0.0,0.0,0.0,0.0,0.0,0.0,0.0,0.0,0.0,0.0,0.0,0.0,5.4861,5.7821,5.7706,5.9388,6.0739,6.1011,6.2506,6.3683,6.3983,6.4647,6.5053,6.5053,6.5358,6.5527,6.5527,6.5933,6.617,6.617,6.6576,6.6812,6.6812,6.6373,6.6,6.5662,6.5256,6.4884,6.458,6.3835,6.3531,6.3463,6.2719,6.2381,6.2381,6.2381,6.2144,0.0,0.0,0.0,0.0,0.0,5.7881,5.7814,5.7408,5.707,5.6664,5.5784,5.5108,5.4499,5.4093,5.3754,5.3518,5.3518,5.3518,5.3518,5.3518,5.3518,5.3518,5.3518,5.3518,5.3518,5.3518,5.3518,5.3518,5.3518,5.3518,0.0,5.3518,5.3518,5.3518,5.3518,5.3518,5.3518,5.3518,5.3518,5.3518,5.3518,5.3518,5.301,5.1792,5.0405,0.0,0.0,0.0,4.4215,4.3436,4.2692,0.0,0.0,0.0,0.0,0.0,0.0,0.0,0.0,3.8971,3.8734,0.0,0.0,0.0,0.0,0.0,0.0,0.0,0.0,0.0,0.0,0.0,0.0,0.0,0.0,0.0,0.0,5.8593,6.165,6.2493,6.2084,6.1929,6.2527,6.3294,6.4005,6.4647,6.5392,6.5797,6.5797,6.644,6.6812,6.6812,0.0,0.0,0.0,0.0,6.6812,6.6812,6.6812,6.6474,6.5797,6.5797,6.5459,6.4816,6.4005,6.3632,6.3599,6.2753,6.2381,6.2381,6.2381,6.2381,6.2313,6.1603,6.0419,5.9032,5.8287,5.8017,5.8017,5.7915,0.0,0.0,5.6833,5.5919,5.4803,5.4634,5.4126,5.3619,5.3518,5.3518,5.3518,5.3518,5.3518,5.3518,5.3518,5.3518,5.3518,5.3518,5.3518,5.3518,5.3518,5.3518,5.3518,5.3518,5.3518,5.3518,5.3518,5.3518,5.3518,5.3518,5.3518,5.3518,5.3518,0.0,0.0,5.2367,5.0439,4.9187,4.9018,4.6447,4.4654,4.3944,4.3369,4.3335,4.391,4.4012,4.4688,4.5974,4.6684,4.709,4.7056,4.232,4.1847,0.0,0.0,0.0,0.0,0.0,0.0,0.0,0.0,0.0,0.0,0.0,0.0,0.0,0.0,0.0,5.7611,6.0435,6.2605,6.3971,6.4063,6.3962,6.414,6.4816,6.5324,6.5459,6.617,6.6609,6.6609,6.6745,6.6812,6.6812,6.6812,6.6812,6.6812,6.6812,6.6812,6.6812,6.6812,6.6745,6.6609,0.0,0.0,6.6339,6.4986,6.4377,6.4309,6.2956,6.2381,6.2381,6.2381,6.2381,6.2313,6.1603,6.0723,5.981,5.9066,5.8795,5.8693,5.8084,5.7814,5.7577,5.7002,5.6596,5.6156,5.4938,5.4499,0.0,5.3687,5.3518,5.3518,5.3518,5.3518,5.3518,5.3518,5.3518,5.3518,5.3518,5.3518,5.3518,5.3518,5.3518,5.3518,5.3518,5.3518,5.3518,5.3518,5.3518,5.3518,5.3518,5.3518,5.3518,5.3518,5.3518,5.3179,5.2367,5.1386,5.027,4.9086,4.7902,4.7192,4.7056,4.7462,4.7496,4.7056,4.7631,4.7767,4.7496,4.8206,4.8883,4.9424,4.78,4.7158,0.0,0.0,0.0,0.0,0.0,0.0,0.0,0.0,0.0,0.0,0.0,4.9796,5.2435,0.0,5.822,6.0858,6.2821,6.4309,6.5053,6.5459,6.5561,6.5189,6.5459,6.5831,6.6203,6.6576,6.6812,6.6812,6.6812,6.6812,6.6812,6.6812,6.6812,6.6812,6.6812,6.6812,6.6812,6.6812,6.6812,6.6812,6.6812,6.6812,6.6779,6.5662,6.5155,6.5053,6.3599,6.2956,6.2922,6.255,6.2381,6.2347,6.1975,6.1366,6.0622,5.9844,5.9573,5.9471,5.8727,5.8457,5.8321,5.7577,5.7103,5.6664,5.5919,5.5446,5.5074,5.4702,5.46,5.46,5.46,5.46,5.46,5.46,5.4329,5.4059,5.4059,5.3754,5.3518,5.3518,5.3518,5.3518,5.3518,5.3518,5.3518,5.3518,5.3518,5.3518,5.3518,5.3518,5.3518,5.3518,5.3518,5.3348,5.2942,5.2198,5.1285,5.0168,4.9424,4.9018,4.9018,4.9018,4.9018,4.9018,4.9357,4.956,4.956,5.0304,5.0845,5.1183,5.1251,5.0845,0.0,0.0,0.0,0.0,0.0,0.0,0.0,4.5534,4.7361,4.9627,5.2198,5.4837,5.7408,5.9471,6.1467,6.3599,6.4918,6.573,6.5865,6.644,6.6576,6.5967,6.5899,6.6136,6.6745,6.6812,6.6812,6.6812,6.6948,6.7015,6.7015,6.7015,6.7015,6.7015,6.688,6.6812,6.6812,6.6812,6.6812,6.6812,6.6812,6.6812,6.6779,6.6034,6.5696,6.5628,6.4309,6.3632,6.3463,6.2854,6.2516,6.2381,6.2381,6.2042,6.1434,6.0622,6.0317,6.0216,5.9471,5.9133,5.893,5.8321,5.7611,5.7002,5.6833,5.6393,5.5886,5.575,5.5716,5.5716,5.5716,5.5716,5.5716,5.5716,5.5243,5.4769,5.4634,5.4126,5.3687,5.3551,5.3518,5.3518,5.3518,5.3518,5.3518,5.3518,5.3518,5.3518,5.3518,5.3518,5.3518,5.3518,5.3518,5.3518,5.3518,5.2909,5.23,5.1691,5.1082,5.0744,5.0744,5.0202,5.0168,5.0744,5.0744,5.1048,5.1657,5.2232,5.2536,5.257,5.3213,5.3145,4.1238,4.2794,4.4553,4.6549,4.7158,4.8646,0.0,5.4769,5.5108,5.7306,5.9133,6.0588,6.1569,6.2516,6.3632,6.5189,6.5561,6.5933,6.6576,6.6779,6.6779,6.6711,6.6677,6.6711,6.6812,6.6812,6.6812,6.6812,6.7421,6.7793,6.7793,6.7793,6.7793,6.7793,6.7151,6.6812,6.6812,6.6812,6.6812,6.6812,6.6812,6.6812,6.6779,6.6034,6.5696,6.5628,6.4816,6.4106,6.3497,6.3429,6.299,6.2381,6.2381,6.2347,6.2178,6.1434,6.1163,6.1061,6.025,5.9573,5.8998,5.893,5.8389,5.7645,5.7002,5.6731,5.6562,5.5886,5.5716,5.5716,5.5716,5.5716,5.5716,5.5716,5.5649,5.5412,5.4735,5.4532,5.4262,5.3619,5.3518,5.3518,5.3518,5.3518,5.3518,5.3518,5.3518,5.3518,5.3518,5.3518,5.3518,5.3518,5.3518,5.3518,5.3518,5.3416,5.3348,5.3247,5.3179,5.3112,5.3112,5.3044,5.3044,5.3112,5.3112,5.3179,5.3247,5.3348,5.3382,5.3382,5.345,5.345,4.6718,4.7631,4.8342,5.0608,5.2469,5.4262,5.6325,5.7577,5.8795,6.0588,6.1839,6.2956,6.4106,6.458,6.5121,6.617,6.6339,6.644,6.6779,6.644,6.6,6.5561,6.5527,6.5865,6.6745,6.6812,6.6981,6.7421,6.7726,6.8098,6.8571,6.8166,6.8098,6.8571,6.7455,6.7015,6.7455,6.7015,6.6812,6.6812,6.6812,6.6812,6.6812,6.6474,6.6102,6.5662,6.5358,6.4816,6.4106,6.37,6.3328,6.299,6.255,6.2381,6.2347,6.2042,6.1941,6.1839,6.1061,6.0283,5.9573,5.9167,5.849,5.7814,5.7509,5.7442,5.7374,5.707,5.6968,5.6968,5.6968,5.6968,5.6968,5.6968,5.6664,5.6258,5.5953,5.5209,5.4499,5.4194,5.3788,5.3518,5.3518,5.3518,5.3518,5.3518,5.3518,5.3518,5.3518,5.3518,5.3518,5.3518,5.3518,5.3518,5.3518,5.3518,5.3518,5.3518,5.3518,5.3518,5.3518,5.3518,5.3518,5.3518,5.3518,5.3518,5.3518,5.3518,5.3518,5.3518,5.3518,5.3518,4.9627,5.0811,5.186,5.416,5.6934,5.9032,5.8727,6.0216,6.1941,6.3057,6.3734,6.4444,6.5493,6.5527,6.5628,6.6373,6.6508,6.6508,6.6508,6.5865,6.5189,6.4647,6.441,6.4816,6.6068,6.6373,6.6812,6.7557,6.7996,6.8504,6.9079,6.8741,6.8808,6.9383,6.7929,6.7354,6.7895,6.7184,6.6812,6.6812,6.6812,6.6812,6.6812,6.6812,6.6508,6.6,6.6,6.5561,6.485,6.4343,6.4005,6.3734,6.299,6.2685,6.2685,6.2482,6.2381,6.2313,6.1772,6.0926,6.0013,5.9471,5.866,5.7881,5.7881,5.7881,5.7881,5.7881,5.7881,5.7881,5.7881,5.7881,5.7881,5.7881,5.7476,5.7036,5.6833,5.5953,5.5141,5.4938,5.4296,5.3788,5.3788,5.3619,5.3518,5.3518,5.3518,5.3518,5.3518,5.3518,5.3518,5.3518,5.3518,5.3518,5.3518,5.3518,5.3518,5.3518,5.3518,5.3518,5.3518,5.3518,5.3518,5.3518,5.3518,5.3518,5.3518,5.3518,5.3518,5.3518,5.3518,5.3518,4.8173,5.115,5.5006,5.7205,6.0013,6.2448,6.3159,6.4478,6.5527,6.5561,6.5595,6.5628,6.5662,6.5121,6.4884,6.5595,6.573,6.573,6.573,6.5087,6.4613,6.4613,6.3971,6.3835,6.458,6.529,6.6034,6.6779,6.8233,6.9079,6.9113,6.9755,7.0128,7.0161,6.8673,6.7895,6.7895,6.7184,6.6812,6.6812,6.6812,6.6812,6.6812,6.6812,6.6812,6.6779,6.6779,6.6339,6.5662,6.5628,6.5189,6.4478,6.3768,6.3497,6.3396,6.2651,6.2381,6.2381,6.2347,6.1366,6.0114,6.008,5.9066,5.7881,5.7881,5.7881,5.7881,5.7881,5.7881,5.7881,5.7881,5.7881,5.7881,5.7881,5.7881,5.7645,5.6934,5.6765,5.6528,5.5818,5.5074,5.4566,5.4566,5.3957,5.3518,5.3518,5.3518,5.3518,5.3518,5.3518,5.3518,5.3518,5.3518,5.3518,5.3518,5.3518,5.3518,5.3518,5.3518,5.3518,5.3518,5.3518,5.3518,5.3518,5.3518,5.3518,5.3518,5.3518,5.3518,5.3518,5.3518,5.3518,5.2942,5.5277,5.7442,6.0182,6.2381,6.4038,6.4783,6.573,6.617,6.5155,6.458,6.3937,6.2956,6.2584,6.2821,6.4038,6.4647,6.529,6.6305,6.5797,6.4952,6.4005,6.3666,6.3429,6.3159,6.4241,6.5493,6.6711,6.7726,6.8741,6.9755,7.006,7.0398,7.0906,6.9485,6.8944,6.9417,6.8707,6.8335,6.8335,6.7793,6.7286,6.6812,6.6812,6.6812,6.6812,6.6812,6.6677,6.6406,6.5899,6.5527,6.5189,6.4005,6.3531,6.3429,6.2651,6.2381,6.2381,6.2381,6.1738,6.0825,6.0283,5.9438,5.8558,5.8051,5.7881,5.7881,5.7881,5.7372,5.6778,5.6778,5.6778,5.6778,5.6778,5.7372,5.7814,5.7577,5.7137,5.6482,5.5488,5.4675,5.3791,5.2702,5.2811,5.3194,5.3416,5.3518,5.3518,5.3518,5.3518,5.3518,5.3518,5.3518,5.3518,5.3518,5.3518,5.3518,5.3518,5.3518,5.3518,5.3518,5.3518,5.3518,5.3518,5.3518,5.3518,5.3518,5.3518,5.3518,5.3518,5.3518,5.3518,5.6393,5.8321,5.981,6.2821,6.4478,6.5459,6.5628,6.5865,6.5595,6.4106,6.2787,6.1603,6.0655,6.0047,6.0452,6.2719,6.3497,6.441,6.617,6.5764,6.4952,6.4005,6.3903,6.3734,6.3226,6.4275,6.5392,6.6339,6.759,6.8741,6.9755,7.0297,7.0804,7.1312,7.0128,6.9722,7.0195,6.9451,6.8977,6.8673,6.8132,6.7523,6.6812,6.6812,6.6812,6.6812,6.6812,6.6812,6.6779,6.6305,6.6102,6.5933,6.4478,6.3627,6.3131,6.2594,6.211,6.1837,6.2223,6.1907,6.1231,6.0689,5.9844,5.8856,5.7943,5.779,5.7808,5.7372,5.6778,5.6204,5.6204,5.5889,5.5651,5.5651,5.647,5.7222,5.6811,5.6671,5.6263,5.5123,5.43,5.3448,5.2365,5.2437,5.281,5.3231,5.3271,5.3344,5.345,5.3518,5.3518,5.3518,5.3518,5.3518,5.3518,5.3518,5.3518,5.3518,5.3518,5.3518,5.3518,5.3518,5.3518,5.3518,5.3518,5.3518,5.3518,5.3518,5.3518,5.3518,5.3518,5.3518,5.8389,6.0317,6.2212,6.5053,6.6237,6.6542,6.5797,6.5019,6.4038,6.2415,6.0317,5.8727,5.8592,5.7509,5.7848,6.1569,6.2279,6.3193,6.5493,6.5222,6.4783,6.4783,6.4783,6.4749,6.4715,6.5358,6.5797,6.5797,6.7827,6.9079,6.9147,7.0534,7.1312,7.1312,7.0635,7.0263,7.0263,6.9553,6.8808,6.7963,6.7963,6.7557,6.6812,6.6812,6.6812,6.6812,6.6812,6.6812,6.6812,6.6812,6.6812,6.6677,6.5189,6.3852,6.2855,6.2488,6.1595,6.0787,6.1837,6.1863,6.1366,6.1332,6.0241,5.8799,5.7707,5.7597,5.7514,5.647,5.6126,5.6047,5.6047,5.5296,5.4505,5.4505,5.5296,5.5889,5.4838,5.5377,5.581,5.4755,5.3879,5.3318,5.3401,5.2763,5.238,5.2843,5.286,5.2997,5.345,5.3518,5.3518,5.3518,5.3518,5.3518,5.3518,5.3518,5.3518,5.3518,5.3518,5.3518,5.3518,5.3518,5.3518,5.3518,5.3518,5.3518,5.3518,5.3518,5.3518,5.3518,5.3518,5.3518,6.0723,6.3024,6.4884,6.6203,6.6237,6.5797,6.5053,6.3869,6.2042,5.8863,5.69,5.504,5.2773,5.345,5.5378,5.8524,6.0926,6.3565,6.688,6.7184,6.7049,6.7049,6.7049,6.6846,6.6305,6.6914,6.732,6.732,6.7895,6.8707,6.9857,7.0804,7.1312,7.1312,7.1142,7.1041,7.1041,7.0838,7.0094,6.8808,6.8808,6.8098,6.6812,6.6812,6.6812,6.6812,6.6812,6.6812,6.6812,6.6812,6.6812,6.6677,6.5189,6.4416,6.3851,6.185,6.087,6.0501,5.987,6.0738,6.2009,6.1467,6.0415,5.9098,5.7767,5.6792,5.601,5.5213,5.4389,5.3742,5.3742,5.3569,5.3309,5.3309,5.4168,5.492,5.4672,5.4838,5.4672,5.3569,5.2109,5.1325,5.2082,5.1662,5.1517,5.2348,5.2087,5.2225,5.3348,5.3518,5.3518,5.3518,5.3518,5.3518,5.3518,5.3518,5.3518,5.3518,5.3518,5.3518,5.3518,5.3518,5.3518,5.3518,5.3518,5.3518,5.3518,5.3518,5.3518,5.3518,5.3518,5.3518,6.3193,6.4986,6.6203,6.6305,6.5764,6.4681,6.2618,6.0994,5.8795,5.4702,5.2942,5.142,4.9086,5.0777,5.3484,5.6461,5.9742,6.3193,6.6914,6.7692,6.803,6.8368,6.8707,6.8605,6.7895,6.847,6.891,6.891,6.891,6.9282,7.0128,7.0906,7.1312,7.1312,7.1312,7.1312,7.1312,7.1312,7.0567,6.9113,6.9113,6.8301,6.6812,6.6812,6.6812,6.6812,0.0,6.6812,6.6728,6.6235,6.5942,6.5808,6.3756,6.264,6.2003,6.0391,5.9434,5.8959,5.8812,5.9697,6.072,6.0324,5.9512,5.8398,5.6787,5.5986,5.5315,5.4189,5.3396,5.29,5.29,5.2575,5.2154,5.2154,5.2989,5.3742,5.3253,5.3483,5.3483,5.2395,5.1333,5.0846,5.1425,5.118,5.1256,5.1999,5.1789,5.1837,5.2474,5.2686,5.28,5.28,5.3179,5.3518,5.3518,5.3518,5.3518,5.3518,5.3518,5.3518,5.3518,5.3518,5.3518,5.3518,5.3518,5.3518,5.3518,5.3518,5.3518,5.3518,5.3518,5.3518,6.5324,6.6237,6.6643,6.5865,6.4986,6.3362,5.9708,5.7476,5.4972,5.0574,4.8984,4.8003,4.6583,4.8781,5.1826,5.504,5.8626,6.2415,6.6406,6.7489,6.8267,6.9282,6.9958,7.0094,6.9451,6.9958,7.0331,7.0331,7.0331,7.0331,7.0331,7.0973,7.1312,7.1312,7.1312,7.1312,7.1312,7.1312,7.0635,6.9248,6.9248,6.8436,6.6948,6.6948,6.6914,6.6812,6.661,6.6525,6.644,6.5171,6.4688,6.4342,6.1902,6.0234,5.9242,5.8776,5.79,5.7181,5.7993,5.836,5.836,5.8722,5.8217,5.7312,5.5655,5.5207,5.4956,5.3299,5.2726,5.2634,5.2634,5.1972,5.1229,5.1229,5.1972,5.2395,5.1386,5.1972,5.2395,5.1386,5.1229,5.1229,5.1229,5.1229,5.1269,5.1628,5.1652,5.1475,5.1259,5.1729,5.202,5.1921,5.287,5.3551,5.3653,5.3653,5.3653,5.3653,5.3653,5.3619,5.3518,5.3518,5.3518,5.3518,5.3518,5.3518,5.3518,5.3518,5.3518,5.3518,5.3518,5.3518,6.5459,6.6237,6.6643,6.5865,6.4208,6.1941,5.8795,5.548,5.1995,4.8139,4.6278,4.506,4.4181,4.6447,4.9864,5.4093,5.7374,6.1366,6.6948,6.7827,6.8639,7.0703,7.1041,7.1075,7.0939,7.1041,7.1109,7.1109,7.1109,7.1109,7.1109,7.1244,7.1312,7.1312,7.1312,7.1312,7.1312,7.1312,7.0872,6.9992,6.9992,6.918,6.7726,6.7726,6.7387,6.6728,6.5646,0.0,6.5171,6.3858,6.3355,6.3131,6.153,6.0799,6.0327,5.8123,5.715,5.6896,5.6085,5.5819,5.6183,5.8177,5.799,5.6965,5.6093,5.4788,5.3391,5.2567,5.19,5.1449,5.1449,5.1386,5.1229,5.1229,5.1386,5.1479,5.1199,5.1386,5.1479,5.1229,5.1229,5.1229,5.1229,5.1229,5.1263,5.1329,5.0847,5.0487,5.0426,5.1789,5.2507,5.1987,5.287,5.3754,5.4363,5.4397,5.4397,5.4397,5.4397,5.4126,5.3518,5.3518,5.3518,5.3518,5.3518,5.3518,5.3518,5.3518,5.3518,5.3518,5.3518,5.3518,6.6068,6.6542,6.6542,6.5392,6.3463,6.0622,5.6021,5.2706,4.9323,4.4823,4.3606,4.3031,4.188,4.4451,4.7733,5.0642,5.3957,5.822,6.4208,6.5696,6.732,7.0364,7.1075,7.1312,7.1312,7.1312,7.1312,7.1312,7.1312,7.1312,7.1312,7.1312,7.1007,7.0263,7.017,6.9855,6.9154,6.9855,6.949,6.8068,6.8759,6.7995,6.5864,6.5864,6.5469,6.4811,6.4137,6.3952,6.3826,6.2487,6.1995,6.1802,6.0104,5.9433,5.9178,5.7289,5.6602,5.6473,5.5501,5.5179,5.5381,5.6541,5.6541,5.5963,5.5292,5.4413,5.3503,5.2486,5.2217,5.2157,5.1828,5.1977,5.2247,5.2247,5.1977,5.1618,5.1289,5.1229,5.1229,5.1229,5.1229,5.1229,5.1229,5.1229,5.1229,5.1229,5.096,5.0631,5.0272,5.1491,5.2125,5.1685,5.2587,5.3573,5.4566,5.46,5.4769,5.5141,5.4803,5.4431,5.4093,5.3687,5.3518,5.3518,5.3518,5.3518,5.3518,5.3518,5.3518,5.3518,5.3518,5.3518,6.6373,6.6677,6.6474,6.4986,6.2821,5.9505,5.3653,5.0338,4.7124,4.2219,4.1542,4.1508,4.0493,4.2861,4.5669,4.78,5.0879,5.5209,6.1501,6.3666,6.6,6.9722,7.0838,7.1312,7.1312,7.1312,7.1312,7.1312,7.1312,7.1222,7.0882,7.0882,7.017,6.8797,6.8797,6.8306,6.7164,6.8306,6.7914,6.6364,6.7362,6.6712,6.4508,6.4348,6.39,6.3196,6.2746,6.2585,6.2487,6.1122,6.0609,6.0475,5.8746,5.8112,5.7962,5.6645,5.6166,5.6077,5.5418,5.5179,5.5179,5.5179,5.5179,5.5089,5.4581,5.4311,5.3982,5.2935,5.2905,5.3054,5.2546,5.2785,5.3144,5.2995,5.2576,5.2007,5.1349,5.1229,5.1229,5.1229,5.1229,5.1229,5.1229,5.1229,5.1229,5.1229,5.1229,5.102,5.0511,5.1122,5.1599,5.1277,5.2094,5.3074,5.4317,5.4491,5.4828,5.5497,5.5238,5.4905,5.46,5.4194,5.3822,5.3518,5.3653,5.3653,5.3518,5.3518,5.3518,5.3518,5.3653,5.3754,6.5595,6.6305,6.6474,6.4986,6.2381,5.8829,5.3585,4.9593,4.5906,4.2016,4.0696,4.046,4.1001,4.1914,4.3978,4.8206,5.0304,5.3991,6.1366,6.3666,6.6,6.9722,7.0838,7.1312,7.1312,7.1312,7.1312,7.1312,7.1312,7.0791,6.9409,6.9409,6.8797,6.7368,6.7368,6.7266,6.7164,6.7266,6.7234,6.7068,6.717,6.6786,6.5847,6.5308,6.4636,6.3802,6.1979,6.1193,0.0,5.9758,5.9285,5.9225,5.8381,5.8112,5.7962,5.6645,5.6166,5.6077,5.5418,5.5179,5.5179,5.5179,5.5179,5.5179,5.5119,5.467,5.4192,5.4072,5.3623,5.3174,5.3114,5.3144,5.3025,5.2426,5.2247,5.2007,5.1349,5.1229,5.1229,5.1229,5.1229,5.1229,5.1229,5.1229,5.1229,5.1229,5.1229,5.1199,5.1139,5.1203,5.1122,5.0917,5.1245,5.2256,5.3898,5.4113,5.4444,5.5094,5.6057,5.5987,5.4634,5.5175,5.4871,5.3551,5.416,5.416,5.3518,5.3518,5.3518,5.3518,5.4194,5.4499,6.4444,6.5256,6.5222,6.4208,6.167,5.7949,5.23,4.8815,4.5602,4.1407,4.029,4.0155,4.046,4.0764,4.2151,4.5771,4.6819,4.9526,5.6122,5.8693,6.1637,6.6271,6.8267,6.9789,7.1176,7.1312,7.0916,7.0043,7.0043,6.9121,6.6855,6.8273,6.8206,6.6048,6.5941,6.5544,6.4734,6.5544,6.5544,6.4734,6.5544,6.5201,6.3687,6.3041,6.2333,6.1625,6.035,5.9864,0.0,5.9285,5.9099,5.9069,5.883,5.871,5.859,5.7693,5.7334,5.7184,5.6137,5.5777,5.5718,5.5329,5.5179,5.5179,5.5179,5.4999,5.473,5.4311,5.4311,5.4311,5.3892,5.4102,5.4132,5.3054,5.2785,5.2516,5.1439,5.1229,5.1229,5.1229,5.1229,5.1229,5.1229,5.1229,5.1229,5.1229,5.1229,5.1229,5.1229,5.1229,5.1302,5.1426,5.1194,5.1625,5.2999,5.3727,5.4557,5.571,5.5795,5.581,5.5953,5.4711,5.4037,5.416,5.4431,5.4465,5.416,5.46,5.4837,5.4837,5.5141,5.5277,6.2516,6.3599,6.3734,6.2753,6.0419,5.6867,5.1082,4.8071,4.5263,4.0967,4.0087,4.0087,4.0087,4.0087,4.1001,4.3775,4.4621,4.6989,5.2976,5.5716,5.8896,6.37,6.6034,6.8064,7.0094,7.0512,7.0043,6.8699,6.8601,6.7572,6.5219,6.6958,6.6958,6.4623,6.4512,6.4097,6.3079,6.3984,6.3984,6.3079,6.4097,6.365,6.2061,6.1403,6.0745,6.0057,5.9398,5.9099,0.0,5.9099,5.9099,5.9099,5.9099,5.9099,5.9009,5.8141,5.7962,5.7902,5.6406,5.6017,5.6077,5.5418,5.5179,5.5179,5.5179,5.5179,5.5089,5.464,5.485,5.5089,5.461,5.47,5.461,5.3443,5.3025,5.2576,5.1468,5.1229,5.1229,5.1229,5.1229,5.1229,5.1229,5.1229,5.1229,5.1229,5.1229,5.1229,5.1229,5.1229,5.1208,5.1328,5.0896,5.1079,5.2226,5.3005,5.3952,5.515,5.5082,5.538,5.6224,5.4494,5.4011,5.4938,5.4938,5.4938,5.4938,5.5446,5.5716,5.5716,5.5919,5.6156,5.9539,6.1264,6.2042,6.052,5.8457,5.5446,5.0202,4.7293,4.4654,4.0865,4.0087,4.0087,4.0087,4.0087,4.0832,4.3064,4.4688,4.7767,5.3754,5.6494,5.9268,6.3057,6.4816,6.6305,6.7793,6.8744,6.8699,6.7266,6.7164,6.6574,6.5219,6.5111,6.4512,6.3194,6.3079,6.3079,6.3079,6.3079,6.3079,6.3079,6.3079,6.272,6.2061,6.1403,6.0745,6.0057,5.9398,5.9099,0.0,5.9099,5.9099,5.9099,5.9099,5.9099,5.8949,5.7603,5.7543,5.7842,5.5867,5.5628,5.6077,5.5418,5.5179,5.5179,5.5179,5.5179,5.5179,5.5179,5.5179,5.5179,5.5179,5.47,5.4042,5.3354,5.2665,5.2037,5.1379,5.1229,5.1229,5.1229,5.1229,5.1229,5.1229,5.1229,5.1229,5.1229,5.1229,5.1229,5.1229,5.1229,5.096,5.0301,5.0242,5.0638,5.1734,5.1878,5.2244,5.2869,5.3999,5.4761,5.5106,5.5117,5.5273,5.5646,5.5716,5.5716,5.5716,5.5716,5.5716,5.575,5.6461,5.7171,5.4296,5.5513,5.5953,5.4397,5.3112,5.1116,4.6921,4.5432,4.4012,4.0764,4.0087,4.0087,4.0087,4.0087,4.1474,4.5805,4.6921,4.8951,5.389,5.7374,6.025,6.2482,6.5875,6.8294,6.8726,6.8209,6.7266,6.5835,6.5728,6.5111,6.3789,6.3676,6.3592,6.3079,6.3079,6.3079,6.3079,6.3079,6.3079,6.3079,6.3079,6.272,6.2061,6.1403,6.0745,6.0057,5.9398,5.9099,5.9099,5.9099,5.9099,5.9099,5.9099,5.9099,5.9069,5.862,5.859,5.856,5.7034,5.6615,5.6615,5.5538,5.5179,5.5179,5.5179,5.5179,5.5179,5.5179,5.488,5.4521,5.4521,5.4012,5.3324,5.2665,5.2336,5.2007,5.1349,5.1229,5.1229,5.1229,5.1229,5.1229,5.1229,5.1229,5.1229,5.1229,5.1229,5.1229,5.1229,5.1229,5.1139,5.093,5.09,5.0813,5.0698,5.1041,5.1444,5.2157,5.3302,5.4325,5.5183,5.4656,5.4775,5.5646,5.5716,5.5295,5.4542,5.5539,5.5622,5.4998,5.593,5.6502,4.9999,5.1217,5.1522,5.027,4.939,4.8037,4.4857,4.391,4.3031,4.0595,4.0087,4.0087,4.0087,4.0324,4.1745,4.5602,4.6921,4.9052,5.3551,5.7103,6.0165,6.258,6.5856,6.7716,6.6867,6.6568,6.5835,6.4401,6.429,6.4015,6.3194,6.3079,6.3079,6.3079,6.3079,6.3079,6.3079,6.3079,6.3079,6.3079,6.3079,6.26,6.1702,6.1313,6.0595,5.9697,5.9279,5.9099,0.0,5.9099,5.9099,5.9099,5.9099,5.9099,5.9069,5.883,5.874,5.853,5.7214,5.6735,5.6585,5.5538,5.5179,5.5179,5.5179,5.5179,5.5179,5.5179,5.473,5.4221,5.4221,5.3503,5.2695,5.2306,5.2007,5.1708,5.1319,5.1229,5.1229,5.1229,5.1229,5.1229,5.1229,5.1229,5.1229,5.1229,5.1229,5.1229,5.1229,5.1229,5.1229,5.1229,5.1229,5.105,5.0631,5.0879,5.1233,5.1573,5.2281,5.345,5.4919,5.3628,5.3628,5.5481,5.5286,5.4855,5.4491,5.606,5.647,5.5889,5.6547,5.6624,0.0,4.7936,4.8342,4.7564,4.6887,4.5838,4.3673,4.2692,0.0,4.0358,4.0087,4.0121,4.029,4.0832,4.188,4.3673,4.5771,4.8748,5.3179,5.6423,5.9745,6.3528,6.503,6.5126,6.3295,6.4182,6.4401,6.3164,6.3079,6.3079,6.3079,6.3079,6.3079,6.3079,6.3079,6.3079,6.3079,6.3079,6.3079,6.3079,6.3079,6.2391,6.1104,6.1104,6.0386,0.0,5.9099,5.9099,5.9099,5.9099,5.9099,5.9099,5.9099,5.9099,5.9039,5.8381,5.8112,5.7932,5.6615,5.6166,5.6077,5.5418,5.5179,5.5179,5.5179,5.5179,5.5179,5.5179,5.467,5.4132,5.4132,5.3144,5.2127,5.2127,5.1648,5.1229,5.1229,5.1229,5.1229,5.1229,5.1229,5.1229,5.1229,5.1229,5.1229,5.1229,5.1229,5.1229,5.1229,5.1229,5.1229,5.1229,5.1229,5.1229,5.1229,5.1169,5.1139,5.1139,5.1233,5.2213,5.4262,5.2103,5.2277,5.5094,5.4392,5.4382,5.5249,5.6738,5.7372,5.748,5.748,5.6963,4.1677,0.0,4.3538,4.2252,4.2219,4.2219,0.0,4.117,4.1204,4.0257,4.0087,4.0595,4.232,4.232,4.3639,4.8578,5.0304,5.2367,5.6292,6.0044,6.3341,6.6095,6.5726,6.507,6.4646,6.3914,6.3508,6.3079,6.3079,6.3079,6.3079,6.3079,6.3079,6.3079,6.3079,6.3079,6.3079,6.3079,6.3079,6.3079,6.3079,6.2391,6.1104,6.1104,6.0386,5.9099,5.9099,5.9099,5.9099,5.9099,5.9099,5.9099,5.9099,5.9099,5.9039,5.8381,5.8112,5.7932,5.6615,5.6166,5.6077,5.5418,5.5179,5.5179,5.5179,5.5179,5.5179,5.5179,5.4341,5.3414,5.3414,5.2426,5.1439,5.1439,5.1319,5.1229,5.1229,5.1229,5.1229,5.1229,5.1229,5.1229,5.1229,5.1229,5.1229,5.1229,5.1229,5.1229,5.1229,5.1229,5.1229,5.1229,5.1229,5.1229,5.1229,5.075,5.0481,5.0481,5.1212,5.1734,5.1746,5.1986,5.2523,5.3503,5.2961,5.3407,5.4744,5.342,5.2812,5.2812,5.3656,5.3882,4.0087,4.1407,4.2625,4.1813,4.1914,4.2117,4.1711,4.1136,4.0561,4.0155,4.0087,4.0663,4.2557,4.3132,4.4857,4.9458,5.1691,5.4527,5.9309,6.2723,6.5053,6.6121,6.5544,6.4813,6.4209,6.3478,6.3079,6.3079,6.3079,6.3079,6.3079,6.3079,6.3079,6.3079,6.3079,6.3079,6.3079,6.3079,6.3079,6.3079,6.3079,6.2391,6.1104,6.1104,6.0386,5.9099,5.9099,5.9099,5.9099,5.9099,5.9099,5.9099,5.9099,5.9099,5.9039,5.8381,5.7932,5.7513,5.6526,5.5987,5.5658,5.5299,5.5179,5.5119,5.482,5.473,5.473,5.473,5.3982,5.3114,5.2815,5.1977,5.1229,5.1229,5.1229,5.1229,5.1229,5.1229,5.1229,5.1229,5.1229,5.1229,5.1229,5.1229,5.1229,5.1229,5.1229,5.1229,5.1229,5.1229,5.1109,5.081,5.078,5.0661,5.0331,5.0002,5.0062,5.0661,5.0698,5.0892,5.132,5.09,5.0869,5.1545,5.1611,5.2499,5.4109,5.3184,5.2723,5.2723,5.3396,5.3396,4.046,4.2219,4.3775,4.3064,4.3267,4.3504,4.3166,4.1711,4.0426,4.0426,4.0527,4.1102,4.2828,4.4384,4.6447,4.9526,5.2739,5.666,6.1972,6.4414,6.5546,6.4894,6.4813,6.429,6.3164,6.3079,6.3079,6.3079,6.3079,6.3079,6.3079,6.3079,6.3079,6.3079,6.3079,6.3079,6.3079,6.3079,6.3079,6.3079,6.3079,6.2391,6.1104,6.1104,6.0386,5.9099,0.0,0.0,5.9099,5.9099,5.9099,5.9099,5.9099,5.9039,5.889,5.8201,5.7543,5.6855,5.6226,5.5658,5.5179,5.5179,5.5179,5.5059,5.4401,5.4221,5.4162,5.3952,5.3473,5.2905,5.2336,5.1708,5.1229,5.1229,5.1229,5.1229,5.1229,5.1229,5.1229,5.1229,5.1229,5.1229,5.1229,5.1229,5.1229,5.1229,5.1229,5.1229,5.1229,5.1229,5.096,5.0301,5.0242,4.9972,4.9314,4.9164,4.9643,5.084,4.9883,4.9883,5.1308,4.9422,4.887,4.9885,5.0568,5.1674,5.3369,5.3819,5.4084,5.4084,5.4084,5.3569,4.2219,4.4553,4.5365,4.1542,4.2523,4.391,4.1982,4.1745,4.1948,4.1948,4.2455,4.3741,4.6549,4.824,5.0439,5.4093,5.8254,6.1614,6.3322,6.4382,6.4658,6.3524,6.3394,6.3279,6.3079,6.3079,6.3079,6.3079,6.3079,6.3079,6.3079,6.3079,6.3079,6.3079,6.3079,6.3079,6.3079,6.3079,6.3079,6.3079,6.3079,6.2391,6.1104,6.1104,6.0386,5.9099,0.0,5.9099,5.9099,5.9099,5.9099,5.9099,5.9099,5.877,5.8201,5.7513,5.6855,5.6226,5.5568,5.5269,5.5179,5.5179,5.5179,5.5059,5.4401,5.4221,5.3982,5.2845,5.2426,5.2336,5.2217,5.1708,5.1229,5.1229,5.1229,5.1229,5.1229,5.1229,5.1229,5.1229,5.1229,5.1229,5.1229,5.1229,5.1229,5.1229,5.1229,5.1229,5.1229,5.1229,5.096,5.0301,5.0242,4.9972,4.9314,4.8745,4.8745,4.9523,4.9374,4.9134,4.8832,4.8791,4.9078,4.9885,5.0483,5.1282,5.2137,5.1909,5.1727,5.1727,5.1727,5.1635,4.1136,4.3572,4.4993,4.2523,4.4756,4.7293,4.6244,4.5331,4.4722,4.4722,4.4993,4.6041,4.8612,5.0304,5.3044,5.8457,6.2042,6.4252,6.4351,6.508,6.4915,6.3273,6.3079,6.3079,6.3079,6.3079,6.3079,6.3079,6.3079,6.3079,6.3079,6.3079,6.3079,6.3079,6.3079,6.3079,6.3079,6.3079,6.3079,6.3079,6.272,6.2061,6.1104,6.0715,6.0027,5.9099,0.0,5.9099,5.9099,5.9099,5.9099,5.9069,5.871,5.8381,5.7992,5.6974,5.6196,5.5598,5.5299,5.5179,5.5119,5.479,5.467,5.4461,5.3443,5.3114,5.2935,5.1947,5.1917,5.2127,5.1768,5.1439,5.1229,5.1229,5.1229,5.1229,5.1229,5.1229,5.1229,5.1229,5.1229,5.1229,5.1229,5.1229,5.1229,5.1229,5.1229,5.1229,5.1229,5.09,5.0451,4.9793,4.9404,4.8925,4.8267,4.7938,4.7878,4.8177,4.8536,4.8446,4.7788,4.7915,4.814,4.8499,4.9083,4.9782,5.054,5.0637,5.087,5.1229,5.1229,5.1229,4.0527,4.2692,4.4553,4.4485,4.6921,4.9458,4.9965,4.8781,4.7699,4.824,4.8646,4.9357,5.0845,5.2942,5.6325,6.2212,6.4739,6.5836,6.5443,6.574,6.5164,6.3334,6.3079,6.3079,6.3079,6.3079,6.3079,6.3079,6.3079,6.3079,6.3079,6.3079,6.3079,6.3079,6.2929,6.2839,6.2839,6.269,6.269,6.2839,6.2331,6.1672,6.0864,6.0326,5.9727,5.9099,5.9099,5.9099,5.9099,5.8949,5.889,5.88,5.8141,5.7782,5.7513,5.6376,5.5628,5.5179,5.5179,5.5179,5.5089,5.4431,5.4221,5.3952,5.2606,5.2187,5.2067,5.1409,5.1588,5.1858,5.1349,5.1229,5.1229,5.1229,5.1229,5.1229,5.1229,5.1229,5.1229,5.1229,5.1229,5.1229,5.1229,5.1229,5.1229,5.1229,5.1229,5.1229,5.1229,5.0631,5.0002,4.9344,4.8686,4.8027,4.7369,4.7309,4.7309,4.7309,4.7788,4.7848,4.7339,4.7309,4.7309,4.7309,4.7967,4.8596,4.9254,4.9912,5.0571,5.1229,5.1229,5.1229,4.2422,4.3876,4.506,4.709,4.7293,4.7564,4.9627,4.9965,5.0439,5.257,5.4126,5.4905,5.4363,5.778,6.1704,6.4918,6.6268,6.6962,6.7015,6.5953,6.4672,6.3279,6.3079,6.3079,6.3079,6.3079,6.3079,6.3079,6.3079,6.3079,6.3079,6.3079,6.3079,6.3079,6.248,6.2181,6.2181,6.1553,6.1553,6.2181,6.2121,6.1403,6.0146,6.0116,5.9727,5.9099,5.9099,5.9099,5.9069,5.8441,5.8201,5.8141,5.7423,5.6825,5.6226,5.5538,5.5239,5.5179,5.5179,5.5179,5.5089,5.4431,5.4221,5.3952,5.2606,5.2187,5.2067,5.1409,5.1259,5.1289,5.1229,5.1229,5.1229,5.1229,5.1229,5.1229,5.1229,5.1229,5.1229,5.1229,5.1229,5.1229,5.1229,5.1229,5.1229,5.1229,5.1229,5.1229,5.1229,5.0631,5.0002,4.9344,4.8686,4.8027,4.7369,4.7309,4.7309,4.7309,4.7369,4.7369,4.7309,4.7309,4.7309,4.7309,4.7967,4.8596,4.9254,4.9912,5.0571,5.1229,5.1229,5.1229,4.0257,4.2929,4.5602,4.6887,4.8037,4.9424,5.1691,5.3281,5.4769,5.6562,5.7746,5.8355,5.8051,6.0588,6.3328,6.5358,6.6413,6.7064,6.7176,6.5941,6.4623,6.3279,6.3079,6.3079,6.3079,6.3079,6.3079,6.3079,6.3079,6.2899,6.248,6.248,6.2271,6.1882,6.1613,6.1493,6.1493,6.1253,6.1014,6.0835,6.0835,6.0565,6.0086,5.9668,5.9338,5.9069,5.868,5.8501,5.8441,5.7752,5.7483,5.7423,5.6765,5.6137,5.5538,5.5269,5.5179,5.5179,5.5179,5.5179,5.4999,5.3922,5.3563,5.3324,5.1977,5.1588,5.1528,5.1289,5.1229,5.1229,5.1229,5.1229,5.1229,5.1229,5.1229,5.1229,5.1229,5.1229,5.1229,5.1229,5.1229,5.1229,5.1229,5.1229,5.1229,5.1229,5.1229,5.1079,5.0661,5.0032,4.9374,4.8716,4.8057,4.7578,4.7339,4.7309,4.7309,4.7309,4.7309,4.7309,4.7309,4.7309,4.7309,4.7309,4.7549,4.7997,4.8656,4.9314,4.9972,5.0631,5.102,5.1229,3.9546,4.2625,4.594,4.6887,4.8984,5.1522,5.4262,5.6055,5.778,5.9979,6.0452,6.0622,6.1095,6.2279,6.362,6.4858,6.5808,6.6258,6.6242,6.5173,6.4097,6.3164,6.3079,6.2989,6.278,6.278,6.269,6.248,6.245,6.2271,6.1822,6.1792,6.1583,6.1134,6.0894,6.0775,6.0775,6.0595,6.0236,5.9787,5.9578,5.9578,5.9757,5.9099,5.88,5.877,5.8082,5.7812,5.7752,5.7064,5.6675,5.6466,5.6017,5.5598,5.5179,5.5179,5.5179,5.5179,5.5179,5.5179,5.4999,5.3862,5.3354,5.2965,5.1858,5.1379,5.1229,5.1229,5.1229,5.1229,5.1229,5.1229,5.1229,5.1229,5.1229,5.1229,5.1229,5.1229,5.1229,5.1229,5.1229,5.1229,5.1229,5.105,5.09,5.09,5.072,5.0451,4.9972,4.9374,4.8716,4.8057,4.7578,4.7309,4.7309,4.7309,4.7309,4.7309,4.7309,4.7309,4.7309,4.7309,4.7309,4.7309,4.7309,4.7638,4.8297,4.8745,4.9284,4.9942,5.0391,5.0601,4.1204,4.3403,4.6075,4.7564,5.0168,5.3315,5.707,5.7915,5.8998,6.2787,6.2381,6.1806,6.326,6.2922,6.269,6.3661,6.4445,6.4672,6.4146,6.3558,6.3049,6.3049,6.3049,6.281,6.2151,6.2091,6.1822,6.1164,6.1104,6.1104,6.1104,6.1104,6.1104,6.1104,6.0446,6.0086,6.0086,5.9428,5.9099,5.9099,5.8441,5.8471,5.9069,5.8411,5.8112,5.8082,5.7393,5.7094,5.7034,5.6406,5.5777,5.5179,5.5179,5.5179,5.5179,5.5179,5.5179,5.5179,5.5179,5.5179,5.5059,5.4401,5.3713,5.3054,5.2396,5.1738,5.1229,5.1229,5.1229,5.1229,5.1229,5.1229,5.1229,5.1229,5.1229,5.1229,5.1229,5.1229,5.1229,5.1229,5.1229,5.1229,5.1199,5.0661,5.0242,5.0242,4.9673,4.9254,4.9254,4.8686,4.8027,4.7369,4.7309,4.7309,4.7309,4.7309,4.7309,4.7309,4.7309,4.7309,4.7309,4.7309,4.7309,4.7309,4.7309,4.7638,4.8267,4.8297,4.8626,4.9254,4.9254,4.9254,4.0561,4.3775,4.7597,4.9086,5.2875,5.6934,5.9674,6.0689,6.1975,6.5189,6.5053,6.4377,6.4309,6.3785,6.3438,6.3715,6.326,6.2986,6.3357,6.2464,6.1702,6.1702,6.1702,6.1613,6.1433,6.1403,6.1313,6.1134,6.1104,6.0894,6.0416,6.0386,6.0176,5.9727,5.9488,5.9398,5.9398,5.874,5.8411,5.8411,5.7723,5.7752,5.8381,5.7693,5.7393,5.7363,5.6735,5.6436,5.6406,5.5748,5.5359,5.5179,5.5179,5.5179,5.5179,5.5179,5.5179,5.5119,5.467,5.4491,5.4311,5.3174,5.2665,5.2366,5.1708,5.1379,5.1229,5.1229,5.1229,5.1229,5.1229,5.1229,5.1229,5.1229,5.1229,5.1229,5.1229,5.1229,5.1229,5.1229,5.1229,5.1079,5.0601,5.0361,5.0092,4.9613,4.9374,4.9105,4.8626,4.7997,4.7519,4.7339,4.7309,4.7309,4.7309,4.7309,4.7309,4.7309,4.7309,4.7309,4.7309,4.7309,4.7309,4.7309,4.7309,4.7399,4.7608,4.8057,4.8386,4.8596,4.9045,4.9254,4.2557,4.5906,4.9729,5.1792,5.5344,5.9167,6.2313,6.3396,6.4309,6.6373,6.5967,6.5125,6.4807,6.3955,6.3195,6.2801,6.231,6.1989,6.189,6.1418,6.1104,6.1104,6.1104,6.1014,6.0745,6.0715,6.0595,6.0326,6.0326,6.0146,5.9727,5.9697,5.9518,5.9129,5.886,5.871,5.871,5.8052,5.7723,5.7693,5.7034,5.6944,5.7334,5.6915,5.6735,5.6705,5.6077,5.5777,5.5748,5.5359,5.5179,5.5179,5.5179,5.5179,5.5149,5.491,5.479,5.47,5.4042,5.3803,5.3653,5.2845,5.2426,5.2127,5.1738,5.1439,5.1229,5.1229,5.1229,5.1229,5.1229,5.1229,5.1229,5.1229,5.1229,5.1229,5.1229,5.1229,5.1229,5.1229,5.102,5.069,5.0301,4.9793,4.9314,4.8925,4.8656,4.8356,4.7938,4.7549,4.7309,4.7309,4.7309,4.7309,4.7309,4.7309,4.7309,4.7309,4.7309,4.7309,4.7309,4.7309,4.7309,4.7309,4.7309,4.7309,4.7309,4.7698,4.7908,4.7908,4.8297,4.8476,4.5805,4.8849,5.1928,5.4972,5.7645,6.0622,6.4749,6.573,6.5967,6.6677,6.5647,6.4657,6.485,6.3636,6.2242,6.1177,6.1444,6.1383,6.0186,6.0535,6.0924,6.0924,6.0924,6.0685,6.0057,5.9997,5.9757,5.9159,5.9039,5.9009,5.9009,5.9009,5.8979,5.8919,5.8411,5.8082,5.8022,5.7363,5.7004,5.7004,5.6376,5.6077,5.6077,5.6077,5.6077,5.6047,5.5448,5.5179,5.5179,5.5179,5.5149,5.5089,5.5089,5.5059,5.494,5.4341,5.4132,5.4012,5.3324,5.3084,5.3084,5.3025,5.2606,5.2127,5.2127,5.1678,5.1229,5.1229,5.1229,5.1229,5.1229,5.1229,5.1199,5.1139,5.1169,5.1199,5.1139,5.1139,5.1109,5.105,5.0541,5.0122,5.0062,4.9075,4.8267,4.8207,4.7698,4.7309,4.7309,4.7309,4.7309,4.7309,4.7309,4.7309,4.7309,4.7309,4.7309,4.7309,4.7309,4.7309,4.7309,4.7309,4.7309,4.7309,4.7309,4.7309,4.7309,4.7309,4.7309,4.7309,4.7309,4.7396,4.4722,4.8071,5.1928,5.4972,5.9573,6.3802,6.5324,6.6136,6.6609,6.6779,6.5794,6.4895,6.4926,6.297,6.1252,6.106,6.0272,5.9603,5.9308,5.9428,5.9548,5.9548,5.9548,5.9488,5.9338,5.9308,5.9249,5.9129,5.862,5.8351,5.8351,5.8351,5.8082,5.7543,5.7902,5.7872,5.7334,5.6675,5.6376,5.6376,5.5718,5.5418,5.5418,5.5418,5.5418,5.5388,5.5239,5.5179,5.5179,5.5179,5.488,5.4431,5.4431,5.4072,5.3593,5.3443,5.3414,5.3294,5.2636,5.2426,5.2336,5.1798,5.1558,5.1439,5.1439,5.1319,5.1229,5.1229,5.1229,5.1229,5.1229,5.1229,5.1079,5.0571,5.084,5.1079,5.0571,5.0451,5.0301,4.9793,4.9583,4.9314,4.8805,4.8476,4.8117,4.7608,4.7399,4.7309,4.7309,4.7309,4.7309,4.7309,4.7309,4.7309,4.7309,4.7309,4.7309,4.7309,4.7309,4.7309,4.7309,4.7309,4.7309,4.7309,4.7309,4.7309,4.7309,4.7309,4.7309,4.7309,4.7309,4.7679,4.5399,4.8646,5.2367,5.7205,6.1264,6.4275,6.5019,6.5459,6.5764,6.5764,6.5267,6.4505,6.3227,6.1964,6.0815,6.015,5.9576,5.9099,5.9099,5.9099,5.8979,5.868,5.865,5.8501,5.8171,5.8141,5.8141,5.8141,5.7812,5.7633,5.7633,5.7633,5.7453,5.7094,5.7154,5.7004,5.6645,5.6017,5.5718,5.5688,5.5359,5.5029,5.473,5.5029,5.5029,5.473,5.473,5.4521,5.4221,5.4221,5.4042,5.3713,5.3713,5.3503,5.3144,5.2815,5.2725,5.2606,5.1947,5.1738,5.1678,5.1319,5.1229,5.1229,5.1229,5.1229,5.1229,5.1229,5.1229,5.1139,5.084,5.075,5.0571,4.9912,5.0272,5.0571,4.9912,4.9763,4.9673,4.9344,4.9015,4.8686,4.8356,4.8027,4.7698,4.7369,4.7309,4.7309,4.7309,4.7309,4.7309,4.7309,4.7309,4.7309,4.7309,4.7309,4.7309,4.7309,4.7309,4.7309,4.7309,4.7309,4.7309,4.7309,4.7309,4.7309,4.7309,4.7309,4.7309,4.7309,4.7764,4.8072,4.5534,4.9052,5.2976,5.9471,6.2212,6.3497,6.4241,6.4512,6.4498,6.4334,6.4341,6.3692,6.1451,6.0741,6.0114,5.8954,5.877,5.877,5.877,5.877,5.856,5.8022,5.7932,5.7723,5.7154,5.7094,5.7094,5.7094,5.7004,5.6944,5.6944,5.6944,5.6885,5.6765,5.6376,5.6107,5.6017,5.5478,5.5119,5.5029,5.491,5.4551,5.4042,5.4581,5.4551,5.4042,5.4042,5.3713,5.3174,5.3174,5.3114,5.3025,5.3025,5.2935,5.2785,5.2247,5.2037,5.1947,5.1409,5.1229,5.1229,5.1229,5.1229,5.1229,5.1229,5.1229,5.1229,5.1229,5.1139,5.093,5.0391,5.0152,4.9912,4.9254,4.9494,4.9763,4.9224,4.9105,4.9075,4.8955,4.8506,4.8117,4.8117,4.7668,4.7309,4.7309,4.7309,4.7309,4.7309,4.7309,4.7309,4.7309,4.7309,4.7309,4.7309,4.7309,4.7309,4.7309,4.7309,4.7309,4.7309,4.7309,4.7309,4.7309,4.7309,4.7309,4.7309,4.7309,4.7366,4.7624,4.821,4.8377,4.1745,4.7022,5.345,5.8896,6.14,6.2719,6.3497,6.414,6.4334,6.314,6.2581,6.2011,6.1088,5.958,5.8234,5.7453,5.7363,5.7363,5.7363,5.7363,5.7334,5.7244,5.7244,5.7184,5.7094,5.7094,5.7094,5.7094,5.6585,5.6286,5.6286,5.6286,5.6017,5.5448,5.5927,5.5897,5.5329,5.5239,5.491,5.4341,5.3743,5.3414,5.3324,5.3414,5.3414,5.3324,5.3324,5.3264,5.3174,5.3174,5.2845,5.2336,5.2336,5.1977,5.1468,5.1379,5.1349,5.1349,5.1259,5.1229,5.1229,5.1229,5.1229,5.1229,5.1229,5.1229,5.1229,5.1229,5.081,5.0361,5.0272,4.9823,4.9224,4.8566,4.8476,4.8506,4.8446,4.8416,4.8237,4.7668,4.7489,4.7429,4.7429,4.7369,4.7309,4.7309,4.7309,4.7309,4.7309,4.7309,4.7309,4.7309,4.7309,4.7309,4.7309,4.7309,4.7309,4.7309,4.7309,4.7309,4.7309,4.7309,4.7309,4.7309,4.7309,4.7309,4.7309,4.7309,4.7764,4.8594,4.7819,4.8841,4.3098,4.824,5.3348,5.778,5.9674,6.0825,6.2009,6.2516,6.2502,6.1645,6.1134,6.0516,5.9916,5.8583,5.7453,5.7154,5.7094,5.7094,5.7094,5.7094,5.6974,5.6615,5.6585,5.6436,5.6047,5.6017,5.6017,5.6017,5.5777,5.5478,5.5089,5.5059,5.476,5.4102,5.4341,5.4371,5.4072,5.4072,5.3922,5.3623,5.3324,5.2995,5.2636,5.2636,5.2636,5.2636,5.2636,5.2426,5.2067,5.2067,5.1917,5.1648,5.1648,5.1468,5.1229,5.1229,5.1229,5.1229,5.1229,5.1229,5.1229,5.1229,5.1229,5.1139,5.078,5.0661,5.0601,5.0212,4.9912,4.9613,4.9254,4.8925,4.8566,4.7908,4.7728,4.7728,4.7728,4.7728,4.7638,4.7369,4.7309,4.7309,4.7309,4.7309,4.7309,4.7309,4.7309,4.7309,4.7309,4.7309,4.7309,4.7309,4.7309,4.7309,4.7309,4.7309,4.7309,4.7309,4.7309,4.7309,4.7309,4.7309,4.7309,4.7309,4.7309,4.7624,4.8157,4.8157,4.8377,4.8841,4.9536,5.0009,4.3775,4.78,5.1082,5.5378,5.7171,5.8389,6.0283,6.0723,6.0661,6.0503,5.9654,5.8832,5.8435,5.7556,5.6795,5.6645,5.6615,5.6615,5.6615,5.6615,5.6436,5.5987,5.5777,5.5538,5.5209,5.5029,5.494,5.494,5.494,5.464,5.3982,5.3952,5.3713,5.3204,5.3174,5.3174,5.3174,5.3025,5.2935,5.2935,5.2755,5.2426,5.1947,5.1947,5.1947,5.1947,5.1947,5.1678,5.1229,5.1229,5.1229,5.1229,5.1229,5.1229,5.1229,5.1229,5.1109,5.096,5.096,5.087,5.072,5.072,5.072,5.0631,5.0122,5.0002,4.9883,4.9404,4.9134,4.8895,4.8416,4.8147,4.7908,4.7429,4.7309,4.7309,4.7309,4.7309,4.7309,4.7309,4.7309,4.7309,4.7309,4.7309,4.7309,4.7309,4.7309,4.7309,4.7309,4.7309,4.7309,4.7309,4.7309,4.7309,4.7309,4.7309,4.7309,4.7309,4.7309,4.7309,4.7309,4.7309,4.7452,4.7679,4.7679,4.8072,4.8841,4.9054,4.9376,4.9615,5.093,5.1005,4.1068,4.32,4.5297,5.115,5.3721,5.5581,5.8457,5.9133,5.9336,5.9971,5.838,5.6861,5.6805,5.6488,5.6017,5.5388,5.5299,5.5299,5.5299,5.5299,5.5269,5.5239,5.47,5.4551,5.5119,5.464,5.4251,5.4251,5.4251,5.3952,5.3264,5.3234,5.3204,5.3174,5.3174,5.3174,5.3174,5.2576,5.2247,5.2247,5.1618,5.1319,5.1259,5.1259,5.1259,5.1259,5.1259,5.1259,5.1229,5.1229,5.1229,5.1229,5.1229,5.1229,5.1229,5.1229,5.084,5.0301,5.0301,4.9883,4.9374,4.9374,4.9374,4.9344,4.9344,4.9314,4.9314,4.9284,4.8805,4.8327,4.8297,4.7818,4.7339,4.7309,4.7309,4.7309,4.7309,4.7309,4.7309,4.7309,4.7309,4.7309,4.7309,4.7309,4.7309,4.7309,4.7309,4.7309,4.7309,4.7309,4.7309,4.7309,4.7309,4.7309,4.7309,4.7309,4.7309,4.7309,4.7309,4.7309,4.7309,4.7309,4.7764,4.8677,4.8759,4.8759,4.8841,4.9852,5.0779,5.1704,5.0855,5.1484,3.9276,4.1407,4.3673,4.7733,5.0608,5.2942,5.5006,5.6934,5.8234,5.8219,5.7968,5.7268,5.5821,5.4844,5.4162,5.3952,5.3892,5.3892,5.3892,5.3892,5.3892,5.3892,5.3683,5.3653,5.3862,5.3683,5.3563,5.3563,5.3563,5.3264,5.2576,5.2546,5.2366,5.1947,5.1917,5.1917,5.1917,5.1678,5.1558,5.1558,5.1319,5.1229,5.1229,5.1229,5.1229,5.1229,5.1229,5.1229,5.1229,5.1229,5.1229,5.1169,5.075,5.0601,5.0541,5.0122,4.9823,4.9613,4.9613,4.9464,4.9254,4.9254,4.9254,4.9194,4.8775,4.8626,4.8536,4.8117,4.7848,4.7668,4.7668,4.7489,4.7309,4.7309,4.7309,4.7309,4.7309,4.7309,4.7309,4.7309,4.7309,4.7309,4.7309,4.7309,4.7309,4.7309,4.7309,4.7309,4.7309,4.7309,4.7309,4.7309,4.7309,4.7309,4.7309,4.7309,4.7309,4.7309,4.7309,4.7309,4.7309,4.7904,4.846,4.881,5.0133,5.0747,5.0747,5.1155,5.1557,5.1921,5.2241,5.2416,3.7313,3.9309,4.1711,4.55,4.753,4.9458,5.2739,5.4634,5.5774,5.6212,5.6356,5.5928,5.4348,5.2918,5.2157,5.3025,5.3174,5.3174,5.3174,5.3174,5.3174,5.3174,5.2995,5.2935,5.3144,5.2995,5.2845,5.2845,5.2845,5.2576,5.1917,5.1858,5.1678,5.1229,5.1229,5.1229,5.1229,5.1229,5.1109,5.09,5.1109,5.099,5.0571,5.078,5.078,5.0571,5.0571,5.081,5.1229,5.1229,5.1079,5.084,5.0421,5.0122,4.9853,4.9434,4.9134,4.8925,4.8925,4.8805,4.8596,4.8596,4.8596,4.8536,4.8087,4.7967,4.7878,4.7429,4.7309,4.7309,4.7309,4.7309,4.7309,4.7309,4.7309,4.7309,4.7309,4.7309,4.7309,4.7309,4.7309,4.7309,4.7309,4.7309,4.7309,4.7309,4.7309,4.7309,4.7309,4.7309,4.7309,4.7309,4.7309,4.7309,4.7309,4.7309,4.7309,4.7309,4.7309,4.7452,4.7764,4.846,4.9135,4.9821,5.1229,5.2065,5.2454,5.2454,5.2454,5.2454,5.3179,5.311,0.0,0.0,0.0,4.4215,4.4418,4.5094,5.1725,5.2097,5.1725,5.4025,5.3395,5.2493,5.2445,5.0801,5.0184,5.2665,5.3084,5.3084,5.3114,5.3114,5.3084,5.3084,5.2546,5.2396,5.3025,5.2516,5.2127,5.2127,5.2127,5.1828,5.1199,5.1169,5.1169,5.1199,5.1169,5.1169,5.1199,5.1169,5.084,5.0212,5.084,5.0511,4.9284,4.9912,4.9853,4.9254,4.9254,5.0002,5.1169,5.1169,5.078,5.0212,5.0182,4.9793,4.9224,4.9224,4.8805,4.8267,4.8267,4.7848,4.7309,4.7309,4.7309,4.7309,4.7309,4.7309,4.7309,4.7309,4.7309,4.7309,4.7309,4.7309,4.7309,4.7309,4.7309,4.7309,4.7309,4.7309,4.7309,4.7309,4.7309,4.7309,4.7309,4.7309,4.7309,4.7309,4.7309,4.7309,4.7309,4.7309,4.7309,4.7309,4.7309,4.7309,4.7309,4.7309,4.7309,4.7309,4.7309,4.7764,4.8759,4.8841,4.9821,5.1849,5.1921,5.2487,5.3518,5.3518,5.3518,5.3518,5.3518,5.3518,3.4201,0.0,0.0,0.0,0.0,0.0,4.5669,4.7158,4.8815,5.1589,5.1685,5.1489,5.2348,5.1414,5.0441,5.0395,5.075,5.1229,5.1708,5.1349,5.105,5.105,5.09,5.084,5.102,5.09,5.078,0.0,5.0331,5.0002,4.9823,4.9823,5.0032,5.0481,5.0062,5.0032,5.0511,5.0032,4.9703,4.9523,4.9733,4.9613,4.9284,4.9464,4.9434,4.9254,4.9254,4.9464,4.9823,4.9823,4.9703,4.9494,4.9015,4.8716,4.8506,4.8027,4.7728,4.7578,4.7578,4.7459,4.7309,4.7309,4.7309,4.7309,4.7309,4.7309,4.7309,4.7309,4.7309,4.7309,4.7309,4.7309,4.7309,4.7309,4.7309,4.7309,4.7309,4.7309,4.7309,4.7309,4.7309,4.7309,4.7309,4.7309,4.7309,4.7309,4.7309,4.7309,4.7309,4.7309,4.7309,4.7309,4.7309,4.7309,4.7309,4.7309,4.7309,4.7309,4.7988,4.8512,4.8841,5.0211,5.1303,5.1921,5.2627,5.3179,5.3518,5.3518,5.3518,5.3518,5.3518,5.3518,3.5216,3.6874,3.9106,3.9614,0.0,0.0,4.4282,4.5365,4.6616,4.9289,4.9525,4.9523,5.0153,4.959,4.8895,4.8563,4.9015,4.9643,5.0301,5.0062,4.9823,4.9823,4.9823,4.9823,4.9823,4.9823,4.9823,4.9823,4.9494,4.9254,4.9254,4.9254,4.9434,4.9823,4.9464,4.9464,4.9823,4.9464,4.9134,4.8865,4.9134,4.8985,4.8446,4.8745,4.8716,4.8446,4.8446,4.8446,4.8446,4.8446,4.8596,4.8805,4.8446,4.8117,4.7848,4.7459,4.7309,4.7309,4.7309,4.7309,4.7309,4.7309,4.7309,4.7309,4.7309,4.7309,4.7309,4.7309,4.7309,4.7309,4.7309,4.7309,4.7309,4.7309,4.7309,4.7309,4.7309,4.7309,4.7309,4.7309,4.7309,4.7309,4.7309,4.7309,4.7309,4.7309,4.7309,4.7309,4.7309,4.7309,4.7309,4.7309,4.7309,4.7309,4.7309,4.7309,4.7452,4.7904,4.846,4.9215,5.0055,5.1229,5.2065,5.2557,5.3179,5.3518,5.3518,5.3518,5.3518,5.3518,5.3518,5.3518,3.7686,3.8464,4.0121,4.1779,4.1441,0.0,4.5229,4.5162,4.4925,4.6989,4.6947,4.6582,4.6805,4.6251,4.5963,4.6561,4.7309,4.8177,4.9134,4.9194,4.9164,4.9164,4.9164,4.9164,4.9164,4.9164,4.9164,4.9164,4.9105,4.9045,4.9045,4.9045,4.9075,4.9164,4.9075,4.9075,4.9164,4.9075,4.8745,4.8177,4.8775,4.8446,4.7339,4.7908,4.7848,4.7309,4.7309,4.7309,4.7309,4.7309,4.7638,4.8177,4.8177,4.7818,4.7309,4.7309,4.7309,4.7309,4.7309,4.7309,4.7309,4.7309,4.7309,4.7309,4.7309,4.7309,4.7309,4.7309,4.7309,4.7309,4.7309,4.7309,4.7309,4.7309,4.7309,4.7309,4.7309,4.7309,4.7309,4.7309,4.7309,4.7309,4.7309,4.7309,4.7309,4.7309,4.7309,4.7309,4.7309,4.7309,4.7309,4.7309,4.7309,4.7396,4.7452,4.7452,4.7934,4.8891,4.9054,4.9977,5.1849,5.1993,5.2557,5.3518,5.3518,5.3518,5.3518,5.3518,5.3518,5.3518,5.3518,5.3518,4.0933,4.232,4.391,4.1914,4.3031,0.0,4.188,4.2083,4.3031,4.4079,4.3043,4.2523,4.4345,4.3426,4.2372,4.2521,4.3958,4.6052,4.8865,4.8805,4.8476,4.8476,4.8476,4.8476,4.8476,4.8476,4.8476,4.8476,4.7997,4.7698,4.7698,4.7698,4.7938,4.8446,4.7967,4.7938,4.8476,4.7967,4.7608,4.7489,4.7638,4.7549,4.7309,4.7429,4.7429,4.7309,4.7309,4.7309,4.7309,4.7309,4.7369,4.7489,4.7489,4.7429,4.7309,4.7309,4.7309,4.7309,4.7309,4.7309,4.7309,4.7309,4.7309,4.7309,4.7309,4.7309,4.7309,4.7309,4.7309,4.7309,4.7309,4.7309,4.7309,4.7309,4.7309,4.7309,4.7309,4.7309,4.7309,4.7309,4.7309,4.7309,4.7309,4.7309,4.7309,4.7309,4.7309,4.7309,4.7309,4.7309,4.7309,4.7309,4.7309,4.7624,4.846,4.8512,4.9004,5.0009,5.0855,5.1451,5.1921,5.2697,5.328,5.3518,5.3518,5.3518,5.3518,5.3518,5.3518,5.3518,5.3518,5.3518,4.2455,4.3132,4.4282,4.3166,0.0,0.0,0.0,4.2016,4.2185,4.3673,4.2019,4.0991,4.3165,4.182,4.0606,4.1265,4.2761,4.4287,4.5633,4.6681,4.7309,4.7309,4.7309,4.7309,4.7309,4.7608,4.7788,4.7788,4.7489,4.7309,4.7309,4.7309,4.7459,4.7788,4.7489,4.7459,4.7788,4.7459,4.7309,4.7309,4.7309,4.7309,4.7309,4.7309,4.7309,4.7309,4.7309,4.7309,4.7309,4.7309,4.7309,4.7309,4.7309,4.7309,4.7309,4.7309,4.7309,4.7309,4.7309,4.7309,4.7309,4.7309,4.7309,4.7309,4.7309,4.7309,4.7309,4.7309,4.7309,4.7309,4.7309,4.7309,4.7309,4.7309,4.7309,4.7309,4.7309,4.7309,4.7309,4.7309,4.7309,4.7309,4.7309,4.7309,4.7309,4.7309,4.7309,4.7309,4.7309,4.7309,4.7309,4.7309,4.7309,4.7538,4.7988,4.8512,4.9215,5.032,5.1303,5.217,5.2697,5.3179,5.3518,5.3518,5.3518,5.3518,5.3518,5.3518,5.3518,5.3518,5.3518,5.3518,4.4688,4.4553,4.5094,0.0,0.0,4.3775,0.0,0.0,0.0,4.3436,4.1568,4.018,4.1757,4.0287,3.9204,4.0141,4.1444,4.2192,4.1683,4.3658,4.5274,4.5544,4.5783,4.5933,4.5933,4.6202,4.6501,4.689,4.6681,4.6711,4.71,4.7249,4.7309,4.7309,4.7309,4.7309,4.7309,4.7309,4.7309,4.7309,4.7309,4.7309,4.7309,4.7309,4.7309,4.7309,4.7309,4.7309,4.7309,4.7309,4.7309,4.7309,4.7309,4.7309,4.7309,4.7309,4.7309,4.7309,4.7309,4.7309,4.7309,4.7309,4.7309,4.7309,4.7309,4.7309,4.7309,4.7309,4.7309,4.7309,4.7309,4.7309,4.7309,4.7309,4.7309,4.7309,4.7309,4.7309,4.7309,4.7309,4.7309,4.7309,4.7309,4.7309,4.7309,4.7309,4.7309,4.7309,4.7309,4.7309,4.7309,4.7309,4.7452,4.7679,4.7849,4.8841,4.9821,5.0962,5.1776,5.2627,5.3416,5.3518,5.3518,5.3518,5.3518,5.3518,5.3518,5.3518,5.3518,5.3518,5.3518,5.3518,0.0,0.0,0.0,0.0,4.7394,0.0,0.0,0.0,4.2692,4.0933,0.0,3.8907,3.8483,0.0,0.0,3.625,3.7734,3.8931,3.8841,4.0127,4.1504,4.2671,4.3838,4.4556,4.4556,4.3569,4.3658,4.5394,4.4466,4.4586,4.6352,4.698,4.7309,4.7309,4.7309,4.7309,4.7309,4.7309,4.7309,4.7309,4.7309,4.7309,4.7309,4.7309,4.7309,4.7309,4.7309,4.7309,4.7309,4.7309,4.7309,4.7309,4.7309,4.7309,4.7309,4.7309,4.7309,4.7309,4.7309,4.7309,4.7309,4.7309,4.7309,4.7309,4.7309,4.7309,4.7309,4.7309,4.7309,4.7309,4.7309,4.7309,4.7309,4.7309,4.7309,4.7309,4.7309,4.7309,4.7309,4.7309,4.7309,4.7309,4.7309,4.7309,4.7309,4.7309,4.7309,4.7309,4.7309,4.7309,4.7309,4.7309,4.8072,4.8973,4.9931,5.1005,5.1993,5.311,5.328,5.3348,5.3518,5.3518,5.3518,5.3518,5.3518,5.3518,5.3518,5.3518,5.3518,5.3518,5.3518,5.3518,0.0,0.0,0.0,0.0,0.0,0.0,4.276,0.0,4.1441,0.0,0.0,0.0,0.0,0.0,0.0,0.0,3.6746,3.7135,3.6776,3.7524,3.8901,4.0965,0.0,0.0,4.309,4.2342,4.2432,4.4047,4.3299,4.3658,4.5633,4.6381,4.692,4.7309,4.7309,4.7309,4.7309,4.7309,4.7309,4.7309,4.7309,4.7309,4.7309,4.7309,4.7309,4.7309,4.7309,4.7309,4.7309,4.7309,4.7309,4.7309,4.7309,4.7309,4.7309,4.7309,4.7309,4.7309,4.7309,4.7309,4.7309,4.7309,4.7309,4.7309,4.7309,4.7309,4.7309,4.7309,4.7309,4.7309,4.7309,4.7309,4.7309,4.7309,4.7309,4.7309,4.7309,4.7309,4.7309,4.7309,4.7309,4.7309,4.7309,4.7309,4.7309,4.7309,4.7309,4.7309,4.7309,4.7309,4.7309,4.7309,4.7679,4.814,4.8812,4.9757,5.0667,5.1256,5.227,5.2807,5.2807,5.3247,5.3518,5.3518,5.3518,5.3518,5.3518,5.3518,5.3518,5.3518,5.3518,5.3518,5.0541,0.0,0.0,0.0,0.0,0.0,0.0,0.0,0.0,0.0,0.0,0.0,0.0,0.0,3.6352,3.625,0.0,3.5998,3.531,3.5489,3.6507,3.8781,0.0,0.0,0.0,4.0487,4.0457,4.2132,4.1324,4.1833,4.4347,4.5125,4.5963,4.701,4.704,4.713,4.7309,4.7309,4.7309,4.7309,4.7309,4.7309,4.7309,4.7309,4.7309,4.7309,4.7309,4.7309,4.7309,4.7309,4.7309,4.7309,4.7309,4.7309,4.7309,4.7309,4.7309,4.7309,4.7309,4.7309,4.7309,4.7309,4.7309,4.7309,4.7309,4.7309,4.7309,4.7309,4.7309,4.7309,4.7309,4.7309,4.7309,4.7309,4.7309,4.7309,4.7309,4.7309,4.7309,4.7309,4.7309,4.7309,4.7309,4.7309,4.7309,4.7309,4.7309,4.7309,4.7309,4.7309,4.7249,4.707,4.7267,4.7441,4.7521,4.8644,4.9635,5.0088,5.1262,5.1995,5.1995,5.257,5.2875,5.2875,5.2875,5.2875,5.2875,5.2875,5.2875,5.2875,5.3315,5.3518,0.0,0.0,0.0,4.7936,0.0,0.0,0.0,0.0,4.2677,0.0,0.0,0.0,0.0,0.0,3.7858,3.5859,3.5549,0.0,0.0,3.3993,3.4113,3.5489,3.7315,3.8751,0.0,3.7195,3.6776,0.0,3.7764,3.8362,4.2252,4.306,4.4317,4.6292,4.6352,4.6651,4.7309,4.7309,4.7309,4.7309,4.7309,4.7309,4.7309,4.7309,4.7309,4.7309,4.7309,4.7309,4.7309,4.7309,4.7309,4.7309,4.7309,4.7309,4.7309,4.7309,4.7309,4.7309,4.7309,4.7309,4.7309,4.7309,4.7309,4.7309,4.7309,4.7309,4.7309,4.7309,4.7309,4.7309,4.7309,4.7309,4.7309,4.7309,4.7309,4.7309,4.7309,4.7309,4.7309,4.7309,4.7309,4.7309,4.7309,4.7309,4.7309,4.7309,4.7309,4.7309,4.7309,4.7309,4.707,4.6411,4.718,4.757,4.6967,4.8683,5.0224,5.1088,5.1186,5.1251,5.1251,5.1285,5.1285,5.1285,5.1285,5.1285,5.1285,5.1285,5.1285,5.1319,5.2807,5.3518,0.0,0.0,5.2672,4.912,0.0,0.0,0.0,0.0,0.0,0.0,0.0,0.0,0.0,0.0,3.7551,3.634,3.504,3.4083,0.0,3.3275,3.3006,3.3484,3.528,3.6387,3.6178,3.5759,3.6058,3.7375,3.7255,0.0,4.0905,4.2521,4.3838,4.4945,4.5873,4.6441,4.6651,4.71,4.7309,4.7309,4.7309,4.7309,4.7309,4.7309,4.7309,4.7309,4.7309,4.7309,4.7309,4.7309,4.7309,4.7309,4.7309,4.7309,4.7309,4.7309,4.7309,4.7309,4.7309,4.7309,4.7309,4.7309,4.7309,4.7309,4.7309,4.7309,4.7309,4.7309,4.7309,4.7309,4.7309,4.7309,4.7309,4.7309,4.7309,4.7309,4.7309,4.7309,4.7189,4.6741,4.6651,4.6501,4.6052,4.5963,4.6142,4.6591,4.6262,4.5963,4.5963,4.5963,4.5903,4.5663,4.6528,4.7092,4.7087,4.8458,4.9413,4.9763,5.0202,5.0473,5.0473,5.0947,5.1217,5.1217,5.1217,5.1217,5.1217,5.1217,5.1217,5.1217,5.1758,5.1995,5.3518,5.3518,0.0,5.0067,4.868,0.0,4.3504,0.0,4.3753,0.0,0.0,0.0,0.0,0.0,3.738,3.6873,3.513,3.3514,0.0,3.2467,3.2347,3.1869,3.3574,3.4711,3.4502,3.4233,3.4651,3.6028,3.5848,3.6836,0.0,4.1115,4.2581,4.3928,4.5035,4.5723,4.5963,4.6381,4.6591,4.6591,4.6591,4.6591,4.6591,4.6591,4.6591,4.6591,4.686,4.695,4.698,4.7219,4.7309,4.7309,4.7309,4.7309,4.7309,4.7309,4.7309,4.7309,4.7309,4.7309,4.7309,4.7309,4.7309,4.7309,4.7309,4.7309,4.7309,4.7309,4.7309,4.7309,4.7309,4.7309,4.7309,4.7309,4.7309,4.7249,4.701,4.695,4.677,4.6082,4.5963,4.5813,4.5364,4.5095,4.5185,4.5843,4.5574,4.5304,4.5304,4.5604,4.5728,4.5486,4.6268,4.6949,4.7297,4.8068,4.8639,4.9018,4.9458,4.9695,4.9695,5.0168,5.0439,5.0439,5.0439,5.0439,5.0439,5.0439,5.0439,5.0439,5.0439,5.0439]},{"header":{"parameterUnit":"m.s-1","parameterCategory":1,"la1":30.6,"la2":29.2853,"lo1":-89.7004,"lo2":-87.6739,"dy":0.0162,"dx":0.0183,"nx":112,"ny":82,"refTime":"2024-09-03T00:00:00:Z","depth":0,"parameterNumber":3,"parameterNumberName":"V-component_of_WINDS"},"data":[0.0,0.0,0.0,0.0,0.0,0.0,0.0,0.0,0.0,0.0,0.0,0.0,0.0,0.0,0.0,0.0,0.0,0.0,0.0,0.0,0.0,0.0,0.0,0.0,0.0,0.0,0.0,0.0,0.0,0.0,0.0,0.0,0.0,0.0,0.0,0.0,0.0,0.0,0.0,0.0,0.0,0.0,0.0,0.0,0.0,0.0,0.0,0.0,0.0,0.0,0.0,0.0,0.0,0.0,0.0,0.0,0.0,0.0,0.0,0.0,0.0,0.0,0.0,0.0,0.0,0.0,0.0,0.0,0.0,0.0,0.0,0.0,0.0,0.0,0.0,0.0,0.0,0.0,0.0,0.0,0.0,0.0,0.0,0.0,0.0,0.0,0.0,0.0,0.0,0.0,1.6046,1.7742,1.9345,2.0281,2.0241,1.9706,1.8504,1.6473,0.0,0.0,0.0,0.0,0.0,0.0,0.0,0.0,0.0,0.0,0.0,0.0,0.0,0.0,0.0,0.0,0.0,0.0,0.0,0.0,0.0,0.0,0.0,0.0,0.0,0.0,0.0,0.0,0.0,0.0,0.0,0.0,0.0,0.0,0.0,0.0,0.0,0.0,0.0,0.0,0.0,0.0,0.0,0.0,0.0,0.0,0.0,0.0,0.0,0.0,0.0,0.0,0.0,0.0,0.0,0.0,0.0,0.0,0.0,0.0,0.0,0.0,0.0,0.0,0.0,0.0,0.0,0.0,0.0,0.0,0.0,0.0,0.0,0.0,0.0,0.0,0.0,0.0,0.0,0.0,0.0,0.0,0.0,0.0,0.0,0.0,0.0,0.0,0.0,0.0,0.0,0.0,0.0,0.0,0.0,0.0,0.0,0.0,0.0,0.0,0.0,0.0,0.0,0.0,1.6446,1.9172,2.0147,2.0508,2.0254,1.9706,1.8584,1.6754,0.0,0.0,0.0,0.0,0.0,0.0,0.0,0.0,0.0,0.0,0.0,0.0,0.0,0.0,0.0,0.0,0.0,0.0,0.0,0.0,0.0,0.0,0.0,0.0,0.0,0.0,0.0,0.0,0.0,0.0,0.0,0.0,0.0,0.0,0.0,0.0,0.0,0.0,0.0,0.0,0.0,0.0,0.0,0.0,0.0,0.0,0.0,0.0,0.0,0.0,0.0,0.0,0.0,0.0,0.0,0.0,0.0,0.0,0.0,0.0,0.0,0.0,0.0,0.0,0.0,0.0,0.0,0.0,0.0,0.0,0.0,0.0,0.0,0.0,0.0,0.0,0.0,0.0,0.0,0.0,0.0,0.0,0.0,0.0,0.0,0.0,0.0,0.0,0.0,0.0,0.0,0.0,0.0,0.0,0.0,0.0,0.0,0.0,0.0,0.0,0.0,0.0,0.0,1.6406,1.7702,2.0027,2.0655,2.0722,2.0267,1.9706,1.8752,1.7372,1.5791,0.0,0.0,0.0,0.0,0.0,0.0,0.0,0.0,0.0,0.0,0.0,0.0,0.0,0.0,0.0,0.0,0.0,0.0,0.0,0.0,0.0,0.0,0.0,0.0,0.0,0.0,0.0,0.0,0.0,0.0,0.0,0.0,0.0,0.0,0.0,0.0,0.0,0.0,0.0,0.0,0.0,0.0,0.0,0.0,0.0,0.0,0.0,0.0,0.0,0.0,0.0,0.0,0.0,0.0,0.0,0.0,0.0,0.0,0.0,0.0,0.0,0.0,0.0,0.0,0.0,0.0,0.0,0.0,0.0,0.0,0.0,0.0,0.0,0.0,0.0,0.0,0.0,0.0,0.0,0.0,0.0,0.0,0.0,0.0,0.0,0.0,0.0,0.0,0.0,0.0,0.0,0.0,0.0,0.0,0.0,0.0,0.0,0.0,0.0,0.0,0.0,0.0,1.809,1.8931,2.0508,2.0869,2.0913,2.0752,1.9904,1.9038,1.8297,1.6496,0.0,0.0,0.0,0.0,0.0,0.0,0.0,0.0,0.0,0.0,0.0,0.0,0.0,0.0,0.0,0.0,0.0,0.0,0.0,0.0,0.0,0.0,0.0,0.0,0.0,0.0,0.0,0.0,0.0,0.0,0.0,0.0,0.0,0.0,0.0,0.0,0.0,0.0,0.0,0.0,0.0,0.0,0.0,0.0,0.0,0.0,0.0,0.0,0.0,0.0,0.0,0.0,0.0,0.0,0.0,0.0,0.0,0.0,0.0,0.0,0.0,0.0,0.0,0.0,0.0,0.0,0.0,0.0,0.0,0.0,0.0,0.0,0.0,0.0,0.0,0.0,0.0,0.0,0.0,0.0,0.0,0.0,0.0,0.0,0.0,0.0,0.0,0.0,0.0,0.0,0.0,0.0,0.0,0.0,0.0,0.0,0.0,0.0,0.0,0.0,0.0,0.0,1.825,1.9626,2.0575,2.0695,2.1176,2.2274,2.0317,1.9212,1.973,1.7372,0.0,0.0,0.0,0.0,0.0,0.0,0.0,0.0,0.0,0.0,0.0,0.0,0.0,0.0,0.0,0.0,0.0,0.0,0.0,0.0,0.0,0.0,0.0,0.0,0.0,0.0,0.0,0.0,0.0,0.0,0.0,0.0,0.0,0.0,0.0,0.0,0.0,0.0,0.0,0.0,0.0,0.0,0.0,0.0,0.0,0.0,0.0,0.0,0.0,0.0,0.0,0.0,0.0,0.0,0.0,0.0,0.0,0.0,0.0,0.0,0.0,0.0,0.0,0.0,0.0,0.0,0.0,0.0,0.0,0.0,0.0,0.0,0.0,0.0,0.0,0.0,0.0,0.0,0.0,0.0,0.0,0.0,0.0,0.0,0.0,0.0,0.0,0.0,0.0,0.0,0.0,0.0,0.0,0.0,0.0,0.0,0.0,0.0,0.0,0.0,0.0,0.0,1.833,2.0027,2.2276,2.2233,2.2583,2.3889,2.2245,2.0969,2.0531,0.0,0.0,0.0,0.0,0.0,0.0,0.0,0.0,0.0,0.0,0.0,0.0,0.0,0.0,0.0,0.0,0.0,0.0,0.0,0.0,0.0,0.0,0.0,0.0,0.0,0.0,0.0,0.0,0.0,0.0,0.0,0.0,0.0,0.0,0.0,0.0,0.0,0.0,0.0,0.0,0.0,0.0,0.0,0.0,0.0,0.0,0.0,0.0,0.0,0.0,0.0,0.0,0.0,0.0,0.0,0.0,0.0,0.0,0.0,0.0,0.0,0.0,0.0,0.0,0.0,0.0,0.0,0.0,0.0,0.0,0.0,0.0,0.0,0.0,0.0,0.0,0.0,0.0,0.0,0.0,0.0,0.0,0.0,0.0,0.0,0.0,0.0,0.0,0.0,0.0,0.0,0.0,0.0,0.0,0.0,0.0,0.0,0.0,0.0,0.0,0.0,0.0,1.797,1.9278,2.1059,2.4009,2.39,2.4126,2.5509,2.3594,2.2073,2.1425,0.0,0.0,0.0,0.0,0.0,0.0,0.0,0.0,0.0,0.0,0.0,0.0,0.0,0.0,0.0,0.0,0.0,0.0,0.0,0.0,0.0,0.0,0.0,0.0,0.0,0.0,0.0,0.0,0.0,0.0,0.0,0.0,0.0,0.0,0.0,0.0,0.0,0.0,0.0,0.0,0.0,0.0,0.0,0.0,0.0,0.0,0.0,0.0,0.0,0.0,0.0,0.0,0.0,0.0,0.0,0.0,0.0,0.0,0.0,0.0,0.0,0.0,0.0,0.0,0.0,0.0,0.0,0.0,0.0,0.0,0.0,0.0,0.0,0.0,0.0,0.0,0.0,0.0,0.0,0.0,0.0,0.0,0.0,0.0,0.0,0.0,0.0,0.0,0.0,0.0,0.0,0.0,0.0,0.0,0.0,0.0,0.0,0.0,0.0,0.0,0.0,0.0,1.9532,2.1269,2.3262,2.5748,2.5341,2.5493,2.7007,2.4128,2.23,0.0,0.0,0.0,0.0,0.0,0.0,0.0,0.0,0.0,0.0,0.0,0.0,0.0,0.0,0.0,0.0,0.0,0.0,0.0,0.0,0.0,0.0,0.0,0.0,0.0,0.0,0.0,0.0,0.0,0.0,0.0,0.0,0.0,0.0,0.0,0.0,0.0,0.0,0.0,0.0,0.0,0.0,0.0,0.0,0.0,0.0,0.0,0.0,0.0,0.0,0.0,0.0,0.0,0.0,0.0,0.0,0.0,0.0,0.0,0.0,0.0,0.0,0.0,0.0,0.0,0.0,0.0,0.0,0.0,0.0,0.0,0.0,0.0,0.0,0.0,0.0,0.0,0.0,0.0,0.0,0.0,0.0,0.0,0.0,0.0,0.0,0.0,0.0,0.0,0.0,0.0,0.0,0.0,0.0,0.0,0.0,0.0,0.0,0.0,0.0,0.0,0.0,0.0,2.0761,2.2908,2.506,2.7467,2.7006,2.7122,2.8747,2.6237,2.4066,2.2637,0.0,0.0,0.0,0.0,0.0,0.0,0.0,0.0,0.0,0.0,0.0,0.0,0.0,0.0,0.0,0.0,0.0,0.0,0.0,0.0,0.0,0.0,0.0,0.0,0.0,0.0,0.0,0.0,0.0,0.0,0.0,0.0,0.0,0.0,0.0,0.0,0.0,0.0,0.0,0.0,0.0,0.0,0.0,0.0,0.0,0.0,0.0,0.0,0.0,0.0,0.0,0.0,0.0,0.0,0.0,0.0,0.0,0.0,0.0,0.0,0.0,0.0,0.0,0.0,0.0,0.0,0.0,0.0,0.0,0.0,0.0,0.0,0.0,0.0,0.0,0.0,0.0,0.0,0.0,0.0,0.0,0.0,0.0,0.0,0.0,0.0,0.0,0.0,0.0,0.0,0.0,0.0,0.0,0.0,0.0,0.0,0.0,0.0,0.0,0.0,0.0,0.0,2.2275,2.4545,2.6714,2.9201,2.8667,2.8521,2.957,2.7363,2.5078,2.291,0.0,0.0,0.0,0.0,0.0,0.0,0.0,0.0,0.0,0.0,0.0,0.0,0.0,0.0,0.0,0.0,0.0,0.0,0.0,0.0,0.0,0.0,0.0,0.0,0.0,0.0,0.0,0.0,0.0,0.0,0.0,0.0,0.0,0.0,0.0,0.0,0.0,0.0,0.0,0.0,0.0,0.0,0.0,0.0,0.0,0.0,0.0,0.0,0.0,0.0,0.0,0.0,0.0,0.0,0.0,0.0,0.0,0.0,0.0,0.0,0.0,0.0,0.0,0.0,0.0,0.0,0.0,0.0,0.0,0.0,0.0,0.0,0.0,0.0,0.0,0.0,0.0,0.0,0.0,0.0,0.0,0.0,0.0,0.0,0.0,0.0,0.0,0.0,0.0,0.0,0.0,0.0,0.0,0.0,0.0,0.0,0.0,0.0,0.0,0.0,0.0,0.0,2.3822,2.6224,2.8366,3.0606,3.0078,2.9551,2.9512,2.7598,2.5469,2.334,0.0,0.0,0.0,0.0,0.0,0.0,0.0,0.0,0.0,0.0,0.0,0.0,0.0,0.0,0.0,0.0,0.0,0.0,0.0,0.0,0.0,0.0,0.0,0.0,0.0,0.0,0.0,0.0,0.0,0.0,0.0,0.0,0.0,0.0,0.0,0.0,0.0,0.0,0.0,0.0,0.0,0.0,0.0,0.0,0.0,0.0,0.0,0.0,0.0,0.0,0.0,0.0,0.0,0.0,0.0,0.0,0.0,0.0,0.0,0.0,1.5257,0.0,0.0,0.0,0.0,0.0,0.0,0.0,0.0,0.0,0.0,0.0,0.0,0.0,0.0,0.0,0.0,0.0,0.0,0.0,0.0,0.0,0.0,0.0,0.0,0.0,0.0,0.0,0.0,0.0,0.0,0.0,0.0,0.0,0.0,0.0,0.0,0.0,0.0,0.0,0.0,0.0,2.5448,2.7737,2.9408,3.0293,2.9883,2.9434,2.9082,2.7422,2.5605,2.3769,2.1543,0.0,0.0,0.0,0.0,0.0,0.0,0.0,0.0,0.0,0.0,0.0,0.0,0.0,0.0,0.0,0.0,0.0,0.0,0.0,0.0,0.0,0.0,0.0,0.0,0.0,0.0,0.0,0.0,0.0,0.0,0.0,0.0,0.0,0.0,0.0,0.0,0.0,0.0,0.0,0.0,0.0,0.0,0.0,0.0,0.0,0.0,0.0,0.0,0.0,0.0,0.0,0.0,0.0,0.0,0.0,0.0,0.0,0.0,0.0,0.0,1.6206,0.0,0.0,0.0,0.0,0.0,0.0,0.0,0.0,0.0,0.0,0.0,0.0,0.0,0.0,0.0,0.0,0.0,0.0,0.0,0.0,0.0,0.0,0.0,0.0,0.0,0.0,0.0,0.0,0.0,0.0,0.0,0.0,0.0,0.0,0.0,0.0,0.0,0.0,0.0,0.0,2.6016,2.8242,2.9726,3.0156,2.9824,2.9394,2.8945,2.7734,2.6348,2.4824,2.2891,0.0,0.0,0.0,0.0,0.0,0.0,0.0,0.0,0.0,0.0,0.0,0.0,0.0,0.0,0.0,0.0,0.0,0.0,0.0,0.0,0.0,0.0,0.0,0.0,0.0,0.0,0.0,0.0,0.0,0.0,0.0,0.0,0.0,0.0,0.0,0.0,0.0,0.0,0.0,0.0,0.0,0.0,0.0,0.0,0.0,0.0,0.0,0.0,0.0,0.0,0.0,0.0,0.0,1.9185,1.9506,1.9973,1.9973,2.008,2.0187,1.8958,1.8357,1.817,1.7154,0.0,0.0,0.0,0.0,0.0,0.0,0.0,0.0,0.0,0.0,0.0,0.0,0.0,0.0,0.0,0.0,0.0,0.0,0.0,0.0,0.0,0.0,0.0,0.0,1.9539,2.0128,0.0,0.0,0.0,0.0,0.0,0.0,0.0,0.0,0.0,0.0,0.0,0.0,2.6289,2.8398,2.9785,3.0059,2.9785,2.9355,2.8848,2.8105,2.7148,2.5918,2.4355,2.2773,0.0,0.0,0.0,0.0,0.0,0.0,0.0,0.0,0.0,0.0,0.0,0.0,0.0,0.0,0.0,0.0,0.0,0.0,0.0,0.0,0.0,0.0,0.0,0.0,0.0,0.0,0.0,0.0,0.0,0.0,0.0,0.0,1.5418,1.5578,0.0,0.0,0.0,0.0,0.0,0.0,0.0,0.0,0.0,0.0,0.0,0.0,0.0,1.8624,1.9492,2.0267,2.0815,2.1162,2.1924,2.2325,2.2405,2.2405,2.2285,2.2058,2.1871,0.0,1.9158,1.8744,0.0,0.0,0.0,0.0,0.0,0.0,0.0,0.0,0.0,0.0,0.0,0.0,0.0,0.0,0.0,0.0,0.0,0.0,0.0,0.0,0.0,0.0,2.2868,2.2872,2.3277,2.3502,0.0,2.0962,1.9533,1.9436,1.8831,0.0,0.0,0.0,0.0,0.0,0.0,0.0,2.7207,2.9023,3.0,2.9687,2.9609,2.9238,2.8437,2.793,2.7285,2.6367,2.5371,2.4375,2.3398,2.1406,0.0,0.0,0.0,0.0,0.0,0.0,0.0,0.0,0.0,0.0,0.0,0.0,0.0,0.0,0.0,0.0,0.0,0.0,0.0,0.0,0.0,0.0,0.0,0.0,0.0,0.0,0.0,0.0,0.0,1.491,1.6072,1.6072,1.6339,1.6166,0.0,0.0,0.0,0.0,0.0,0.0,0.0,0.0,0.0,2.303,2.3278,2.3867,2.4764,2.5083,2.5467,2.5804,2.6115,2.642,2.6603,2.6603,2.6527,2.6374,2.6041,2.5413,2.4207,2.0934,1.9078,1.813,0.0,0.0,0.0,0.0,1.7701,1.8586,1.9377,2.0408,0.0,2.1338,0.0,0.0,0.0,0.0,0.0,0.0,0.0,0.0,0.0,0.0,2.4411,2.4775,2.5703,2.6451,2.6084,2.5774,2.4802,0.0,2.1826,2.1475,2.0738,0.0,0.0,0.0,0.0,2.5859,2.7773,2.9297,3.0039,2.9609,2.957,2.9219,2.8359,2.8125,2.7754,2.7148,2.6289,2.5527,2.4902,2.3047,2.1621,0.0,0.0,0.0,0.0,0.0,0.0,0.0,0.0,0.0,0.0,0.0,0.0,0.0,0.0,0.0,0.0,0.0,0.0,0.0,0.0,0.0,0.0,0.0,0.0,0.0,0.0,0.0,0.0,1.5818,1.6807,1.674,1.7181,1.7292,0.0,0.0,0.0,0.0,0.0,0.0,2.2418,2.4116,2.5744,2.7277,2.7723,2.8219,2.9111,2.9111,2.911,2.9377,2.9377,2.939,2.9639,2.9639,2.9589,2.9489,2.9224,2.8859,2.8163,2.3798,2.164,2.1117,2.0329,1.9924,1.9708,2.0269,2.0981,2.2025,2.3092,2.4169,2.4967,2.4906,2.4401,2.3776,2.3481,0.0,0.0,0.0,0.0,2.4154,2.5198,2.5828,2.6311,2.6859,2.7973,2.8947,2.8652,2.9298,2.892,0.0,2.484,2.4542,2.3124,0.0,0.0,0.0,0.0,2.7051,2.8437,2.9648,3.0215,2.9785,2.9629,2.9277,2.8516,2.8359,2.8125,2.7695,2.6953,2.6348,2.5918,2.4453,2.3203,2.2227,0.0,0.0,0.0,0.0,0.0,0.0,0.0,0.0,0.0,0.0,0.0,0.0,0.0,0.0,0.0,0.0,0.0,0.0,0.0,0.0,0.0,0.0,0.0,0.0,0.0,0.0,0.0,0.0,0.0,1.7996,1.8958,0.0,0.0,0.0,0.0,2.3178,2.459,2.5628,2.6285,2.7131,2.8084,2.9429,2.9496,2.9726,3.0335,3.0335,3.0352,3.0227,3.0227,3.0244,3.026,3.026,3.0062,2.9887,2.9871,2.9456,2.871,2.7454,2.6546,2.6077,2.5677,2.5411,2.5127,2.5512,2.5527,2.5527,2.5627,2.6231,2.7007,2.7597,2.7828,2.8038,2.7941,2.7085,0.0,0.0,2.7688,2.8349,2.9502,2.987,3.0006,3.049,3.0743,3.0762,3.0743,3.084,3.041,0.0,2.7999,2.7539,2.7363,0.0,2.6934,2.7344,2.8184,2.8945,2.9434,3.0293,3.0684,3.0215,2.9805,2.9394,2.8926,2.8516,2.8125,2.7695,2.7226,2.6797,2.6367,2.5469,2.4375,2.3105,2.1367,0.0,0.0,0.0,0.0,0.0,0.0,0.0,0.0,0.0,0.0,0.0,0.0,0.0,0.0,0.0,0.0,0.0,0.0,0.0,0.0,0.0,0.0,0.0,0.0,0.0,0.0,0.0,0.0,2.2258,2.2481,0.0,2.3727,2.4515,2.5194,2.588,2.7797,2.9101,2.9775,3.1634,3.2991,3.3694,3.4232,3.464,3.4938,3.4678,3.4408,3.4408,3.4131,3.402,3.402,3.402,3.3946,3.3779,3.3539,3.3262,3.2947,3.2357,3.0116,2.7244,2.6894,2.68,2.67,2.6834,2.7484,2.8341,2.8341,2.9075,2.9906,2.9507,2.943,2.9473,2.9199,2.8984,2.8906,2.9199,2.9609,3.0078,3.0527,3.0644,3.0684,3.0859,3.0898,3.0898,3.0898,3.0898,3.0762,3.0273,2.9707,2.9043,2.8203,2.8164,2.8203,2.8086,2.8789,2.9492,2.9922,3.0508,3.0703,3.0254,3.0059,2.9687,2.8984,2.8789,2.8398,2.7715,2.7266,2.6836,2.6406,2.5547,2.4727,2.3984,2.2539,2.0762,0.0,0.0,0.0,0.0,0.0,0.0,0.0,0.0,0.0,0.0,0.0,0.0,0.0,0.0,0.0,0.0,0.0,0.0,0.0,0.0,0.0,0.0,0.0,0.0,0.0,2.039,2.195,2.5043,2.5554,2.6026,2.7081,2.8062,2.8975,2.9726,3.1543,3.2843,3.3271,3.5066,3.623,3.6641,3.7207,3.75,3.75,3.7226,3.6953,3.666,3.6367,3.6152,3.6016,3.6016,3.6016,3.5996,3.5723,3.5527,3.5371,3.5059,3.2993,2.9977,2.9718,2.9489,2.9383,2.9383,2.9923,3.0668,3.0538,3.099,3.1426,3.084,3.0547,3.0371,3.0098,3.0215,3.043,3.043,3.0644,3.0898,3.0898,3.0898,3.0898,3.0898,3.0898,3.0898,3.0898,3.0898,3.0898,3.0898,3.0644,3.0156,2.9316,2.9394,2.9492,2.9219,2.9648,3.0117,3.0391,3.0703,3.0781,3.0469,3.0293,2.9902,2.9199,2.875,2.8262,2.7695,2.6855,2.6309,2.6172,2.5312,2.4648,2.4219,2.2812,2.1309,1.9707,0.0,0.0,0.0,0.0,0.0,0.0,0.0,0.0,0.0,0.0,0.0,0.0,0.0,0.0,0.0,0.0,0.0,0.0,0.0,0.0,0.0,0.0,0.0,2.1372,2.2674,2.4354,2.627,2.7773,2.9129,2.9904,3.1451,3.314,3.4654,3.5976,3.668,3.668,3.709,3.75,3.791,3.793,3.7949,3.7949,3.793,3.7519,3.6719,3.6699,3.6465,3.6055,3.6035,3.6035,3.6035,3.6035,3.5781,3.541,3.541,3.5137,3.4668,3.4238,3.3809,3.3437,3.3437,3.3164,3.2754,3.2344,3.1914,3.1562,3.1523,3.125,3.0918,3.0898,3.0898,3.0898,3.0898,3.0898,3.0898,3.0898,3.0898,3.0898,3.0898,3.0898,3.0898,3.0898,3.0898,3.0898,3.0898,3.0898,3.0898,3.0898,3.0898,3.0898,3.0898,3.0898,0.0,3.0898,3.0898,3.0898,3.0898,3.0488,3.0039,2.9609,2.8418,2.7676,2.7637,2.6035,2.5273,2.5703,2.4883,2.4219,2.3789,2.2148,2.1074,2.0605,0.0,0.0,0.0,0.0,0.0,0.0,0.0,0.0,0.0,0.0,0.0,0.0,0.0,0.0,0.0,0.0,0.0,0.0,0.0,0.0,0.0,2.4239,2.5696,2.6626,2.7047,2.852,3.1944,3.2235,3.2775,3.4547,3.5489,3.6147,3.6582,3.6914,3.7129,3.7129,3.7519,3.7812,3.791,3.8223,3.8398,3.8398,3.8086,3.7812,3.7578,3.7266,3.707,3.6934,3.6621,3.6484,3.6484,3.6152,3.5957,3.5859,3.5859,3.5586,3.5137,3.4375,3.4004,3.3848,3.3535,3.334,3.3184,3.2773,3.2539,3.2344,3.1719,3.1445,3.1289,3.0976,3.0898,3.0898,3.0898,3.0898,3.0898,3.0898,3.0898,3.0898,3.0898,3.0898,3.0898,3.0898,3.0898,3.0898,3.0898,3.0898,3.0898,3.0898,3.0898,3.0898,3.0898,3.0898,0.0,3.0898,3.0898,3.0898,3.0898,3.0781,3.0391,2.9629,2.8965,2.8047,2.6816,2.5996,2.5469,2.5254,2.4707,2.4219,2.3789,2.3027,2.2266,0.0,0.0,0.0,0.0,0.0,0.0,0.0,0.0,0.0,0.0,0.0,0.0,0.0,0.0,0.0,0.0,0.0,0.0,0.0,0.0,0.0,0.0,2.8104,2.978,3.1659,3.0915,3.145,3.4871,3.5005,3.53,3.6755,3.7324,3.7559,3.7559,3.7734,3.7832,3.7832,3.8066,3.8203,3.8203,3.8437,3.8574,3.8574,3.832,3.8105,3.791,3.7676,3.7461,3.7285,3.6855,3.668,3.6641,3.6211,3.6016,3.6016,3.6016,3.5879,0.0,0.0,0.0,0.0,0.0,3.3418,3.3379,3.3144,3.2949,3.2715,3.2207,3.1816,3.1465,3.123,3.1035,3.0898,3.0898,3.0898,3.0898,3.0898,3.0898,3.0898,3.0898,3.0898,3.0898,3.0898,3.0898,3.0898,3.0898,3.0898,0.0,3.0898,3.0898,3.0898,3.0898,3.0898,3.0898,3.0898,3.0898,3.0898,3.0898,3.0898,3.0605,2.9902,2.9101,0.0,0.0,0.0,2.5527,2.5078,2.4648,0.0,0.0,0.0,0.0,0.0,0.0,0.0,0.0,2.25,2.2363,0.0,0.0,0.0,0.0,0.0,0.0,0.0,0.0,0.0,0.0,0.0,0.0,0.0,0.0,0.0,0.0,3.2478,3.3647,3.5899,3.4237,3.3625,3.5918,3.6543,3.6953,3.7324,3.7754,3.7988,3.7988,3.8359,3.8574,3.8574,0.0,0.0,0.0,0.0,3.8574,3.8574,3.8574,3.8379,3.7988,3.7988,3.7793,3.7422,3.6953,3.6738,3.6719,3.623,3.6016,3.6016,3.6016,3.6016,3.5976,3.5566,3.4883,3.4082,3.3652,3.3496,3.3496,3.3437,0.0,0.0,3.2812,3.2285,3.1641,3.1543,3.125,3.0957,3.0898,3.0898,3.0898,3.0898,3.0898,3.0898,3.0898,3.0898,3.0898,3.0898,3.0898,3.0898,3.0898,3.0898,3.0898,3.0898,3.0898,3.0898,3.0898,3.0898,3.0898,3.0898,3.0898,3.0898,3.0898,0.0,0.0,3.0234,2.9121,2.8398,2.8301,2.6816,2.5781,2.5371,2.5039,2.5019,2.5352,2.541,2.5801,2.6543,2.6953,2.7187,2.7168,2.4434,2.416,0.0,0.0,0.0,0.0,0.0,0.0,0.0,0.0,0.0,0.0,0.0,0.0,0.0,0.0,0.0,3.3262,3.4541,3.5782,3.6934,3.6615,3.6557,3.7031,3.7422,3.7715,3.7793,3.8203,3.8457,3.8457,3.8535,3.8574,3.8574,3.8574,3.8574,3.8574,3.8574,3.8574,3.8574,3.8574,3.8535,3.8457,0.0,0.0,3.8301,3.7519,3.7168,3.7129,3.6348,3.6016,3.6016,3.6016,3.6016,3.5976,3.5566,3.5059,3.4531,3.4101,3.3945,3.3887,3.3535,3.3379,3.3242,3.291,3.2676,3.2422,3.1719,3.1465,0.0,3.0996,3.0898,3.0898,3.0898,3.0898,3.0898,3.0898,3.0898,3.0898,3.0898,3.0898,3.0898,3.0898,3.0898,3.0898,3.0898,3.0898,3.0898,3.0898,3.0898,3.0898,3.0898,3.0898,3.0898,3.0898,3.0898,3.0703,3.0234,2.9668,2.9023,2.834,2.7656,2.7246,2.7168,2.7402,2.7422,2.7168,2.75,2.7578,2.7422,2.7832,2.8223,2.8535,2.7598,2.7226,0.0,0.0,0.0,0.0,0.0,0.0,0.0,0.0,0.0,0.0,0.0,2.875,3.0273,0.0,3.3613,3.5137,3.6269,3.7129,3.7559,3.7793,3.7851,3.7637,3.7793,3.8008,3.8223,3.8437,3.8574,3.8574,3.8574,3.8574,3.8574,3.8574,3.8574,3.8574,3.8574,3.8574,3.8574,3.8574,3.8574,3.8574,3.8574,3.8574,3.8555,3.791,3.7617,3.7559,3.6719,3.6348,3.6328,3.6113,3.6016,3.5996,3.5781,3.543,3.5,3.4551,3.4394,3.4336,3.3906,3.375,3.3672,3.3242,3.2969,3.2715,3.2285,3.2012,3.1797,3.1582,3.1523,3.1523,3.1523,3.1523,3.1523,3.1523,3.1367,3.1211,3.1211,3.1035,3.0898,3.0898,3.0898,3.0898,3.0898,3.0898,3.0898,3.0898,3.0898,3.0898,3.0898,3.0898,3.0898,3.0898,3.0898,3.0801,3.0566,3.0137,2.9609,2.8965,2.8535,2.8301,2.8301,2.8301,2.8301,2.8301,2.8496,2.8613,2.8613,2.9043,2.9355,2.9551,2.959,2.9355,0.0,0.0,0.0,0.0,0.0,0.0,0.0,2.6289,2.7344,2.8652,3.0137,3.166,3.3144,3.4336,3.5488,3.6719,3.748,3.7949,3.8027,3.8359,3.8437,3.8086,3.8047,3.8184,3.8535,3.8574,3.8574,3.8574,3.8652,3.8691,3.8691,3.8691,3.8691,3.8691,3.8613,3.8574,3.8574,3.8574,3.8574,3.8574,3.8574,3.8574,3.8555,3.8125,3.793,3.7891,3.7129,3.6738,3.6641,3.6289,3.6094,3.6016,3.6016,3.582,3.5469,3.5,3.4824,3.4766,3.4336,3.4141,3.4023,3.3672,3.3262,3.291,3.2812,3.2559,3.2266,3.2187,3.2168,3.2168,3.2168,3.2168,3.2168,3.2168,3.1894,3.1621,3.1543,3.125,3.0996,3.0918,3.0898,3.0898,3.0898,3.0898,3.0898,3.0898,3.0898,3.0898,3.0898,3.0898,3.0898,3.0898,3.0898,3.0898,3.0898,3.0547,3.0195,2.9844,2.9492,2.9297,2.9297,2.8984,2.8965,2.9297,2.9297,2.9473,2.9824,3.0156,3.0332,3.0351,3.0723,3.0684,2.3809,2.4707,2.5723,2.6875,2.7226,2.8086,0.0,3.1621,3.1816,3.3086,3.4141,3.498,3.5547,3.6094,3.6738,3.7637,3.7851,3.8066,3.8437,3.8555,3.8555,3.8516,3.8496,3.8516,3.8574,3.8574,3.8574,3.8574,3.8926,3.9141,3.9141,3.9141,3.9141,3.9141,3.8769,3.8574,3.8574,3.8574,3.8574,3.8574,3.8574,3.8574,3.8555,3.8125,3.793,3.7891,3.7422,3.7012,3.666,3.6621,3.6367,3.6016,3.6016,3.5996,3.5898,3.5469,3.5312,3.5254,3.4785,3.4394,3.4062,3.4023,3.3711,3.3281,3.291,3.2754,3.2656,3.2266,3.2168,3.2168,3.2168,3.2168,3.2168,3.2168,3.2129,3.1992,3.1601,3.1484,3.1328,3.0957,3.0898,3.0898,3.0898,3.0898,3.0898,3.0898,3.0898,3.0898,3.0898,3.0898,3.0898,3.0898,3.0898,3.0898,3.0898,3.084,3.0801,3.0742,3.0703,3.0664,3.0664,3.0625,3.0625,3.0664,3.0664,3.0703,3.0742,3.0801,3.082,3.082,3.0859,3.0859,2.6973,2.75,2.791,2.9219,3.0293,3.1328,3.2519,3.3242,3.3945,3.498,3.5703,3.6348,3.7012,3.7285,3.7598,3.8203,3.8301,3.8359,3.8555,3.8359,3.8105,3.7851,3.7832,3.8027,3.8535,3.8574,3.8672,3.8926,3.9101,3.9316,3.959,3.9355,3.9316,3.959,3.8945,3.8691,3.8945,3.8691,3.8574,3.8574,3.8574,3.8574,3.8574,3.8379,3.8164,3.791,3.7734,3.7422,3.7012,3.6777,3.6562,3.6367,3.6113,3.6016,3.5996,3.582,3.5762,3.5703,3.5254,3.4805,3.4394,3.416,3.3769,3.3379,3.3203,3.3164,3.3125,3.2949,3.2891,3.2891,3.2891,3.2891,3.2891,3.2891,3.2715,3.248,3.2305,3.1875,3.1465,3.1289,3.1055,3.0898,3.0898,3.0898,3.0898,3.0898,3.0898,3.0898,3.0898,3.0898,3.0898,3.0898,3.0898,3.0898,3.0898,3.0898,3.0898,3.0898,3.0898,3.0898,3.0898,3.0898,3.0898,3.0898,3.0898,3.0898,3.0898,3.0898,3.0898,3.0898,3.0898,3.0898,2.8652,2.9336,2.9941,3.1269,3.2871,3.4082,3.3906,3.4766,3.5762,3.6406,3.6797,3.7207,3.7812,3.7832,3.7891,3.832,3.8398,3.8398,3.8398,3.8027,3.7637,3.7324,3.7187,3.7422,3.8144,3.832,3.8574,3.9004,3.9258,3.9551,3.9883,3.9687,3.9726,4.0059,3.9219,3.8887,3.9199,3.8789,3.8574,3.8574,3.8574,3.8574,3.8574,3.8574,3.8398,3.8105,3.8105,3.7851,3.7441,3.7148,3.6953,3.6797,3.6367,3.6191,3.6191,3.6074,3.6016,3.5976,3.5664,3.5176,3.4648,3.4336,3.3867,3.3418,3.3418,3.3418,3.3418,3.3418,3.3418,3.3418,3.3418,3.3418,3.3418,3.3418,3.3184,3.293,3.2812,3.2305,3.1836,3.1719,3.1348,3.1055,3.1055,3.0957,3.0898,3.0898,3.0898,3.0898,3.0898,3.0898,3.0898,3.0898,3.0898,3.0898,3.0898,3.0898,3.0898,3.0898,3.0898,3.0898,3.0898,3.0898,3.0898,3.0898,3.0898,3.0898,3.0898,3.0898,3.0898,3.0898,3.0898,3.0898,2.7812,2.9531,3.1758,3.3027,3.4648,3.6055,3.6465,3.7226,3.7832,3.7851,3.7871,3.7891,3.791,3.7598,3.7461,3.7871,3.7949,3.7949,3.7949,3.7578,3.7305,3.7305,3.6934,3.6855,3.7285,3.7695,3.8125,3.8555,3.9394,3.9883,3.9902,4.0273,4.0488,4.0508,3.9648,3.9199,3.9199,3.8789,3.8574,3.8574,3.8574,3.8574,3.8574,3.8574,3.8574,3.8555,3.8555,3.8301,3.791,3.7891,3.7637,3.7226,3.6816,3.666,3.6601,3.6172,3.6016,3.6016,3.5996,3.543,3.4707,3.4687,3.4101,3.3418,3.3418,3.3418,3.3418,3.3418,3.3418,3.3418,3.3418,3.3418,3.3418,3.3418,3.3418,3.3281,3.2871,3.2773,3.2637,3.2226,3.1797,3.1504,3.1504,3.1152,3.0898,3.0898,3.0898,3.0898,3.0898,3.0898,3.0898,3.0898,3.0898,3.0898,3.0898,3.0898,3.0898,3.0898,3.0898,3.0898,3.0898,3.0898,3.0898,3.0898,3.0898,3.0898,3.0898,3.0898,3.0898,3.0898,3.0898,3.0898,3.0566,3.1914,3.3164,3.4746,3.6016,3.6973,3.7402,3.7949,3.8203,3.7617,3.7285,3.6914,3.6348,3.6133,3.6269,3.6973,3.7324,3.7695,3.8281,3.7988,3.75,3.6953,3.6758,3.6621,3.6465,3.709,3.7812,3.8516,3.9101,3.9687,4.0273,4.0449,4.0644,4.0937,4.0117,3.9805,4.0078,3.9668,3.9453,3.9453,3.9141,3.8848,3.8574,3.8574,3.8574,3.8574,3.8574,3.8496,3.834,3.8047,3.7832,3.7637,3.6953,3.668,3.6621,3.6172,3.6016,3.6016,3.6016,3.5644,3.5117,3.4805,3.4316,3.3809,3.3516,3.3418,3.3418,3.3418,3.4133,3.4964,3.4964,3.4964,3.4964,3.4964,3.4133,3.3379,3.3242,3.2988,3.3105,3.4003,3.3834,3.3776,3.4389,3.3644,3.2438,3.1151,3.0898,3.0898,3.0898,3.0898,3.0898,3.0898,3.0898,3.0898,3.0898,3.0898,3.0898,3.0898,3.0898,3.0898,3.0898,3.0898,3.0898,3.0898,3.0898,3.0898,3.0898,3.0898,3.0898,3.0898,3.0898,3.0898,3.2559,3.3672,3.4531,3.6269,3.7226,3.7793,3.7891,3.8027,3.7871,3.7012,3.625,3.5566,3.5019,3.4668,3.4902,3.6211,3.666,3.7187,3.8203,3.7969,3.75,3.6953,3.6894,3.6797,3.6504,3.7109,3.7754,3.8301,3.9023,3.9687,4.0273,4.0586,4.0879,4.1172,4.0488,4.0254,4.0527,4.0098,3.9824,3.9648,3.9336,3.8984,3.8574,3.8574,3.8574,3.8574,3.8574,3.8574,3.8555,3.8281,3.8164,3.8066,3.7226,3.7292,3.7746,3.6504,3.6403,3.6789,3.6287,3.5742,3.5351,3.5039,3.4551,3.4152,3.4472,3.4041,3.3544,3.4133,3.4964,3.5806,3.5806,3.6295,3.666,3.666,3.5458,3.4383,3.4984,3.4389,3.4309,3.5969,3.5941,3.5881,3.6496,3.5703,3.4295,3.2302,3.2009,3.1736,3.1015,3.0898,3.0898,3.0898,3.0898,3.0898,3.0898,3.0898,3.0898,3.0898,3.0898,3.0898,3.0898,3.0898,3.0898,3.0898,3.0898,3.0898,3.0898,3.0898,3.0898,3.0898,3.0898,3.0898,3.3711,3.4824,3.5918,3.7559,3.8242,3.8418,3.7988,3.7539,3.6973,3.6035,3.4824,3.3906,3.3828,3.3203,3.3398,3.5547,3.5957,3.6484,3.7812,3.7656,3.7402,3.7402,3.7402,3.7383,3.7363,3.7734,3.7988,3.7988,3.916,3.9883,3.9922,4.0723,4.1172,4.1172,4.0781,4.0566,4.0566,4.0156,3.9726,3.9238,3.9238,3.9004,3.8574,3.8574,3.8574,3.8574,3.8574,3.8574,3.8574,3.8574,3.8574,3.8496,3.7637,3.8366,3.9467,3.6992,3.7193,3.8353,3.6789,3.5897,3.543,3.541,3.4956,3.4635,3.6059,3.5123,3.4047,3.5458,3.5928,3.6051,3.6051,3.7122,3.8342,3.8342,3.7122,3.6295,3.7865,3.7002,3.6417,3.7985,3.8078,3.7856,3.774,3.7289,3.6337,3.4316,3.4001,3.3277,3.1171,3.0898,3.0898,3.0898,3.0898,3.0898,3.0898,3.0898,3.0898,3.0898,3.0898,3.0898,3.0898,3.0898,3.0898,3.0898,3.0898,3.0898,3.0898,3.0898,3.0898,3.0898,3.0898,3.0898,3.5059,3.6387,3.7461,3.8223,3.8242,3.7988,3.7559,3.6875,3.582,3.3984,3.2851,3.1777,3.0469,3.0859,3.1973,3.3789,3.5176,3.6699,3.8613,3.8789,3.8711,3.8711,3.8711,3.8594,3.8281,3.8633,3.8867,3.8867,3.9199,3.9668,4.0332,4.0879,4.1172,4.1172,4.1074,4.1016,4.1016,4.0898,4.0469,3.9726,3.9726,3.9316,3.8574,3.8574,3.8574,3.8574,3.8574,3.8574,3.8574,3.8574,3.8574,3.8496,3.7637,3.7566,3.7987,3.7901,3.8221,3.8729,3.9627,3.8138,3.5801,3.5488,3.6122,3.6929,3.6624,3.7057,3.7601,3.7594,3.8439,3.9405,3.9405,3.9639,3.9989,3.9989,3.8817,3.7746,3.8104,3.7865,3.8104,3.9639,4.053,4.0643,3.9604,3.893,3.7947,3.6315,3.5799,3.4404,3.1268,3.0898,3.0898,3.0898,3.0898,3.0898,3.0898,3.0898,3.0898,3.0898,3.0898,3.0898,3.0898,3.0898,3.0898,3.0898,3.0898,3.0898,3.0898,3.0898,3.0898,3.0898,3.0898,3.0898,3.6484,3.7519,3.8223,3.8281,3.7969,3.7344,3.6152,3.5215,3.3945,3.1582,3.0566,2.9687,2.834,2.9316,3.0879,3.2598,3.4492,3.6484,3.8633,3.9082,3.9277,3.9473,3.9668,3.9609,3.9199,3.9531,3.9785,3.9785,3.9785,4.0,4.0488,4.0937,4.1172,4.1172,4.1172,4.1172,4.1172,4.1172,4.0742,3.9902,3.9902,3.9434,3.8574,3.8574,3.8574,3.8574,0.0,3.8574,3.872,3.9405,3.9818,3.9737,3.9646,4.0098,4.0651,3.9972,4.0278,4.0902,4.1181,3.9888,3.8312,3.8062,3.8463,3.902,3.9029,3.902,3.9092,3.919,3.9873,4.0592,4.0592,4.1076,4.1672,4.1672,4.0476,3.9405,4.0129,3.9756,3.9756,4.1305,4.2128,4.2288,4.1457,4.1076,4.0226,3.8478,3.7973,3.6635,3.3591,3.2445,3.1883,3.1883,3.1325,3.0898,3.0898,3.0898,3.0898,3.0898,3.0898,3.0898,3.0898,3.0898,3.0898,3.0898,3.0898,3.0898,3.0898,3.0898,3.0898,3.0898,3.0898,3.0898,3.7715,3.8242,3.8476,3.8027,3.7519,3.6582,3.4473,3.3184,3.1738,2.9199,2.8281,2.7715,2.6894,2.8164,2.9922,3.1777,3.3848,3.6035,3.834,3.8965,3.9414,4.0,4.0391,4.0469,4.0098,4.0391,4.0605,4.0605,4.0605,4.0605,4.0605,4.0976,4.1172,4.1172,4.1172,4.1172,4.1172,4.1172,4.0781,3.998,3.998,3.9512,3.8652,3.8652,3.8633,3.8574,3.8846,3.8991,3.9136,4.0921,4.1608,4.1784,4.2345,4.3562,4.4642,4.2312,4.2454,4.3482,4.2328,4.182,4.182,4.1309,4.1144,4.1069,4.1939,4.1038,3.9928,4.0714,4.1009,4.0937,4.0937,4.1899,4.2986,4.2986,4.1899,4.1305,4.2737,4.1899,4.1305,4.2737,4.2986,4.2986,4.2986,4.2986,4.2451,4.07,4.0355,3.9498,3.7242,3.4727,3.314,3.3077,3.1767,3.0918,3.0976,3.0976,3.0976,3.0976,3.0976,3.0957,3.0898,3.0898,3.0898,3.0898,3.0898,3.0898,3.0898,3.0898,3.0898,3.0898,3.0898,3.0898,3.7793,3.8242,3.8476,3.8027,3.707,3.5762,3.3945,3.2031,3.0019,2.7793,2.6719,2.6016,2.5508,2.6816,2.8789,3.123,3.3125,3.543,3.8652,3.916,3.9629,4.082,4.1016,4.1035,4.0957,4.1016,4.1055,4.1055,4.1055,4.1055,4.1055,4.1133,4.1172,4.1172,4.1172,4.1172,4.1172,4.1172,4.0918,4.041,4.041,3.9941,3.9101,3.9101,3.8906,3.872,4.0228,0.0,4.0921,4.287,4.3542,4.3592,4.2884,4.277,4.3031,4.3205,4.3458,4.3855,4.5013,4.5403,4.489,4.2074,4.2132,4.3121,4.2848,4.3191,4.3622,4.3333,4.2974,4.26,4.26,4.2737,4.2986,4.2986,4.2737,4.2625,4.2961,4.2737,4.2625,4.2986,4.2986,4.2986,4.2986,4.2986,4.2824,4.2501,4.2102,4.1618,4.12,3.6771,3.3612,3.3119,3.1767,3.1035,3.1387,3.1406,3.1406,3.1406,3.1406,3.125,3.0898,3.0898,3.0898,3.0898,3.0898,3.0898,3.0898,3.0898,3.0898,3.0898,3.0898,3.0898,3.8144,3.8418,3.8418,3.7754,3.6641,3.5,3.2344,3.043,2.8476,2.5879,2.5176,2.4844,2.418,2.5664,2.7559,2.9238,3.1152,3.3613,3.707,3.793,3.8867,4.0625,4.1035,4.1172,4.1172,4.1172,4.1172,4.1172,4.1172,4.1172,4.1172,4.1172,4.1618,4.2637,4.279,4.3228,4.4268,4.3228,4.3001,4.3573,4.2549,4.2076,4.2162,4.2162,4.1909,4.1488,4.2452,4.2731,4.2849,4.4778,4.5457,4.5522,4.5704,4.5811,4.5821,4.557,4.5428,4.5527,4.6159,4.6301,4.6059,4.4374,4.4374,4.4915,4.4377,4.4655,4.4895,4.4041,4.3815,4.3765,4.3489,4.3614,4.384,4.384,4.3614,4.3313,4.3037,4.2986,4.2986,4.2986,4.2986,4.2986,4.2986,4.2986,4.2986,4.2986,4.276,4.2484,4.2183,3.9155,3.6498,3.4862,3.3341,3.219,3.1504,3.1523,3.1621,3.1836,3.1641,3.1426,3.123,3.0996,3.0898,3.0898,3.0898,3.0898,3.0898,3.0898,3.0898,3.0898,3.0898,3.0898,3.832,3.8496,3.8379,3.7519,3.6269,3.4355,3.0976,2.9062,2.7207,2.4375,2.3984,2.3965,2.3379,2.4746,2.6367,2.7598,2.9375,3.1875,3.5508,3.6758,3.8105,4.0254,4.0898,4.1172,4.1172,4.1172,4.1172,4.1172,4.1172,4.1327,4.1753,4.1753,4.279,4.4677,4.4677,4.5425,4.7029,4.5425,4.5379,4.6469,4.501,4.4576,4.5169,4.5057,4.4743,4.425,4.455,4.4641,4.4778,4.6689,4.7353,4.7461,4.8426,4.8761,4.8636,4.7531,4.7129,4.7054,4.6502,4.6301,4.6301,4.6301,4.6301,4.6225,4.5799,4.5573,4.5296,4.4418,4.4392,4.4518,4.4091,4.4292,4.4593,4.4468,4.4116,4.3639,4.3087,4.2986,4.2986,4.2986,4.2986,4.2986,4.2986,4.2986,4.2986,4.2986,4.2986,4.2811,4.2384,4.1397,3.9593,3.7084,3.5303,3.3812,3.2315,3.2098,3.2296,3.2853,3.2214,3.1699,3.1523,3.1289,3.1074,3.0898,3.0976,3.0976,3.0898,3.0898,3.0898,3.0898,3.0976,3.1035,3.7871,3.8281,3.8379,3.7519,3.6016,3.3965,3.0937,2.8633,2.6504,2.4258,2.3496,2.3359,2.3672,2.4199,2.5391,2.7832,2.9043,3.1172,3.543,3.6758,3.8105,4.0254,4.0898,4.1172,4.1172,4.1172,4.1172,4.1172,4.1172,4.1907,4.3794,4.3794,4.4677,4.6735,4.6735,4.6882,4.7029,4.6882,4.686,4.6961,4.6815,4.6547,4.6321,4.5729,4.5259,4.4883,4.6071,4.6532,0.0,4.8608,4.9307,4.9257,4.8987,4.8761,4.8636,4.7531,4.7129,4.7054,4.6502,4.6301,4.6301,4.6301,4.6301,4.6301,4.625,4.5874,4.5472,4.5372,4.4995,4.4618,4.4568,4.4593,4.4493,4.3991,4.384,4.3639,4.3087,4.2986,4.2986,4.2986,4.2986,4.2986,4.2986,4.2986,4.2986,4.2986,4.2986,4.2961,4.2911,4.2774,4.1768,3.907,3.7061,3.5413,3.4337,3.4143,3.4351,3.493,3.3516,3.2324,3.1543,3.1855,3.168,3.0918,3.1269,3.1269,3.0898,3.0898,3.0898,3.0898,3.1289,3.1465,3.7207,3.7676,3.7656,3.707,3.5605,3.3457,3.0195,2.8184,2.6328,2.3906,2.3262,2.3184,2.3359,2.3535,2.4336,2.6426,2.7031,2.8594,3.2402,3.3887,3.5586,3.8262,3.9414,4.0293,4.1094,4.1172,4.1773,4.2922,4.2922,4.4247,4.7467,4.5403,4.5574,4.865,4.8794,4.9391,5.0576,4.9391,4.9391,5.0576,4.9391,4.9132,4.9758,4.9253,4.87,4.8147,4.8436,4.8477,0.0,4.9307,4.959,4.9565,4.9364,4.9264,4.9163,4.841,4.8109,4.7983,4.7104,4.6803,4.6753,4.6426,4.6301,4.6301,4.6301,4.615,4.5924,4.5573,4.5573,4.5573,4.5221,4.5397,4.5422,4.4518,4.4292,4.4066,4.3162,4.2986,4.2986,4.2986,4.2986,4.2986,4.2986,4.2986,4.2986,4.2986,4.2986,4.2986,4.2986,4.2986,4.2103,3.9818,3.8577,3.7336,3.5917,3.4891,3.4756,3.5491,3.4696,3.37,3.2305,3.2874,3.263,3.1269,3.1426,3.1445,3.1269,3.1523,3.166,3.166,3.1836,3.1914,3.6094,3.6719,3.6797,3.623,3.4883,3.2832,2.9492,2.7754,2.6133,2.3652,2.3144,2.3144,2.3144,2.3144,2.3672,2.5273,2.5762,2.7129,3.0586,3.2168,3.4004,3.6777,3.8125,3.9297,4.0469,4.1535,4.2922,4.4827,4.4977,4.6441,4.9819,4.7321,4.7321,5.0717,5.0857,5.1443,5.2929,5.1583,5.1583,5.2929,5.1443,5.1313,5.2076,5.1523,5.0971,5.0393,4.9841,4.959,0.0,4.959,4.959,4.959,4.959,4.959,4.9515,4.8786,4.8636,4.8586,4.733,4.7004,4.7054,4.6502,4.6301,4.6301,4.6301,4.6301,4.6225,4.5849,4.6024,4.6225,4.5824,4.5899,4.5824,4.4844,4.4493,4.4116,4.3187,4.2986,4.2986,4.2986,4.2986,4.2986,4.2986,4.2986,4.2986,4.2986,4.2986,4.2986,4.2986,4.2986,4.2401,4.0828,4.0304,3.9372,3.7771,3.66,3.6391,3.7199,3.6458,3.5281,3.3616,3.4051,3.3423,3.1719,3.1719,3.1719,3.1719,3.2012,3.2168,3.2168,3.2285,3.2422,3.4375,3.5371,3.582,3.4941,3.375,3.2012,2.8984,2.7305,2.5781,2.3594,2.3144,2.3144,2.3144,2.3144,2.3574,2.4863,2.5801,2.7578,3.1035,3.2617,3.4219,3.6406,3.7422,3.8281,3.9141,4.2126,4.4827,4.6882,4.7029,4.7927,4.9819,4.9961,5.0857,5.2792,5.2929,5.2929,5.2929,5.2929,5.2929,5.2929,5.2929,5.2628,5.2076,5.1523,5.0971,5.0393,4.9841,4.959,0.0,4.959,4.959,4.959,4.959,4.959,4.9464,4.8335,4.8284,4.8535,4.6878,4.6677,4.7054,4.6502,4.6301,4.6301,4.6301,4.6301,4.6301,4.6301,4.6301,4.6301,4.6301,4.5899,4.5347,4.4769,4.4192,4.3664,4.3112,4.2986,4.2986,4.2986,4.2986,4.2986,4.2986,4.2986,4.2986,4.2986,4.2986,4.2986,4.2986,4.2986,4.276,4.2208,4.2158,4.1558,4.0057,3.9807,3.9907,4.0568,3.9053,3.7286,3.5276,3.5113,3.4204,3.2289,3.2168,3.2168,3.2168,3.2168,3.2168,3.2187,3.2598,3.3008,3.1348,3.2051,3.2305,3.1406,3.0664,2.9512,2.709,2.623,2.541,2.3535,2.3144,2.3144,2.3144,2.3144,2.3945,2.6445,2.709,2.8262,3.1113,3.3125,3.4785,3.6074,3.9778,4.2261,4.2529,4.472,4.6882,4.8938,4.9081,4.9961,5.1886,5.2025,5.2189,5.2929,5.2929,5.2929,5.2929,5.2929,5.2929,5.2929,5.2929,5.2628,5.2076,5.1523,5.0971,5.0393,4.9841,4.959,4.959,4.959,4.959,4.959,4.959,4.959,4.9565,4.9188,4.9163,4.9138,4.7857,4.7506,4.7506,4.6602,4.6301,4.6301,4.6301,4.6301,4.6301,4.6301,4.605,4.5748,4.5748,4.5321,4.4744,4.4192,4.3915,4.3639,4.3087,4.2986,4.2986,4.2986,4.2986,4.2986,4.2986,4.2986,4.2986,4.2986,4.2986,4.2986,4.2986,4.2986,4.2911,4.2735,4.271,4.2449,4.1607,4.0057,3.9474,4.0021,3.8549,3.6816,3.5155,3.4819,3.3895,3.2289,3.2168,3.2734,3.3752,3.4368,3.5265,3.623,3.5289,3.4964,2.8867,2.957,2.9746,2.9023,2.8516,2.7734,2.5898,2.5352,2.4844,2.3437,2.3144,2.3144,2.3144,2.3281,2.4102,2.6328,2.709,2.832,3.0918,3.2969,3.5087,3.7602,4.1151,4.3975,4.5742,4.7264,4.8938,5.0998,5.1138,5.1607,5.2792,5.2929,5.2929,5.2929,5.2929,5.2929,5.2929,5.2929,5.2929,5.2929,5.2929,5.2528,5.1774,5.1448,5.0845,5.0092,4.9741,4.959,0.0,4.959,4.959,4.959,4.959,4.959,4.9565,4.9364,4.9289,4.9113,4.8008,4.7606,4.7481,4.6602,4.6301,4.6301,4.6301,4.6301,4.6301,4.6301,4.5924,4.5497,4.5497,4.4895,4.4217,4.389,4.3639,4.3388,4.3062,4.2986,4.2986,4.2986,4.2986,4.2986,4.2986,4.2986,4.2986,4.2986,4.2986,4.2986,4.2986,4.2986,4.2986,4.2986,4.2986,4.2836,4.2484,4.1201,4.0571,4.1023,4.0116,3.8478,3.635,3.6173,3.5328,3.3337,3.3055,3.3615,3.4715,3.4861,3.5458,3.6295,3.5335,3.5211,0.0,2.7676,2.791,2.7461,2.707,2.6465,2.5215,2.4648,0.0,2.3301,2.3144,2.3164,2.3262,2.3574,2.418,2.5215,2.6426,2.8144,3.0703,3.274,3.5721,4.0667,4.2231,4.4343,4.8349,4.9695,5.0998,5.2767,5.2929,5.2929,5.2929,5.2929,5.2929,5.2929,5.2929,5.2929,5.2929,5.2929,5.2929,5.2929,5.2929,5.2352,5.1272,5.1272,5.067,0.0,4.959,4.959,4.959,4.959,4.959,4.959,4.959,4.959,4.954,4.8987,4.8761,4.8611,4.7506,4.7129,4.7054,4.6502,4.6301,4.6301,4.6301,4.6301,4.6301,4.6301,4.5874,4.5422,4.5422,4.4593,4.374,4.374,4.3338,4.2986,4.2986,4.2986,4.2986,4.2986,4.2986,4.2986,4.2986,4.2986,4.2986,4.2986,4.2986,4.2986,4.2986,4.2986,4.2986,4.2986,4.2986,4.2986,4.2986,4.2936,4.2911,4.2911,4.2799,4.1347,3.8349,3.8731,3.7634,3.493,3.4652,3.4812,3.5197,3.4429,3.4133,3.4027,3.4027,3.4736,2.4062,0.0,2.5137,2.4394,2.4375,2.4375,0.0,2.3769,2.3789,2.3242,2.3144,2.3437,2.4434,2.4434,2.5195,2.8047,2.9043,3.0234,3.25,3.6436,4.0742,4.5002,4.7099,4.859,4.9604,5.1296,5.2352,5.2929,5.2929,5.2929,5.2929,5.2929,5.2929,5.2929,5.2929,5.2929,5.2929,5.2929,5.2929,5.2929,5.2929,5.2352,5.1272,5.1272,5.067,4.959,4.959,4.959,4.959,4.959,4.959,4.959,4.959,4.959,4.954,4.8987,4.8761,4.8611,4.7506,4.7129,4.7054,4.6502,4.6301,4.6301,4.6301,4.6301,4.6301,4.6301,4.5598,4.4819,4.4819,4.3991,4.3162,4.3162,4.3062,4.2986,4.2986,4.2986,4.2986,4.2986,4.2986,4.2986,4.2986,4.2986,4.2986,4.2986,4.2986,4.2986,4.2986,4.2986,4.2986,4.2986,4.2986,4.2986,4.2986,4.2585,4.2359,4.2359,4.1286,4.0057,3.8817,3.777,3.6267,3.4085,3.5555,3.6706,3.7449,3.9709,4.0707,4.0707,3.9522,3.9147,2.3144,2.3906,2.4609,2.4141,2.4199,2.4316,2.4082,2.375,2.3418,2.3184,2.3144,2.3477,2.457,2.4902,2.5898,2.8555,2.9844,3.1959,3.599,3.9384,4.3262,4.782,4.9391,5.041,5.1303,5.2327,5.2929,5.2929,5.2929,5.2929,5.2929,5.2929,5.2929,5.2929,5.2929,5.2929,5.2929,5.2929,5.2929,5.2929,5.2929,5.2352,5.1272,5.1272,5.067,4.959,4.959,4.959,4.959,4.959,4.959,4.959,4.959,4.959,4.954,4.8987,4.8611,4.8259,4.7431,4.6979,4.6702,4.6401,4.6301,4.625,4.5999,4.5924,4.5924,4.5924,4.5296,4.4568,4.4317,4.3614,4.2986,4.2986,4.2986,4.2986,4.2986,4.2986,4.2986,4.2986,4.2986,4.2986,4.2986,4.2986,4.2986,4.2986,4.2986,4.2986,4.2986,4.2986,4.2886,4.2635,4.261,4.2509,4.2233,4.1957,4.2007,4.2509,4.1238,4.012,3.9379,3.8706,3.7641,3.5758,3.7155,3.7794,3.7887,3.9895,4.0822,4.0822,3.9873,3.9873,2.3359,2.4375,2.5273,2.4863,2.498,2.5117,2.4922,2.4082,2.334,2.334,2.3398,2.373,2.4727,2.5625,2.6816,2.8594,3.0449,3.3877,4.0053,4.2031,4.4629,4.9795,5.041,5.1138,5.2767,5.2929,5.2929,5.2929,5.2929,5.2929,5.2929,5.2929,5.2929,5.2929,5.2929,5.2929,5.2929,5.2929,5.2929,5.2929,5.2929,5.2352,5.1272,5.1272,5.067,4.959,0.0,0.0,4.959,4.959,4.959,4.959,4.959,4.954,4.9414,4.8837,4.8284,4.7707,4.7179,4.6702,4.6301,4.6301,4.6301,4.62,4.5648,4.5497,4.5447,4.5271,4.4869,4.4392,4.3915,4.3388,4.2986,4.2986,4.2986,4.2986,4.2986,4.2986,4.2986,4.2986,4.2986,4.2986,4.2986,4.2986,4.2986,4.2986,4.2986,4.2986,4.2986,4.2986,4.276,4.2208,4.2158,4.1932,4.1379,4.1254,4.1656,4.266,4.1856,4.0938,3.9906,4.0021,3.9398,3.8105,3.8627,3.8587,3.7717,3.8566,3.8935,3.8935,3.8935,3.9639,2.4375,2.5723,2.6191,2.3984,2.4551,2.5352,2.4238,2.4102,2.4219,2.4219,2.4512,2.5254,2.6875,2.7851,2.9121,3.123,3.3633,3.7388,4.352,4.4872,4.6977,5.1901,5.2491,5.2629,5.2929,5.2929,5.2929,5.2929,5.2929,5.2929,5.2929,5.2929,5.2929,5.2929,5.2929,5.2929,5.2929,5.2929,5.2929,5.2929,5.2929,5.2352,5.1272,5.1272,5.067,4.959,0.0,4.959,4.959,4.959,4.959,4.959,4.959,4.9314,4.8837,4.8259,4.7707,4.7179,4.6627,4.6376,4.6301,4.6301,4.6301,4.62,4.5648,4.5497,4.5296,4.4342,4.3991,4.3915,4.3815,4.3388,4.2986,4.2986,4.2986,4.2986,4.2986,4.2986,4.2986,4.2986,4.2986,4.2986,4.2986,4.2986,4.2986,4.2986,4.2986,4.2986,4.2986,4.2986,4.276,4.2208,4.2158,4.1932,4.1379,4.0902,4.0902,4.1555,4.143,4.1046,4.0433,3.881,3.8,3.8105,3.8737,3.9172,3.9467,4.129,4.2263,4.2263,4.2263,4.2375,2.375,2.5156,2.5977,2.4551,2.584,2.7305,2.6699,2.6172,2.582,2.582,2.5977,2.6582,2.8066,2.9043,3.0625,3.375,3.582,3.8989,4.4642,4.5782,4.7816,5.2391,5.2929,5.2929,5.2929,5.2929,5.2929,5.2929,5.2929,5.2929,5.2929,5.2929,5.2929,5.2929,5.2929,5.2929,5.2929,5.2929,5.2929,5.2929,5.2628,5.2076,5.1272,5.0946,5.0368,4.959,0.0,4.959,4.959,4.959,4.959,4.9565,4.9264,4.8987,4.8661,4.7807,4.7154,4.6652,4.6401,4.6301,4.625,4.5974,4.5874,4.5698,4.4844,4.4568,4.4418,4.3589,4.3564,4.374,4.3438,4.3162,4.2986,4.2986,4.2986,4.2986,4.2986,4.2986,4.2986,4.2986,4.2986,4.2986,4.2986,4.2986,4.2986,4.2986,4.2986,4.2986,4.2986,4.271,4.2333,4.1781,4.1455,4.1053,4.0501,4.0224,4.0174,4.0425,4.0727,4.0651,4.0099,3.9149,3.881,3.8925,3.957,4.0133,4.0563,4.1928,4.2685,4.2986,4.2986,4.2986,2.3398,2.4648,2.5723,2.5684,2.709,2.8555,2.8848,2.8164,2.7539,2.7851,2.8086,2.8496,2.9355,3.0566,3.2519,3.5918,3.7944,4.074,4.5399,4.6676,4.8661,5.2441,5.2929,5.2929,5.2929,5.2929,5.2929,5.2929,5.2929,5.2929,5.2929,5.2929,5.2929,5.2929,5.2804,5.2729,5.2729,5.2603,5.2603,5.2729,5.2302,5.1749,5.1071,5.0619,5.0117,4.959,4.959,4.959,4.959,4.9464,4.9414,4.9339,4.8786,4.8485,4.8259,4.7305,4.6677,4.6301,4.6301,4.6301,4.6225,4.5673,4.5497,4.5271,4.4141,4.379,4.3689,4.3137,4.3288,4.3514,4.3087,4.2986,4.2986,4.2986,4.2986,4.2986,4.2986,4.2986,4.2986,4.2986,4.2986,4.2986,4.2986,4.2986,4.2986,4.2986,4.2986,4.2986,4.2986,4.2484,4.1957,4.1404,4.0852,4.03,3.9747,3.9697,3.9697,3.9697,4.0099,4.0149,3.9722,3.9697,3.9697,3.9697,4.0249,4.0777,4.1329,4.1882,4.2434,4.2986,4.2986,4.2986,2.4492,2.5332,2.6016,2.7187,2.7305,2.7461,2.8652,2.8848,2.9121,3.0351,3.125,3.1699,3.1387,3.3359,3.5625,3.748,4.041,4.3486,4.649,4.858,5.0527,5.2629,5.2929,5.2929,5.2929,5.2929,5.2929,5.2929,5.2929,5.2929,5.2929,5.2929,5.2929,5.2929,5.2427,5.2176,5.2176,5.1649,5.1649,5.2176,5.2126,5.1523,5.0469,5.0444,5.0117,4.959,4.959,4.959,4.9565,4.9038,4.8837,4.8786,4.8184,4.7682,4.7179,4.6602,4.6351,4.6301,4.6301,4.6301,4.6225,4.5673,4.5497,4.5271,4.4141,4.379,4.3689,4.3137,4.3011,4.3037,4.2986,4.2986,4.2986,4.2986,4.2986,4.2986,4.2986,4.2986,4.2986,4.2986,4.2986,4.2986,4.2986,4.2986,4.2986,4.2986,4.2986,4.2986,4.2986,4.2484,4.1957,4.1404,4.0852,4.03,3.9747,3.9697,3.9697,3.9697,3.9747,3.9747,3.9697,3.9697,3.9697,3.9697,4.0249,4.0777,4.1329,4.1882,4.2434,4.2986,4.2986,4.2986,2.3242,2.4785,2.6328,2.707,2.7734,2.8535,2.9844,3.0762,3.1621,3.2656,3.334,3.3691,3.3516,3.498,3.6562,3.7734,4.0698,4.376,4.6602,4.8794,5.0717,5.2629,5.2929,5.2929,5.2929,5.2929,5.2929,5.2929,5.2929,5.2779,5.2427,5.2427,5.2251,5.1925,5.1699,5.1599,5.1599,5.1398,5.1197,5.1046,5.1046,5.082,5.0419,5.0067,4.9791,4.9565,4.9238,4.9088,4.9038,4.846,4.8234,4.8184,4.7631,4.7104,4.6602,4.6376,4.6301,4.6301,4.6301,4.6301,4.615,4.5246,4.4945,4.4744,4.3614,4.3288,4.3237,4.3037,4.2986,4.2986,4.2986,4.2986,4.2986,4.2986,4.2986,4.2986,4.2986,4.2986,4.2986,4.2986,4.2986,4.2986,4.2986,4.2986,4.2986,4.2986,4.2986,4.2861,4.2509,4.1982,4.143,4.0877,4.0325,3.9923,3.9722,3.9697,3.9697,3.9697,3.9697,3.9697,3.9697,3.9697,3.9697,3.9697,3.9898,4.0275,4.0827,4.1379,4.1932,4.2484,4.2811,4.2986,2.2832,2.4609,2.6523,2.707,2.8281,2.9746,3.1328,3.2363,3.3359,3.4629,3.4902,3.5,3.5273,3.5957,3.6916,3.8587,4.1522,4.4692,4.725,4.9558,5.1443,5.2767,5.2929,5.2854,5.2678,5.2678,5.2603,5.2427,5.2402,5.2251,5.1875,5.185,5.1674,5.1297,5.1096,5.0996,5.0996,5.0845,5.0544,5.0167,4.9992,4.9992,5.0142,4.959,4.9339,4.9314,4.8736,4.851,4.846,4.7883,4.7556,4.738,4.7004,4.6652,4.6301,4.6301,4.6301,4.6301,4.6301,4.6301,4.615,4.5196,4.4769,4.4443,4.3514,4.3112,4.2986,4.2986,4.2986,4.2986,4.2986,4.2986,4.2986,4.2986,4.2986,4.2986,4.2986,4.2986,4.2986,4.2986,4.2986,4.2986,4.2986,4.2836,4.271,4.271,4.2559,4.2333,4.1932,4.143,4.0877,4.0325,3.9923,3.9697,3.9697,3.9697,3.9697,3.9697,3.9697,3.9697,3.9697,3.9697,3.9697,3.9697,3.9697,3.9973,4.0526,4.0902,4.1354,4.1907,4.2283,4.2459,2.3789,2.5059,2.6602,2.7461,2.8965,3.0781,3.2949,3.3437,3.4062,3.625,3.6016,3.5684,3.6523,3.6328,3.7112,4.0167,4.3468,4.6557,4.8778,5.1239,5.2904,5.2904,5.2904,5.2703,5.2151,5.2101,5.1875,5.1322,5.1272,5.1272,5.1272,5.1272,5.1272,5.1272,5.072,5.0419,5.0419,4.9866,4.959,4.959,4.9038,4.9063,4.9565,4.9012,4.8761,4.8736,4.8159,4.7908,4.7857,4.733,4.6803,4.6301,4.6301,4.6301,4.6301,4.6301,4.6301,4.6301,4.6301,4.6301,4.62,4.5648,4.507,4.4518,4.3966,4.3413,4.2986,4.2986,4.2986,4.2986,4.2986,4.2986,4.2986,4.2986,4.2986,4.2986,4.2986,4.2986,4.2986,4.2986,4.2986,4.2986,4.2961,4.2509,4.2158,4.2158,4.1681,4.1329,4.1329,4.0852,4.03,3.9747,3.9697,3.9697,3.9697,3.9697,3.9697,3.9697,3.9697,3.9697,3.9697,3.9697,3.9697,3.9697,3.9697,3.9973,4.0501,4.0526,4.0802,4.1329,4.1329,4.1329,2.3418,2.5273,2.748,2.834,3.0527,3.2871,3.4453,3.5039,3.5781,3.7637,3.7559,3.7168,3.7129,3.8326,3.964,4.0591,4.4295,4.7463,4.8396,5.0357,5.1774,5.1774,5.1774,5.1699,5.1548,5.1523,5.1448,5.1297,5.1272,5.1096,5.0695,5.067,5.0494,5.0117,4.9916,4.9841,4.9841,4.9289,4.9012,4.9012,4.8435,4.846,4.8987,4.841,4.8159,4.8134,4.7606,4.7355,4.733,4.6778,4.6451,4.6301,4.6301,4.6301,4.6301,4.6301,4.6301,4.625,4.5874,4.5723,4.5573,4.4618,4.4192,4.394,4.3388,4.3112,4.2986,4.2986,4.2986,4.2986,4.2986,4.2986,4.2986,4.2986,4.2986,4.2986,4.2986,4.2986,4.2986,4.2986,4.2986,4.2861,4.2459,4.2258,4.2032,4.163,4.143,4.1204,4.0802,4.0275,3.9873,3.9722,3.9697,3.9697,3.9697,3.9697,3.9697,3.9697,3.9697,3.9697,3.9697,3.9697,3.9697,3.9697,3.9697,3.9772,3.9948,4.0325,4.0601,4.0777,4.1153,4.1329,2.457,2.6504,2.8711,2.9902,3.1953,3.416,3.5976,3.6601,3.7129,3.832,3.8086,3.798,3.8748,3.977,4.1039,4.276,4.5688,4.7997,4.901,5.0404,5.1272,5.1272,5.1272,5.1197,5.0971,5.0946,5.0845,5.0619,5.0619,5.0469,5.0117,5.0092,4.9941,4.9615,4.9389,4.9264,4.9264,4.8711,4.8435,4.841,4.7857,4.7782,4.8109,4.7757,4.7606,4.7581,4.7054,4.6803,4.6778,4.6451,4.6301,4.6301,4.6301,4.6301,4.6276,4.6075,4.5974,4.5899,4.5347,4.5146,4.502,4.4342,4.3991,4.374,4.3413,4.3162,4.2986,4.2986,4.2986,4.2986,4.2986,4.2986,4.2986,4.2986,4.2986,4.2986,4.2986,4.2986,4.2986,4.2986,4.2811,4.2534,4.2208,4.1781,4.1379,4.1053,4.0827,4.0576,4.0224,3.9898,3.9697,3.9697,3.9697,3.9697,3.9697,3.9697,3.9697,3.9697,3.9697,3.9697,3.9697,3.9697,3.9697,3.9697,3.9697,3.9697,3.9697,4.0023,4.0199,4.0199,4.0526,4.0676,2.6445,2.8203,2.998,3.1738,3.3281,3.5,3.7383,3.7949,3.8086,3.8496,3.8092,3.8467,4.0917,4.0932,4.1983,4.61,4.7361,4.8391,5.0056,5.0795,5.1122,5.1122,5.1122,5.0921,5.0393,5.0343,5.0142,4.964,4.954,4.9515,4.9515,4.9515,4.949,4.9439,4.9012,4.8736,4.8686,4.8134,4.7832,4.7832,4.7305,4.7054,4.7054,4.7054,4.7054,4.7029,4.6527,4.6301,4.6301,4.6301,4.6276,4.6225,4.6225,4.62,4.61,4.5598,4.5422,4.5321,4.4744,4.4543,4.4543,4.4493,4.4141,4.374,4.374,4.3363,4.2986,4.2986,4.2986,4.2986,4.2986,4.2986,4.2961,4.2911,4.2936,4.2961,4.2911,4.2911,4.2886,4.2836,4.2409,4.2057,4.2007,4.1178,4.0501,4.045,4.0023,3.9697,3.9697,3.9697,3.9697,3.9697,3.9697,3.9697,3.9697,3.9697,3.9697,3.9697,3.9697,3.9697,3.9697,3.9697,3.9697,3.9697,3.9697,3.9697,3.9697,3.9697,3.9697,3.9697,3.9697,3.9594,2.582,2.7754,2.998,3.1738,3.4394,3.6836,3.7715,3.8184,3.8457,3.8555,3.9533,4.0551,4.1163,4.3481,4.5739,4.6642,4.8158,4.9352,4.9766,4.9866,4.9967,4.9967,4.9967,4.9916,4.9791,4.9766,4.9715,4.9615,4.9188,4.8962,4.8962,4.8962,4.8736,4.8284,4.8586,4.856,4.8109,4.7556,4.7305,4.7305,4.6753,4.6502,4.6502,4.6502,4.6502,4.6476,4.6351,4.6301,4.6301,4.6301,4.605,4.5673,4.5673,4.5372,4.497,4.4844,4.4819,4.4719,4.4166,4.3991,4.3915,4.3463,4.3263,4.3162,4.3162,4.3062,4.2986,4.2986,4.2986,4.2986,4.2986,4.2986,4.2861,4.2434,4.266,4.2861,4.2434,4.2333,4.2208,4.1781,4.1605,4.1379,4.0953,4.0676,4.0375,3.9948,3.9772,3.9697,3.9697,3.9697,3.9697,3.9697,3.9697,3.9697,3.9697,3.9697,3.9697,3.9697,3.9697,3.9697,3.9697,3.9697,3.9697,3.9697,3.9697,3.9697,3.9697,3.9697,3.9697,3.9697,3.9697,3.9129,2.6211,2.8086,3.0234,3.3027,3.5371,3.7109,3.7539,3.7793,3.7969,3.7969,3.98,4.189,4.3658,4.5434,4.7088,4.806,4.8893,4.959,4.959,4.959,4.949,4.9238,4.9213,4.9088,4.8812,4.8786,4.8786,4.8786,4.851,4.836,4.836,4.836,4.8209,4.7908,4.7958,4.7832,4.7531,4.7004,4.6753,4.6728,4.6451,4.6175,4.5924,4.6175,4.6175,4.5924,4.5924,4.5748,4.5497,4.5497,4.5347,4.507,4.507,4.4895,4.4593,4.4317,4.4242,4.4141,4.3589,4.3413,4.3363,4.3062,4.2986,4.2986,4.2986,4.2986,4.2986,4.2986,4.2986,4.2911,4.266,4.2585,4.2434,4.1882,4.2183,4.2434,4.1882,4.1756,4.1681,4.1404,4.1128,4.0852,4.0576,4.03,4.0023,3.9747,3.9697,3.9697,3.9697,3.9697,3.9697,3.9697,3.9697,3.9697,3.9697,3.9697,3.9697,3.9697,3.9697,3.9697,3.9697,3.9697,3.9697,3.9697,3.9697,3.9697,3.9697,3.9697,3.9697,3.9697,3.9025,3.8582,2.6289,2.832,3.0586,3.4336,3.5918,3.666,3.709,3.7246,3.7426,3.7707,3.9815,4.2557,4.5471,4.6608,4.7603,4.9032,4.9314,4.9314,4.9314,4.9314,4.9138,4.8686,4.8611,4.8435,4.7958,4.7908,4.7908,4.7908,4.7832,4.7782,4.7782,4.7782,4.7732,4.7631,4.7305,4.7079,4.7004,4.6552,4.625,4.6175,4.6075,4.5773,4.5347,4.5799,4.5773,4.5347,4.5347,4.507,4.4618,4.4618,4.4568,4.4493,4.4493,4.4418,4.4292,4.384,4.3664,4.3589,4.3137,4.2986,4.2986,4.2986,4.2986,4.2986,4.2986,4.2986,4.2986,4.2986,4.2911,4.2735,4.2283,4.2082,4.1882,4.1329,4.153,4.1756,4.1304,4.1204,4.1178,4.1078,4.0701,4.0375,4.0375,3.9998,3.9697,3.9697,3.9697,3.9697,3.9697,3.9697,3.9697,3.9697,3.9697,3.9697,3.9697,3.9697,3.9697,3.9697,3.9697,3.9697,3.9697,3.9697,3.9697,3.9697,3.9697,3.9697,3.9697,3.9697,3.9569,3.9258,3.8348,3.8137,2.4102,2.7148,3.0859,3.4004,3.5449,3.6211,3.666,3.7031,3.7707,3.9454,4.1618,4.3219,4.3173,4.6131,4.8432,4.8209,4.8134,4.8134,4.8134,4.8134,4.8109,4.8033,4.8033,4.7983,4.7908,4.7908,4.7908,4.7908,4.7481,4.723,4.723,4.723,4.7004,4.6527,4.6928,4.6903,4.6426,4.6351,4.6075,4.5598,4.5095,4.4819,4.4744,4.4819,4.4819,4.4744,4.4744,4.4694,4.4618,4.4618,4.4342,4.3915,4.3915,4.3614,4.3187,4.3112,4.3087,4.3087,4.3011,4.2986,4.2986,4.2986,4.2986,4.2986,4.2986,4.2986,4.2986,4.2986,4.2635,4.2258,4.2183,4.1806,4.1304,4.0752,4.0676,4.0701,4.0651,4.0626,4.0475,3.9998,3.9848,3.9798,3.9798,3.9747,3.9697,3.9697,3.9697,3.9697,3.9697,3.9697,3.9697,3.9697,3.9697,3.9697,3.9697,3.9697,3.9697,3.9697,3.9697,3.9697,3.9697,3.9697,3.9697,3.9697,3.9697,3.9697,3.9697,3.9697,3.9025,3.7796,3.8896,3.7477,2.4883,2.7851,3.0801,3.3359,3.4453,3.5117,3.5801,3.6094,3.6816,3.8895,4.1042,4.2967,4.3932,4.6391,4.8209,4.7958,4.7908,4.7908,4.7908,4.7908,4.7807,4.7506,4.7481,4.7355,4.7029,4.7004,4.7004,4.7004,4.6803,4.6552,4.6225,4.62,4.5949,4.5397,4.5598,4.5623,4.5372,4.5372,4.5246,4.4995,4.4744,4.4468,4.4166,4.4166,4.4166,4.4166,4.4166,4.3991,4.3689,4.3689,4.3564,4.3338,4.3338,4.3187,4.2986,4.2986,4.2986,4.2986,4.2986,4.2986,4.2986,4.2986,4.2986,4.2911,4.261,4.2509,4.2459,4.2133,4.1882,4.163,4.1329,4.1053,4.0752,4.0199,4.0049,4.0049,4.0049,4.0049,3.9973,3.9747,3.9697,3.9697,3.9697,3.9697,3.9697,3.9697,3.9697,3.9697,3.9697,3.9697,3.9697,3.9697,3.9697,3.9697,3.9697,3.9697,3.9697,3.9697,3.9697,3.9697,3.9697,3.9697,3.9697,3.9697,3.9697,3.9258,3.8477,3.8477,3.8137,3.7477,3.6487,3.5836,2.5273,2.7598,2.9492,3.1973,3.3008,3.3711,3.4805,3.5059,3.5554,3.7258,3.9671,4.1965,4.3636,4.5987,4.7657,4.7531,4.7506,4.7506,4.7506,4.7506,4.7355,4.6979,4.6803,4.6602,4.6326,4.6175,4.61,4.61,4.61,4.5849,4.5296,4.5271,4.507,4.4644,4.4618,4.4618,4.4618,4.4493,4.4418,4.4418,4.4267,4.3991,4.3589,4.3589,4.3589,4.3589,4.3589,4.3363,4.2986,4.2986,4.2986,4.2986,4.2986,4.2986,4.2986,4.2986,4.2886,4.276,4.276,4.2685,4.2559,4.2559,4.2559,4.2484,4.2057,4.1957,4.1856,4.1455,4.1229,4.1028,4.0626,4.04,4.0199,3.9798,3.9697,3.9697,3.9697,3.9697,3.9697,3.9697,3.9697,3.9697,3.9697,3.9697,3.9697,3.9697,3.9697,3.9697,3.9697,3.9697,3.9697,3.9697,3.9697,3.9697,3.9697,3.9697,3.9697,3.9697,3.9697,3.9697,3.9697,3.9697,3.9465,3.9129,3.9129,3.8582,3.7477,3.7133,3.6703,3.6379,3.4515,3.4403,2.3711,2.4941,2.6152,2.9531,3.1016,3.209,3.375,3.4141,3.4258,3.4799,3.7551,3.9814,3.9961,4.3935,4.7004,4.6476,4.6401,4.6401,4.6401,4.6401,4.6376,4.6351,4.5899,4.5773,4.625,4.5849,4.5522,4.5522,4.5522,4.5271,4.4694,4.4669,4.4644,4.4618,4.4618,4.4618,4.4618,4.4116,4.384,4.384,4.3313,4.3062,4.3011,4.3011,4.3011,4.3011,4.3011,4.3011,4.2986,4.2986,4.2986,4.2986,4.2986,4.2986,4.2986,4.2986,4.266,4.2208,4.2208,4.1856,4.143,4.143,4.143,4.1404,4.1404,4.1379,4.1379,4.1354,4.0953,4.0551,4.0526,4.0124,3.9722,3.9697,3.9697,3.9697,3.9697,3.9697,3.9697,3.9697,3.9697,3.9697,3.9697,3.9697,3.9697,3.9697,3.9697,3.9697,3.9697,3.9697,3.9697,3.9697,3.9697,3.9697,3.9697,3.9697,3.9697,3.9697,3.9697,3.9697,3.9697,3.9697,3.9025,3.769,3.7583,3.7583,3.7477,3.6054,3.4736,3.3417,3.4626,3.3754,2.2676,2.3906,2.5215,2.7559,2.9219,3.0566,3.1758,3.2871,3.4132,3.5677,3.7108,3.881,4.093,4.3625,4.5447,4.5271,4.5221,4.5221,4.5221,4.5221,4.5221,4.5221,4.5045,4.502,4.5196,4.5045,4.4945,4.4945,4.4945,4.4694,4.4116,4.4091,4.394,4.3589,4.3564,4.3564,4.3564,4.3363,4.3263,4.3263,4.3062,4.2986,4.2986,4.2986,4.2986,4.2986,4.2986,4.2986,4.2986,4.2986,4.2986,4.2936,4.2585,4.2459,4.2409,4.2057,4.1806,4.163,4.163,4.1505,4.1329,4.1329,4.1329,4.1279,4.0927,4.0802,4.0727,4.0375,4.0149,3.9998,3.9998,3.9848,3.9697,3.9697,3.9697,3.9697,3.9697,3.9697,3.9697,3.9697,3.9697,3.9697,3.9697,3.9697,3.9697,3.9697,3.9697,3.9697,3.9697,3.9697,3.9697,3.9697,3.9697,3.9697,3.9697,3.9697,3.9697,3.9697,3.9697,3.9697,3.9697,3.8792,3.8031,3.7453,3.5595,3.4714,3.4714,3.4181,3.3642,3.3077,3.2644,3.2436,2.1543,2.2695,2.4082,2.6269,2.7441,2.8555,3.0449,3.1543,3.269,3.4616,3.6076,3.7724,4.0032,4.2093,4.3765,4.4493,4.4618,4.4618,4.4618,4.4618,4.4618,4.4618,4.4468,4.4418,4.4593,4.4468,4.4342,4.4342,4.4342,4.4116,4.3564,4.3514,4.3363,4.2986,4.2986,4.2986,4.2986,4.2986,4.2886,4.271,4.2886,4.2785,4.2434,4.261,4.261,4.2434,4.2434,4.2635,4.2986,4.2986,4.2861,4.266,4.2308,4.2057,4.1831,4.148,4.1229,4.1053,4.1053,4.0953,4.0777,4.0777,4.0777,4.0727,4.035,4.0249,4.0174,3.9798,3.9697,3.9697,3.9697,3.9697,3.9697,3.9697,3.9697,3.9697,3.9697,3.9697,3.9697,3.9697,3.9697,3.9697,3.9697,3.9697,3.9697,3.9697,3.9697,3.9697,3.9697,3.9697,3.9697,3.9697,3.9697,3.9697,3.9697,3.9697,3.9697,3.9697,3.9697,3.9465,3.9025,3.8031,3.7026,3.6031,3.4069,3.2851,3.2301,3.2301,3.2301,3.2301,3.1325,3.1441,0.0,0.0,0.0,2.5527,2.5644,2.6035,2.9863,3.0078,2.9863,3.1191,3.418,3.6585,3.6722,3.9157,4.1923,4.4192,4.4543,4.4543,4.4568,4.4568,4.4543,4.4543,4.4091,4.3966,4.4493,4.4066,4.374,4.374,4.374,4.3489,4.2961,4.2936,4.2936,4.2961,4.2936,4.2936,4.2961,4.2936,4.266,4.2133,4.266,4.2384,4.1354,4.1882,4.1831,4.1329,4.1329,4.1957,4.2936,4.2936,4.261,4.2133,4.2108,4.1781,4.1304,4.1304,4.0953,4.0501,4.0501,4.0149,3.9697,3.9697,3.9697,3.9697,3.9697,3.9697,3.9697,3.9697,3.9697,3.9697,3.9697,3.9697,3.9697,3.9697,3.9697,3.9697,3.9697,3.9697,3.9697,3.9697,3.9697,3.9697,3.9697,3.9697,3.9697,3.9697,3.9697,3.9697,3.9697,3.9697,3.9697,3.9697,3.9697,3.9697,3.9697,3.9697,3.9697,3.9697,3.9697,3.9025,3.7583,3.7477,3.6031,3.3191,3.3077,3.2322,3.0898,3.0898,3.0898,3.0898,3.0898,3.0898,1.9746,0.0,0.0,0.0,0.0,0.0,2.6367,2.7226,2.8184,2.9785,3.1984,3.4242,3.6315,3.8218,4.0123,4.1913,4.2585,4.2986,4.3388,4.3087,4.2836,4.2836,4.271,4.266,4.2811,4.271,4.261,0.0,4.2233,4.1957,4.1806,4.1806,4.1982,4.2359,4.2007,4.1982,4.2384,4.1982,4.1706,4.1555,4.1731,4.163,4.1354,4.1505,4.148,4.1329,4.1329,4.1505,4.1806,4.1806,4.1706,4.153,4.1128,4.0877,4.0701,4.03,4.0049,3.9923,3.9923,3.9823,3.9697,3.9697,3.9697,3.9697,3.9697,3.9697,3.9697,3.9697,3.9697,3.9697,3.9697,3.9697,3.9697,3.9697,3.9697,3.9697,3.9697,3.9697,3.9697,3.9697,3.9697,3.9697,3.9697,3.9697,3.9697,3.9697,3.9697,3.9697,3.9697,3.9697,3.9697,3.9697,3.9697,3.9697,3.9697,3.9697,3.9697,3.9697,3.8687,3.7902,3.7477,3.5485,3.3957,3.3077,3.2092,3.1325,3.0898,3.0898,3.0898,3.0898,3.0898,3.0898,2.0332,2.1289,2.2578,2.2871,0.0,0.0,2.5566,2.6191,2.6914,2.8457,3.0946,3.3247,3.4955,3.72,3.9242,4.0389,4.1128,4.1656,4.2208,4.2007,4.1806,4.1806,4.1806,4.1806,4.1806,4.1806,4.1806,4.1806,4.153,4.1329,4.1329,4.1329,4.148,4.1806,4.1505,4.1505,4.1806,4.1505,4.1229,4.1003,4.1229,4.1103,4.0651,4.0902,4.0877,4.0651,4.0651,4.0651,4.0651,4.0651,4.0777,4.0953,4.0651,4.0375,4.0149,3.9823,3.9697,3.9697,3.9697,3.9697,3.9697,3.9697,3.9697,3.9697,3.9697,3.9697,3.9697,3.9697,3.9697,3.9697,3.9697,3.9697,3.9697,3.9697,3.9697,3.9697,3.9697,3.9697,3.9697,3.9697,3.9697,3.9697,3.9697,3.9697,3.9697,3.9697,3.9697,3.9697,3.9697,3.9697,3.9697,3.9697,3.9697,3.9697,3.9697,3.9697,3.9465,3.8792,3.8031,3.6918,3.5704,3.4069,3.2851,3.2207,3.1325,3.0898,3.0898,3.0898,3.0898,3.0898,3.0898,3.0898,2.1758,2.2207,2.3164,2.4121,2.3926,0.0,2.6113,2.6074,2.5937,2.7129,3.0197,3.2769,3.2926,3.5973,3.8567,3.9069,3.9697,4.0425,4.1229,4.1279,4.1254,4.1254,4.1254,4.1254,4.1254,4.1254,4.1254,4.1254,4.1204,4.1153,4.1153,4.1153,4.1178,4.1254,4.1178,4.1178,4.1254,4.1178,4.0902,4.0425,4.0927,4.0651,3.9722,4.0199,4.0149,3.9697,3.9697,3.9697,3.9697,3.9697,3.9973,4.0425,4.0425,4.0124,3.9697,3.9697,3.9697,3.9697,3.9697,3.9697,3.9697,3.9697,3.9697,3.9697,3.9697,3.9697,3.9697,3.9697,3.9697,3.9697,3.9697,3.9697,3.9697,3.9697,3.9697,3.9697,3.9697,3.9697,3.9697,3.9697,3.9697,3.9697,3.9697,3.9697,3.9697,3.9697,3.9697,3.9697,3.9697,3.9697,3.9697,3.9697,3.9697,3.9594,3.9465,3.9465,3.8816,3.7346,3.7133,3.5813,3.3191,3.2964,3.2207,3.0898,3.0898,3.0898,3.0898,3.0898,3.0898,3.0898,3.0898,3.0898,2.3633,2.4434,2.5352,2.4199,2.4844,0.0,2.418,2.4297,2.4844,2.5449,2.7819,3.0052,3.1195,3.3624,3.5554,3.568,3.6885,3.8642,4.1003,4.0953,4.0676,4.0676,4.0676,4.0676,4.0676,4.0676,4.0676,4.0676,4.0275,4.0023,4.0023,4.0023,4.0224,4.0651,4.0249,4.0224,4.0676,4.0249,3.9948,3.9848,3.9973,3.9898,3.9697,3.9798,3.9798,3.9697,3.9697,3.9697,3.9697,3.9697,3.9747,3.9848,3.9848,3.9798,3.9697,3.9697,3.9697,3.9697,3.9697,3.9697,3.9697,3.9697,3.9697,3.9697,3.9697,3.9697,3.9697,3.9697,3.9697,3.9697,3.9697,3.9697,3.9697,3.9697,3.9697,3.9697,3.9697,3.9697,3.9697,3.9697,3.9697,3.9697,3.9697,3.9697,3.9697,3.9697,3.9697,3.9697,3.9697,3.9697,3.9697,3.9697,3.9697,3.9258,3.8031,3.7902,3.7263,3.5836,3.4626,3.3733,3.3077,3.1977,3.1228,3.0898,3.0898,3.0898,3.0898,3.0898,3.0898,3.0898,3.0898,3.0898,2.4512,2.4902,2.5566,2.4922,0.0,0.0,0.0,2.4258,2.4355,2.5215,2.7028,2.8835,3.0225,3.238,3.4073,3.4625,3.5881,3.7161,3.8291,3.917,3.9697,3.9697,3.9697,3.9697,3.9697,3.9948,4.0099,4.0099,3.9848,3.9697,3.9697,3.9697,3.9823,4.0099,3.9848,3.9823,4.0099,3.9823,3.9697,3.9697,3.9697,3.9697,3.9697,3.9697,3.9697,3.9697,3.9697,3.9697,3.9697,3.9697,3.9697,3.9697,3.9697,3.9697,3.9697,3.9697,3.9697,3.9697,3.9697,3.9697,3.9697,3.9697,3.9697,3.9697,3.9697,3.9697,3.9697,3.9697,3.9697,3.9697,3.9697,3.9697,3.9697,3.9697,3.9697,3.9697,3.9697,3.9697,3.9697,3.9697,3.9697,3.9697,3.9697,3.9697,3.9697,3.9697,3.9697,3.9697,3.9697,3.9697,3.9697,3.9697,3.9697,3.9362,3.8687,3.7902,3.6918,3.5398,3.3957,3.2758,3.1977,3.1325,3.0898,3.0898,3.0898,3.0898,3.0898,3.0898,3.0898,3.0898,3.0898,3.0898,2.5801,2.5723,2.6035,0.0,0.0,2.5273,0.0,0.0,0.0,2.5078,2.6355,2.7744,2.9103,3.0914,3.2461,3.3533,3.4776,3.5403,3.4977,3.6634,3.799,3.8216,3.8417,3.8542,3.8542,3.8768,3.9019,3.9346,3.917,3.9195,3.9521,3.9647,3.9697,3.9697,3.9697,3.9697,3.9697,3.9697,3.9697,3.9697,3.9697,3.9697,3.9697,3.9697,3.9697,3.9697,3.9697,3.9697,3.9697,3.9697,3.9697,3.9697,3.9697,3.9697,3.9697,3.9697,3.9697,3.9697,3.9697,3.9697,3.9697,3.9697,3.9697,3.9697,3.9697,3.9697,3.9697,3.9697,3.9697,3.9697,3.9697,3.9697,3.9697,3.9697,3.9697,3.9697,3.9697,3.9697,3.9697,3.9697,3.9697,3.9697,3.9697,3.9697,3.9697,3.9697,3.9697,3.9697,3.9697,3.9697,3.9697,3.9697,3.9465,3.9129,3.8921,3.7477,3.6031,3.4536,3.3304,3.2092,3.0995,3.0898,3.0898,3.0898,3.0898,3.0898,3.0898,3.0898,3.0898,3.0898,3.0898,3.0898,0.0,0.0,0.0,0.0,2.7363,0.0,0.0,0.0,2.4648,2.3633,0.0,2.5508,2.6696,0.0,0.0,3.0148,3.1662,3.2667,3.2591,3.3671,3.4826,3.5805,3.6784,3.7387,3.7387,3.6558,3.6634,3.809,3.7312,3.7412,3.8894,3.9421,3.9697,3.9697,3.9697,3.9697,3.9697,3.9697,3.9697,3.9697,3.9697,3.9697,3.9697,3.9697,3.9697,3.9697,3.9697,3.9697,3.9697,3.9697,3.9697,3.9697,3.9697,3.9697,3.9697,3.9697,3.9697,3.9697,3.9697,3.9697,3.9697,3.9697,3.9697,3.9697,3.9697,3.9697,3.9697,3.9697,3.9697,3.9697,3.9697,3.9697,3.9697,3.9697,3.9697,3.9697,3.9697,3.9697,3.9697,3.9697,3.9697,3.9697,3.9697,3.9697,3.9697,3.9697,3.9697,3.9697,3.9697,3.9697,3.9697,3.9697,3.8582,3.724,3.5945,3.4403,3.2964,3.1441,3.1228,3.1112,3.0898,3.0898,3.0898,3.0898,3.0898,3.0898,3.0898,3.0898,3.0898,3.0898,3.0898,3.0898,0.0,0.0,0.0,0.0,0.0,0.0,2.4687,0.0,2.3926,0.0,0.0,0.0,0.0,0.0,0.0,0.0,3.0834,3.116,3.0859,3.1486,3.2641,3.4374,0.0,0.0,3.6157,3.5529,3.5604,3.696,3.6332,3.6634,3.8291,3.8919,3.9371,3.9697,3.9697,3.9697,3.9697,3.9697,3.9697,3.9697,3.9697,3.9697,3.9697,3.9697,3.9697,3.9697,3.9697,3.9697,3.9697,3.9697,3.9697,3.9697,3.9697,3.9697,3.9697,3.9697,3.9697,3.9697,3.9697,3.9697,3.9697,3.9697,3.9697,3.9697,3.9697,3.9697,3.9697,3.9697,3.9697,3.9697,3.9697,3.9697,3.9697,3.9697,3.9697,3.9697,3.9697,3.9697,3.9697,3.9697,3.9697,3.9697,3.9697,3.9697,3.9697,3.9697,3.9697,3.9697,3.9697,3.9697,3.9697,3.9697,3.9129,3.8121,3.6284,3.484,3.3219,3.1564,3.0789,3.0488,3.0488,3.0742,3.0898,3.0898,3.0898,3.0898,3.0898,3.0898,3.0898,3.0898,3.0898,3.0898,2.918,0.0,0.0,0.0,0.0,0.0,0.0,0.0,0.0,0.0,0.0,0.0,0.0,0.0,2.853,3.0148,0.0,3.0206,2.9628,2.9779,3.0633,3.2541,0.0,0.0,0.0,3.3972,3.3947,3.5353,3.4675,3.5102,3.7211,3.7864,3.8567,3.9446,3.9471,3.9546,3.9697,3.9697,3.9697,3.9697,3.9697,3.9697,3.9697,3.9697,3.9697,3.9697,3.9697,3.9697,3.9697,3.9697,3.9697,3.9697,3.9697,3.9697,3.9697,3.9697,3.9697,3.9697,3.9697,3.9697,3.9697,3.9697,3.9697,3.9697,3.9697,3.9697,3.9697,3.9697,3.9697,3.9697,3.9697,3.9697,3.9697,3.9697,3.9697,3.9697,3.9697,3.9697,3.9697,3.9697,3.9697,3.9697,3.9697,3.9697,3.9697,3.9697,3.9697,3.9697,3.9697,3.9697,3.9647,3.9496,3.9137,3.8246,3.6629,3.4858,3.3009,3.1298,3.0498,3.0019,3.0019,3.0351,3.0527,3.0527,3.0527,3.0527,3.0527,3.0527,3.0527,3.0527,3.0781,3.0898,0.0,0.0,0.0,2.7676,0.0,0.0,0.0,0.0,2.5139,0.0,0.0,0.0,0.0,0.0,2.9711,2.9824,2.9829,0.0,0.0,2.8524,2.8624,2.9779,3.1311,3.2516,0.0,3.121,3.0859,0.0,3.1687,3.219,3.5454,3.6132,3.7186,3.8843,3.8894,3.9145,3.9697,3.9697,3.9697,3.9697,3.9697,3.9697,3.9697,3.9697,3.9697,3.9697,3.9697,3.9697,3.9697,3.9697,3.9697,3.9697,3.9697,3.9697,3.9697,3.9697,3.9697,3.9697,3.9697,3.9697,3.9697,3.9697,3.9697,3.9697,3.9697,3.9697,3.9697,3.9697,3.9697,3.9697,3.9697,3.9697,3.9697,3.9697,3.9697,3.9697,3.9697,3.9697,3.9697,3.9697,3.9697,3.9697,3.9697,3.9697,3.9697,3.9697,3.9697,3.9697,3.9697,3.9697,3.9496,3.8944,3.7697,3.6502,3.5876,3.3303,3.1079,2.9793,2.9702,2.959,2.959,2.9609,2.9609,2.9609,2.9609,2.9609,2.9609,2.9609,2.9609,2.9629,3.0488,3.0898,0.0,0.0,3.041,2.8359,0.0,0.0,0.0,0.0,0.0,0.0,0.0,0.0,0.0,0.0,2.947,3.0223,2.9402,2.8599,0.0,2.7921,2.7695,2.8097,2.9603,3.0532,3.0357,3.0005,3.0256,3.1361,3.126,0.0,3.4324,3.568,3.6784,3.7713,3.8492,3.8969,3.9145,3.9521,3.9697,3.9697,3.9697,3.9697,3.9697,3.9697,3.9697,3.9697,3.9697,3.9697,3.9697,3.9697,3.9697,3.9697,3.9697,3.9697,3.9697,3.9697,3.9697,3.9697,3.9697,3.9697,3.9697,3.9697,3.9697,3.9697,3.9697,3.9697,3.9697,3.9697,3.9697,3.9697,3.9697,3.9697,3.9697,3.9697,3.9697,3.9697,3.9697,3.9697,3.9597,3.922,3.9145,3.9019,3.8642,3.8567,3.8718,3.9094,3.8818,3.8567,3.8567,3.8567,3.8517,3.8316,3.701,3.5647,3.4211,3.1169,2.9252,2.873,2.8984,2.9141,2.9141,2.9414,2.957,2.957,2.957,2.957,2.957,2.957,2.957,2.957,2.9883,3.0019,3.0898,3.0898,0.0,2.8906,2.8105,0.0,2.5117,0.0,2.6159,0.0,0.0,0.0,0.0,0.0,3.0,3.0803,2.9478,2.8122,0.0,2.7243,2.7143,2.6741,2.8172,2.9126,2.895,2.8725,2.9076,3.0231,3.008,3.0909,0.0,3.45,3.573,3.686,3.7789,3.8366,3.8567,3.8919,3.9094,3.9094,3.9094,3.9094,3.9094,3.9094,3.9094,3.9094,3.932,3.9396,3.9421,3.9622,3.9697,3.9697,3.9697,3.9697,3.9697,3.9697,3.9697,3.9697,3.9697,3.9697,3.9697,3.9697,3.9697,3.9697,3.9697,3.9697,3.9697,3.9697,3.9697,3.9697,3.9697,3.9697,3.9697,3.9697,3.9697,3.9647,3.9446,3.9396,3.9245,3.8668,3.8567,3.8442,3.8065,3.7839,3.7914,3.8467,3.8241,3.8015,3.8015,3.7593,3.7195,3.6998,3.5824,3.4267,3.2355,3.0182,2.8794,2.8301,2.8555,2.8691,2.8691,2.8965,2.9121,2.9121,2.9121,2.9121,2.9121,2.9121,2.9121,2.9121,2.9121,2.9121]}]]